[[{"header":{"parameterUnit":"m.s-1","parameterCategory":1,"la1":30.6,"la2":29.2853,"lo1":-89.7004,"lo2":-87.6739,"dy":0.0162,"dx":0.0183,"nx":112,"ny":82,"refTime":"2024-04-05T12:00:00:Z","depth":0,"parameterNumber":2,"parameterNumberName":"U-component_of_WINDS"},"data":[0.0,0.0,0.0,0.0,0.0,0.0,0.0,0.0,0.0,0.0,0.0,0.0,0.0,0.0,0.0,0.0,0.0,0.0,0.0,0.0,0.0,0.0,0.0,0.0,0.0,0.0,0.0,0.0,0.0,0.0,0.0,0.0,0.0,0.0,0.0,0.0,0.0,0.0,0.0,0.0,0.0,0.0,0.0,0.0,0.0,0.0,0.0,0.0,0.0,0.0,0.0,0.0,0.0,0.0,0.0,0.0,0.0,0.0,0.0,0.0,0.0,0.0,0.0,0.0,0.0,0.0,0.0,0.0,0.0,0.0,0.0,0.0,0.0,0.0,0.0,0.0,0.0,0.0,0.0,0.0,0.0,0.0,0.0,0.0,0.0,0.0,0.0,0.0,0.0,0.0,0.0,-5.2747,-6.2732,-6.873,-6.8259,-6.5973,-6.0222,-4.9998,0.0,0.0,0.0,0.0,0.0,0.0,0.0,0.0,0.0,0.0,0.0,0.0,0.0,0.0,0.0,0.0,0.0,0.0,0.0,0.0,0.0,0.0,0.0,0.0,0.0,0.0,0.0,0.0,0.0,0.0,0.0,0.0,0.0,0.0,0.0,0.0,0.0,0.0,0.0,0.0,0.0,0.0,0.0,0.0,0.0,0.0,0.0,0.0,0.0,0.0,0.0,0.0,0.0,0.0,0.0,0.0,0.0,0.0,0.0,0.0,0.0,0.0,0.0,0.0,0.0,0.0,0.0,0.0,0.0,0.0,0.0,0.0,0.0,0.0,0.0,0.0,0.0,0.0,0.0,0.0,0.0,0.0,0.0,0.0,0.0,0.0,0.0,0.0,0.0,0.0,0.0,0.0,0.0,0.0,0.0,0.0,0.0,0.0,0.0,0.0,0.0,0.0,0.0,0.0,-4.7021,-5.8877,-6.5411,-6.8595,-6.7831,-6.37,-5.7822,-5.006,0.0,0.0,0.0,0.0,0.0,0.0,0.0,0.0,0.0,0.0,0.0,0.0,0.0,0.0,0.0,0.0,0.0,0.0,0.0,0.0,0.0,0.0,0.0,0.0,0.0,0.0,0.0,0.0,0.0,0.0,0.0,0.0,0.0,0.0,0.0,0.0,0.0,0.0,0.0,0.0,0.0,0.0,0.0,0.0,0.0,0.0,0.0,0.0,0.0,0.0,0.0,0.0,0.0,0.0,0.0,0.0,0.0,0.0,0.0,0.0,0.0,0.0,0.0,0.0,0.0,0.0,0.0,0.0,0.0,0.0,0.0,0.0,0.0,0.0,0.0,0.0,0.0,0.0,0.0,0.0,0.0,0.0,0.0,0.0,0.0,0.0,0.0,0.0,0.0,0.0,0.0,0.0,0.0,0.0,0.0,0.0,0.0,0.0,0.0,0.0,0.0,0.0,0.0,-4.5883,-5.1683,-6.2475,-6.5999,-6.7467,-6.7063,-6.2144,-5.6198,-4.9334,-4.3195,0.0,0.0,0.0,0.0,0.0,0.0,0.0,0.0,0.0,0.0,0.0,0.0,0.0,0.0,0.0,0.0,0.0,0.0,0.0,0.0,0.0,0.0,0.0,0.0,0.0,0.0,0.0,0.0,0.0,0.0,0.0,0.0,0.0,0.0,0.0,0.0,0.0,0.0,0.0,0.0,0.0,0.0,0.0,0.0,0.0,0.0,0.0,0.0,0.0,0.0,0.0,0.0,0.0,0.0,0.0,0.0,0.0,0.0,0.0,0.0,0.0,0.0,0.0,0.0,0.0,0.0,0.0,0.0,0.0,0.0,0.0,0.0,0.0,0.0,0.0,0.0,0.0,0.0,0.0,0.0,0.0,0.0,0.0,0.0,0.0,0.0,0.0,0.0,0.0,0.0,0.0,0.0,0.0,0.0,0.0,0.0,0.0,0.0,0.0,0.0,0.0,0.0,-5.1793,-5.6124,-6.3906,-6.5448,-6.5778,-6.5375,-5.9795,-5.3849,-4.8122,-4.0377,0.0,0.0,0.0,0.0,0.0,0.0,0.0,0.0,0.0,0.0,0.0,0.0,0.0,0.0,0.0,0.0,0.0,0.0,0.0,0.0,0.0,0.0,0.0,0.0,0.0,0.0,0.0,0.0,0.0,0.0,0.0,0.0,0.0,0.0,0.0,0.0,0.0,0.0,0.0,0.0,0.0,0.0,0.0,0.0,0.0,0.0,0.0,0.0,0.0,0.0,0.0,0.0,0.0,0.0,0.0,0.0,0.0,0.0,0.0,0.0,0.0,0.0,0.0,0.0,0.0,0.0,0.0,0.0,0.0,0.0,0.0,0.0,0.0,0.0,0.0,0.0,0.0,0.0,0.0,0.0,0.0,0.0,0.0,0.0,0.0,0.0,0.0,0.0,0.0,0.0,0.0,0.0,0.0,0.0,0.0,0.0,0.0,0.0,0.0,0.0,0.0,0.0,-5.2711,-5.8143,-6.2511,-6.3759,-6.3649,-6.2071,-5.539,-4.9811,-4.6287,-3.711,0.0,0.0,0.0,0.0,0.0,0.0,0.0,0.0,0.0,0.0,0.0,0.0,0.0,0.0,0.0,0.0,0.0,0.0,0.0,0.0,0.0,0.0,0.0,0.0,0.0,0.0,0.0,0.0,0.0,0.0,0.0,0.0,0.0,0.0,0.0,0.0,0.0,0.0,0.0,0.0,0.0,0.0,0.0,0.0,0.0,0.0,0.0,0.0,0.0,0.0,0.0,0.0,0.0,0.0,0.0,0.0,0.0,0.0,0.0,0.0,0.0,0.0,0.0,0.0,0.0,0.0,0.0,0.0,0.0,0.0,0.0,0.0,0.0,0.0,0.0,0.0,0.0,0.0,0.0,0.0,0.0,0.0,0.0,0.0,0.0,0.0,0.0,0.0,0.0,0.0,0.0,0.0,0.0,0.0,0.0,0.0,0.0,0.0,0.0,0.0,0.0,0.0,-5.1022,-5.5904,0.0,-6.2328,-6.1667,-5.9538,-5.5023,-4.9627,-4.3314,0.0,0.0,0.0,0.0,0.0,0.0,0.0,0.0,0.0,0.0,0.0,0.0,0.0,0.0,0.0,0.0,0.0,0.0,0.0,0.0,0.0,0.0,0.0,0.0,0.0,0.0,0.0,0.0,0.0,0.0,0.0,0.0,0.0,0.0,0.0,0.0,0.0,0.0,0.0,0.0,0.0,0.0,0.0,0.0,0.0,0.0,0.0,0.0,0.0,0.0,0.0,0.0,0.0,0.0,0.0,0.0,0.0,0.0,0.0,0.0,0.0,0.0,0.0,0.0,0.0,0.0,0.0,0.0,0.0,0.0,0.0,0.0,0.0,0.0,0.0,0.0,0.0,0.0,0.0,0.0,0.0,0.0,0.0,0.0,0.0,0.0,0.0,0.0,0.0,0.0,0.0,0.0,0.0,0.0,0.0,0.0,0.0,0.0,0.0,0.0,0.0,0.0,-4.6012,-5.0215,-5.4656,0.0,-6.075,-5.9575,-5.7409,-5.2858,-4.7425,-4.1111,0.0,0.0,0.0,0.0,0.0,0.0,0.0,0.0,0.0,0.0,0.0,0.0,0.0,0.0,0.0,0.0,0.0,0.0,0.0,0.0,0.0,0.0,0.0,0.0,0.0,0.0,0.0,0.0,0.0,0.0,0.0,0.0,0.0,0.0,0.0,0.0,0.0,0.0,0.0,0.0,0.0,0.0,0.0,0.0,0.0,0.0,0.0,0.0,0.0,0.0,0.0,0.0,0.0,0.0,0.0,0.0,0.0,0.0,0.0,0.0,0.0,0.0,0.0,0.0,0.0,0.0,0.0,0.0,0.0,0.0,0.0,0.0,0.0,0.0,0.0,0.0,0.0,0.0,0.0,0.0,0.0,0.0,0.0,0.0,0.0,0.0,0.0,0.0,0.0,0.0,0.0,0.0,0.0,0.0,0.0,0.0,0.0,0.0,0.0,0.0,0.0,0.0,-4.6122,-5.0635,-5.5001,-5.9832,-5.8914,-5.7299,-5.5684,-4.8159,-4.2486,0.0,0.0,0.0,0.0,0.0,0.0,0.0,0.0,0.0,0.0,0.0,0.0,0.0,0.0,0.0,0.0,0.0,0.0,0.0,0.0,0.0,0.0,0.0,0.0,0.0,0.0,0.0,0.0,0.0,0.0,0.0,0.0,0.0,0.0,0.0,0.0,0.0,0.0,0.0,0.0,0.0,0.0,0.0,0.0,0.0,0.0,0.0,0.0,0.0,0.0,0.0,0.0,0.0,0.0,0.0,0.0,0.0,0.0,0.0,0.0,0.0,0.0,0.0,0.0,0.0,0.0,0.0,0.0,0.0,0.0,0.0,0.0,0.0,0.0,0.0,0.0,0.0,0.0,0.0,0.0,0.0,0.0,0.0,0.0,0.0,0.0,0.0,0.0,0.0,0.0,0.0,0.0,0.0,0.0,0.0,0.0,0.0,0.0,0.0,0.0,0.0,0.0,0.0,-4.4691,-4.9003,-5.2931,-5.6602,-5.6088,-5.4803,-5.3209,-4.8233,-4.3167,-3.8484,0.0,0.0,0.0,0.0,0.0,0.0,0.0,0.0,0.0,0.0,0.0,0.0,0.0,0.0,0.0,0.0,0.0,0.0,0.0,0.0,0.0,0.0,0.0,0.0,0.0,0.0,0.0,0.0,0.0,0.0,0.0,0.0,0.0,0.0,0.0,0.0,0.0,0.0,0.0,0.0,0.0,0.0,0.0,0.0,0.0,0.0,0.0,0.0,0.0,0.0,0.0,0.0,0.0,0.0,0.0,0.0,0.0,0.0,0.0,0.0,0.0,0.0,0.0,0.0,0.0,0.0,0.0,0.0,0.0,0.0,0.0,0.0,0.0,0.0,0.0,0.0,0.0,0.0,0.0,0.0,0.0,0.0,0.0,0.0,0.0,0.0,0.0,0.0,0.0,0.0,0.0,0.0,0.0,0.0,0.0,0.0,0.0,0.0,0.0,0.0,0.0,0.0,-4.3608,-4.7498,-5.1169,-5.473,-5.4106,-5.2931,-5.161,-4.7755,-4.302,-3.7382,0.0,0.0,0.0,0.0,0.0,0.0,0.0,0.0,0.0,0.0,0.0,0.0,0.0,0.0,0.0,0.0,0.0,0.0,0.0,0.0,0.0,0.0,0.0,0.0,0.0,0.0,0.0,0.0,0.0,0.0,0.0,0.0,0.0,0.0,0.0,0.0,0.0,0.0,0.0,0.0,0.0,0.0,0.0,0.0,0.0,0.0,0.0,0.0,0.0,0.0,0.0,0.0,0.0,0.0,0.0,0.0,0.0,0.0,0.0,0.0,0.0,0.0,0.0,0.0,0.0,0.0,0.0,0.0,0.0,0.0,0.0,0.0,0.0,0.0,0.0,0.0,0.0,0.0,0.0,0.0,0.0,0.0,0.0,0.0,0.0,0.0,0.0,0.0,0.0,0.0,0.0,0.0,0.0,0.0,0.0,0.0,0.0,0.0,0.0,0.0,0.0,0.0,-4.256,-4.603,-4.9591,-5.3518,-5.2564,-5.1353,-5.0618,-4.6838,-4.2196,-3.6824,0.0,0.0,0.0,0.0,0.0,0.0,0.0,0.0,0.0,0.0,0.0,0.0,0.0,0.0,0.0,0.0,0.0,0.0,0.0,0.0,0.0,0.0,0.0,0.0,0.0,0.0,0.0,0.0,0.0,0.0,0.0,0.0,0.0,0.0,0.0,0.0,0.0,0.0,0.0,0.0,0.0,0.0,0.0,0.0,0.0,0.0,0.0,0.0,0.0,0.0,0.0,0.0,0.0,0.0,0.0,0.0,0.0,0.0,0.0,0.0,-4.4232,0.0,0.0,0.0,0.0,0.0,0.0,0.0,0.0,0.0,0.0,0.0,0.0,0.0,0.0,0.0,0.0,0.0,0.0,0.0,0.0,0.0,0.0,0.0,0.0,0.0,0.0,0.0,0.0,0.0,0.0,0.0,0.0,0.0,0.0,0.0,0.0,0.0,0.0,0.0,0.0,0.0,-4.0194,-4.4011,-4.7498,-5.0345,-4.9701,-4.904,-4.8857,-4.5149,-4.1379,-3.7992,-3.4379,0.0,0.0,0.0,0.0,0.0,0.0,0.0,0.0,0.0,0.0,0.0,0.0,0.0,0.0,0.0,0.0,0.0,0.0,0.0,0.0,0.0,0.0,0.0,0.0,0.0,0.0,0.0,0.0,0.0,0.0,0.0,0.0,0.0,0.0,0.0,0.0,0.0,0.0,0.0,0.0,0.0,0.0,0.0,0.0,0.0,0.0,0.0,0.0,0.0,0.0,0.0,0.0,0.0,0.0,0.0,0.0,0.0,0.0,0.0,0.0,-4.5344,0.0,0.0,0.0,0.0,0.0,0.0,0.0,0.0,0.0,0.0,0.0,0.0,0.0,0.0,0.0,0.0,0.0,0.0,0.0,0.0,0.0,0.0,0.0,0.0,0.0,0.0,0.0,0.0,0.0,0.0,0.0,0.0,0.0,0.0,0.0,0.0,0.0,0.0,0.0,0.0,-3.946,-4.3057,-4.6104,-4.8196,-4.8012,-4.7496,-4.692,-4.4218,-4.1214,-3.8006,-3.4537,0.0,0.0,0.0,0.0,0.0,0.0,0.0,0.0,0.0,0.0,0.0,0.0,0.0,0.0,0.0,0.0,0.0,0.0,0.0,0.0,0.0,0.0,0.0,0.0,0.0,0.0,0.0,0.0,0.0,0.0,0.0,0.0,0.0,0.0,0.0,0.0,0.0,0.0,0.0,0.0,0.0,0.0,0.0,0.0,0.0,0.0,0.0,0.0,0.0,0.0,0.0,0.0,0.0,-5.549,-5.6217,-5.7726,-5.6869,-5.6404,-5.602,-5.1966,-4.9027,-4.7031,-4.6641,0.0,0.0,0.0,0.0,0.0,0.0,0.0,0.0,0.0,0.0,0.0,0.0,0.0,0.0,0.0,0.0,0.0,0.0,0.0,0.0,0.0,0.0,0.0,0.0,-4.2536,-4.1959,0.0,0.0,0.0,0.0,0.0,0.0,0.0,0.0,0.0,0.0,0.0,0.0,-3.9093,-4.2396,-4.5058,-4.6526,-4.6672,-4.6229,-4.5187,-4.3734,-4.1338,-3.7749,-3.4887,-3.254,0.0,0.0,0.0,0.0,0.0,0.0,0.0,0.0,0.0,0.0,0.0,0.0,0.0,0.0,0.0,0.0,0.0,0.0,0.0,0.0,0.0,0.0,0.0,0.0,0.0,0.0,0.0,0.0,0.0,0.0,0.0,0.0,-4.5768,-4.5156,0.0,0.0,0.0,0.0,0.0,0.0,0.0,0.0,0.0,0.0,0.0,0.0,0.0,-5.628,-5.7934,-5.9806,-6.0359,-5.9528,-6.2016,-6.2327,-6.0774,-6.1292,-6.1153,-6.0462,-5.9805,0.0,-5.0842,-4.8195,0.0,0.0,0.0,0.0,0.0,0.0,0.0,0.0,0.0,0.0,0.0,0.0,0.0,0.0,0.0,0.0,0.0,0.0,0.0,0.0,0.0,0.0,-4.4808,-4.3913,-4.3766,-4.3278,0.0,-3.9297,-3.7479,-3.6194,-3.5518,0.0,0.0,0.0,0.0,0.0,0.0,0.0,-3.7676,-4.1238,-4.4011,-4.4911,-4.5021,-4.4803,-4.4297,-4.3445,-4.1514,-3.8219,-3.6645,-3.4676,-3.2055,-2.9429,0.0,0.0,0.0,0.0,0.0,0.0,0.0,0.0,0.0,0.0,0.0,0.0,0.0,0.0,0.0,0.0,0.0,0.0,0.0,0.0,0.0,0.0,0.0,0.0,0.0,0.0,0.0,0.0,0.0,-4.6665,-4.839,-4.6293,-4.7527,-4.7389,0.0,0.0,0.0,0.0,0.0,0.0,0.0,0.0,0.0,-5.7736,-5.9254,-6.0737,-6.222,-6.3669,-6.4703,-6.529,-6.6186,-6.6773,-6.7014,-6.6531,-6.6359,-6.6324,-6.46,-6.2053,-5.8691,-5.3748,-5.0144,-4.7622,0.0,0.0,0.0,0.0,-4.5076,-4.4711,-4.5457,-4.5376,0.0,-4.4212,0.0,0.0,0.0,0.0,0.0,0.0,0.0,0.0,0.0,0.0,-4.5918,-4.4769,-4.5223,-4.533,-4.328,-4.1618,-3.9893,0.0,-3.7353,-3.6666,-3.4353,0.0,0.0,0.0,0.0,-3.6537,-3.8227,-4.0962,-4.2878,-4.324,-4.3693,-4.3624,-4.2709,-4.194,-4.0607,-3.8516,-3.6282,-3.431,-3.2644,-2.9951,-2.8638,0.0,0.0,0.0,0.0,0.0,0.0,0.0,0.0,0.0,0.0,0.0,0.0,0.0,0.0,0.0,0.0,0.0,0.0,0.0,0.0,0.0,0.0,0.0,0.0,0.0,0.0,0.0,0.0,-4.901,-5.1011,-4.7596,-5.039,-5.0873,0.0,0.0,0.0,0.0,0.0,0.0,-5.7185,-5.8668,-6.0806,-6.3807,-6.4876,-6.6117,-6.7601,-6.7807,-6.8739,-7.0429,-6.9635,-7.0153,-7.1774,-7.0636,-7.0222,-7.0256,-6.8014,-6.6152,-6.4223,-5.8099,-5.3589,-5.0362,-4.8739,-4.7329,-4.6294,-4.7448,-4.7247,-4.6564,-4.7586,-4.7666,-4.7021,-4.5312,-4.4408,-4.3559,-4.1237,0.0,0.0,0.0,0.0,-4.2406,-4.309,-4.483,-4.6223,-4.5409,-4.6204,-4.6474,-4.4284,-4.3349,-4.2018,0.0,-3.8903,-3.8442,-3.5772,0.0,0.0,0.0,0.0,-3.6998,-3.8815,-4.0874,-4.2216,-4.2216,-4.2557,-4.2391,-4.131,-4.0551,-3.9538,-3.8121,-3.5752,-3.3938,-3.2938,-3.0386,-2.8984,-2.8984,0.0,0.0,0.0,0.0,0.0,0.0,0.0,0.0,0.0,0.0,0.0,0.0,0.0,0.0,0.0,0.0,0.0,0.0,0.0,0.0,0.0,0.0,0.0,0.0,0.0,0.0,0.0,0.0,0.0,-4.9223,-5.5219,0.0,0.0,0.0,0.0,-5.6288,-5.7702,-5.9599,-6.2013,-6.491,-6.7876,-7.0877,-7.2429,-7.3981,-7.5533,-7.4119,-7.3429,-7.3533,-7.2809,-7.254,-7.2644,-7.2575,-7.1739,-7.0394,-7.0222,-6.8083,-6.4289,-5.8943,-5.532,-5.2904,-4.993,-4.8273,-4.7582,-4.7686,-4.81,-4.8446,-4.7141,-4.7106,-4.7658,-4.7555,-4.6291,-4.4539,-4.294,-4.1746,0.0,0.0,-4.1442,-4.2741,-4.3128,-4.4136,-4.5268,-4.5982,-4.6228,-4.5842,-4.4226,-4.3793,-4.2959,0.0,-3.9463,-3.8562,-3.6488,0.0,-3.6358,-3.5201,-3.6988,-3.8486,-3.8593,-4.0717,-4.2216,-4.2216,-4.1594,-4.1004,-4.0489,-3.98,-3.8524,-3.6533,-3.5628,-3.4456,-3.2972,-3.0679,-2.9472,-2.9472,-2.8089,0.0,0.0,0.0,0.0,0.0,0.0,0.0,0.0,0.0,0.0,0.0,0.0,0.0,0.0,0.0,0.0,0.0,0.0,0.0,0.0,0.0,0.0,0.0,0.0,0.0,0.0,0.0,0.0,-5.6978,-6.1841,0.0,-5.953,-5.9219,-6.0013,-6.1737,-6.3289,-6.56,-6.8917,-7.0981,-7.305,-7.5119,-7.5706,-7.6016,-7.612,-7.505,-7.4257,-7.3774,-7.3058,-7.2713,-7.2713,-7.2153,-7.1636,-7.1015,-6.9532,-6.7876,-6.5876,-6.2048,-5.853,-5.5391,-5.3287,-5.1425,-4.9976,-5.0395,-5.0464,-5.0188,-4.97,-4.9666,-4.9597,-4.7631,-4.5874,-4.4297,-4.3315,-4.2706,-4.2486,-4.2784,-4.328,-4.3776,-4.3878,-4.4577,-4.5224,-4.5006,-4.4972,-4.4719,-4.3677,-4.3027,-4.2217,-4.0777,-4.0222,-3.9487,-3.8002,-3.7233,-3.6628,-3.5972,-3.6767,-3.7619,-3.8188,-3.9231,-3.9887,-3.9887,-3.9643,-3.9229,-3.8604,-3.7387,-3.6159,-3.4959,-3.3268,-3.2041,-3.1489,-2.9765,-2.8799,-2.8799,-2.7799,-2.7282,0.0,0.0,0.0,0.0,0.0,0.0,0.0,0.0,0.0,0.0,0.0,0.0,0.0,0.0,0.0,0.0,0.0,0.0,0.0,0.0,0.0,0.0,0.0,0.0,0.0,0.0,-6.2461,-6.2461,-6.7394,-6.9394,-6.5876,-6.5497,-6.6255,-6.8014,-6.9566,-7.1774,-7.4809,-7.6154,-7.7385,-7.8741,-7.8258,-7.7637,-7.6878,-7.5558,-7.4533,-7.3774,-7.3058,-7.2575,-7.2257,-7.1739,-7.1084,-7.0256,-6.8739,-6.7256,-6.5669,-6.3427,-6.0392,-5.7047,-5.577,-5.4184,-5.2666,-5.2877,-5.2528,-5.1804,-5.1287,-5.0597,-4.9602,-4.7631,-4.5768,-4.4207,-4.3724,-4.3414,-4.3345,-4.4104,-4.4104,-4.4,-4.4242,-4.4458,-4.4527,-4.4069,-4.3931,-4.3724,-4.2965,-4.2378,-4.1792,-4.1032,-4.0814,-4.0397,-3.9186,-3.845,-3.7792,-3.7158,-3.7291,-3.7596,-3.8182,-3.8482,-3.8594,-3.8594,-3.8375,-3.7927,-3.7167,-3.5904,-3.4663,-3.3386,-3.1922,-3.0834,-3.0317,-2.9075,-2.8385,-2.8385,-2.7661,-2.7282,-2.7282,0.0,0.0,0.0,0.0,0.0,0.0,0.0,0.0,0.0,0.0,0.0,0.0,0.0,0.0,0.0,0.0,0.0,0.0,0.0,0.0,0.0,0.0,0.0,-5.3529,-6.1427,-6.66,-6.5255,-7.1705,-7.4568,-7.0118,-7.2326,-7.4361,-7.5041,-7.6489,-7.8017,-7.95,-8.0258,-8.0948,-8.1707,-8.0224,-7.9086,-7.8361,-7.6006,-7.4533,-7.3774,-7.3015,-7.2222,-7.1498,-7.1429,-7.0187,-6.8083,-6.8014,-6.629,-6.3531,-6.2703,-6.0634,-5.7874,-5.7116,-5.6288,-5.5495,-5.477,-5.4011,-5.3149,-5.1632,-4.9602,-4.7707,-4.7734,-4.6182,-4.438,-4.4345,-4.3828,-4.3414,-4.4104,-4.3793,-4.3379,-4.4069,-4.3724,-4.3172,-4.3172,-4.3172,-4.293,-4.2171,-4.1999,-4.1733,-4.1032,-4.1209,-4.1111,-3.9928,-4.0083,-3.9957,-3.8787,-3.8594,0.0,-3.8582,-3.8582,-3.8582,-3.8582,-3.7927,-3.7167,-3.6353,-3.5594,-3.418,-3.1903,-3.1731,-3.1041,-2.9523,-2.8799,-2.8385,-2.8351,-2.7696,-2.7316,-2.7316,0.0,0.0,0.0,0.0,0.0,0.0,0.0,0.0,0.0,0.0,0.0,0.0,0.0,0.0,0.0,0.0,0.0,0.0,0.0,0.0,0.0,0.0,-5.953,-5.9185,-6.5083,-7.0532,-7.3429,-7.7603,-7.9948,-7.9224,-7.9431,-7.9672,-7.9913,-8.0293,-8.0741,-8.1155,-8.081,-8.0465,-8.0155,-7.8672,-7.7499,-7.674,-7.4981,-7.3981,-7.3774,-7.2464,-7.1705,-7.1429,-6.9773,-6.867,-6.798,-6.5773,-6.4358,-6.3393,-6.1013,-5.9495,-5.8599,-5.7288,-5.5977,-5.4805,-5.4563,-5.3667,-5.239,-5.1459,-4.9947,-4.8396,-4.7844,-4.6906,-4.5872,-4.5285,-4.4975,-4.4734,-4.4414,-4.4138,-4.3793,-4.2861,-4.2896,-4.3034,-4.2482,-4.2344,-4.2275,-4.2068,-4.1585,-4.1136,-4.0929,-4.0989,-4.0758,-3.9859,-3.9813,-3.9616,-3.872,-3.8594,0.0,-3.7892,-3.7823,-3.7823,-3.7823,-3.7616,-3.696,-3.5628,-3.4835,-3.344,-3.1163,-3.0455,-2.9696,-2.873,-2.8523,-2.8144,-2.7592,-2.7937,-2.8109,0.0,0.0,0.0,0.0,0.0,0.0,0.0,0.0,0.0,0.0,0.0,0.0,0.0,0.0,0.0,0.0,0.0,0.0,0.0,0.0,0.0,0.0,-5.9288,-6.4289,-6.5428,-6.9739,-7.4119,-7.7741,-8.0603,-8.2569,-8.3293,-8.2707,-8.2259,-8.2259,-8.1983,-8.1672,-8.1328,-8.0569,-7.981,-7.9086,-7.7568,-7.6395,-7.5637,-7.4395,-7.3636,-7.3291,-7.2084,-7.1325,-7.0946,-6.898,-6.7773,-6.7049,-6.4634,-6.322,-6.2461,-6.0082,-5.8702,0.0,0.0,0.0,0.0,0.0,-5.277,-5.1602,-5.0907,-4.9631,-4.8258,-4.7844,-4.6948,-4.6017,-4.5535,-4.5397,-4.5225,-4.4518,-4.4069,-4.3621,-4.2758,-4.262,-4.2654,-4.2551,-4.2516,-4.2413,-4.2043,-4.1688,-4.1274,-4.0963,-4.0894,0.0,-4.0284,-4.0181,-4.0066,-3.9652,-3.9284,-3.8767,-3.8065,-3.7685,-3.7374,-3.7008,-3.6973,-3.6387,-3.4869,-3.4372,0.0,0.0,0.0,-2.9661,-2.8903,-2.8868,0.0,0.0,0.0,-2.8868,-2.8868,0.0,0.0,0.0,-3.0006,-3.042,0.0,0.0,0.0,0.0,0.0,0.0,0.0,0.0,0.0,0.0,0.0,0.0,0.0,0.0,0.0,0.0,-6.3082,-6.7807,-7.1498,-7.4464,-7.7051,-7.9258,-8.1362,-8.2983,-8.3811,-8.3293,-8.2949,-8.3018,-8.2259,-8.15,-8.0776,0.0,0.0,0.0,0.0,-7.5558,-7.4766,-7.405,-7.3291,-7.2575,-7.1739,-7.0946,-7.0084,-6.8532,-6.7049,-6.5531,-6.4014,-6.2461,-6.0944,-5.9461,-5.7874,-5.6357,-5.5632,-5.5322,-5.4977,-5.2843,-5.1636,-5.1011,-5.0149,0.0,0.0,-4.7603,-4.6569,-4.5397,-4.5397,-4.5397,-4.5225,-4.4518,-4.3828,-4.331,-4.3207,-4.2689,-4.2344,-4.3034,-4.3207,-4.3,-4.2309,-4.2068,-4.1826,-4.117,-4.0963,-4.0894,-4.0894,-4.0894,-4.0894,-4.0894,-4.0284,-3.9526,-3.8698,-3.803,-3.734,-3.6525,0.0,0.0,-3.4476,-3.4268,-3.3302,-3.1076,-3.0765,-3.0386,-2.9661,-2.9558,-2.9489,-2.9489,-2.9592,-2.9627,-2.9627,-3.042,-3.08,-3.08,-3.08,-3.1179,0.0,0.0,0.0,0.0,0.0,0.0,0.0,0.0,0.0,0.0,0.0,0.0,0.0,0.0,0.0,-6.2737,-6.7325,-7.1532,-7.4774,-7.6258,-7.7637,-7.9327,-8.0431,-8.1603,-8.2983,-8.2983,-8.3156,-8.3742,-8.2569,-8.1741,-8.1569,-7.9707,-7.8258,-7.7465,-7.5937,-7.4774,-7.4016,-7.3257,-7.2498,-7.1705,0.0,0.0,-6.8497,-6.698,-6.5462,-6.3945,-6.2393,-6.0875,-5.9323,-5.784,-5.5977,-5.4046,-5.3908,-5.3425,-5.2705,-5.1701,-5.1218,-5.0878,-4.9499,-4.843,-4.7603,-4.701,-4.6155,-4.5397,-4.5397,-4.5397,0.0,-4.4518,-4.4207,-4.3966,-4.3345,-4.3069,-4.3,-4.3172,-4.3207,-4.3172,-4.3,-4.2482,-4.1964,-4.1826,-4.1309,-4.0894,-4.0894,-4.0894,-4.0894,-4.0894,-4.0791,-4.017,-3.8789,-3.8479,-3.8099,-3.7374,-3.7271,-3.687,-3.5939,-3.5318,-3.4249,-3.2593,-3.1351,-3.0627,-3.0455,-2.9834,-2.9489,-2.9489,-3.0144,-3.0455,-3.0455,-3.1214,-3.1593,-3.1593,-3.1593,-3.1662,0.0,0.0,0.0,0.0,0.0,0.0,0.0,0.0,0.0,0.0,0.0,-5.2252,-5.4184,0.0,-6.2979,-6.6428,-6.9842,-7.274,-7.4671,-7.5947,-7.7223,-7.8775,-7.9948,-8.1086,-8.2259,-8.2362,-8.2673,-8.3397,-8.2052,-8.1052,-8.0672,-7.8499,-7.6913,-7.6041,-7.4602,-7.3602,-7.3222,-7.2885,-7.2291,-7.1498,-7.0739,-6.9566,-6.8049,-6.6566,-6.5048,-6.3496,-6.1979,-6.0427,-5.8875,-5.6978,-5.4874,-5.2804,-5.2804,-5.2356,-5.1602,-5.1252,-5.0873,-5.039,-4.9189,-4.8327,-4.7596,-4.6837,-4.6052,-4.5397,-4.5397,-4.5397,-4.5225,-4.4518,-4.4311,-4.4207,-4.3862,-4.3759,-4.3828,-4.4216,-4.4285,-4.4078,-4.3345,-4.2896,-4.2378,-4.1619,-4.117,-4.0894,-4.0894,-4.0894,-4.0894,-4.0894,-4.0894,-4.048,-3.9284,-3.8836,-3.8318,-3.7581,-3.7133,-3.6594,-3.5801,-3.4697,-3.3731,-3.2938,-3.1869,-3.1248,-3.1248,-3.0869,-3.0662,-3.0662,-3.1041,-3.1248,-3.1248,-3.1627,-3.18,-3.18,-3.18,-3.2007,0.0,0.0,0.0,0.0,0.0,0.0,0.0,0.0,-4.8872,-5.0636,-5.3839,-5.7116,-5.9909,-6.3255,-6.6531,-6.9463,-7.1463,-7.2981,-7.3878,-7.4947,-7.6189,-7.7568,-7.9051,-8.0327,-8.1259,-8.1362,-8.1603,-8.219,-8.1224,-8.0224,-7.9327,-7.743,-7.5869,-7.4903,-7.3602,-7.2809,-7.2713,-7.2713,-7.2188,-7.1256,-7.0532,-6.9291,-6.7601,-6.6117,-6.46,-6.3048,-6.122,-5.9737,-5.8426,-5.6288,-5.4218,-5.2394,-5.2257,-5.177,-5.108,-5.0942,-5.0528,-4.9873,-4.8913,-4.8189,-4.7534,-4.6665,-4.5914,-4.5397,-4.5397,-4.5397,-4.5259,-4.4665,-4.4492,-4.4492,-4.4492,-4.4492,-4.4665,-4.5259,-4.5397,-4.5052,-4.3897,-4.3414,-4.2827,-4.1585,-4.1101,-4.0894,-4.0894,-4.0894,-4.0894,-4.0894,-4.0894,-4.0618,-3.9802,-3.9181,-3.8479,-3.7581,-3.6904,-3.618,-3.5283,-3.4076,-3.3283,-3.3145,-3.2559,-3.2179,-3.2007,-3.2007,-3.1938,-3.18,-3.18,-3.18,-3.18,-3.18,-3.1869,-3.2007,-3.2007,-3.2317,-4.4697,-4.3759,-4.4035,-4.6458,-4.6769,-4.801,0.0,0.0,-5.5426,-5.8323,-6.0875,-6.3117,-6.4807,-6.7118,-6.9532,-7.1912,-7.254,-7.3188,-7.4559,-7.4361,-7.4361,-7.5179,-7.6627,-7.8154,-7.9638,-7.9776,-7.981,-7.9879,-8.0362,-8.0017,-7.8603,-7.7603,-7.643,-7.4938,-7.4085,-7.3326,-7.2713,-7.2713,-7.1946,-7.0498,-6.9773,-6.8256,-6.6083,-6.4565,-6.3013,-6.1392,-5.853,-5.7219,-5.6909,-5.5288,-5.4115,-5.3184,-5.2494,-5.177,-5.1045,-5.0355,-5.008,-4.9804,-4.8355,-4.7775,-4.7431,-4.6017,-4.5466,-4.5397,-4.5397,-4.5397,-4.5363,-4.5294,-4.5259,-4.5259,-4.5259,-4.5259,-4.5294,-4.5363,-4.5397,-4.5363,-4.519,-4.4113,-4.3138,-4.2965,-4.1826,-4.0894,-4.0894,-4.0894,-4.0894,-4.0894,-4.0894,-4.0618,-3.9802,-3.9629,-3.9043,-3.765,-3.7443,-3.6788,-3.5318,-3.5042,-3.4663,-3.4007,-3.3889,-3.3524,-3.28,-3.2766,-3.2455,-3.18,-3.18,-3.18,-3.18,-3.18,-3.2145,-3.2766,-3.2766,-3.2835,-4.6933,-4.6355,0.0,0.0,-5.0085,-5.2735,-5.6046,-5.7909,-5.9668,-6.2289,-6.4979,-6.7221,-6.829,-7.0015,-7.1608,0.0,-7.2713,-7.2912,-7.3533,-7.3326,-7.2912,-7.236,-7.3636,-7.5533,-7.7948,-7.8189,-7.8534,-7.9431,-7.9396,-7.8844,-7.7775,-7.6523,-7.5395,-7.4292,-7.3533,-7.2774,-7.1981,-7.2506,-7.1705,-6.9739,-6.9428,-6.8083,-6.5842,-6.4289,-6.253,-6.053,-5.7909,-5.6805,-5.6667,-5.515,-5.3804,-5.2666,-5.2326,-5.1494,-5.0424,-5.0114,-4.97,-4.912,-4.8051,-4.7396,-4.6879,-4.5742,-4.5397,-4.5397,-4.5397,-4.5397,-4.5397,-4.5397,-4.5397,-4.5397,-4.5397,-4.5397,-4.5294,-4.4872,-4.5113,-4.5156,-4.432,-4.3655,-4.3069,-4.2585,-4.1619,-4.0894,-4.0894,-4.0894,-4.0894,-4.0894,-4.0894,-4.0791,-4.0446,-3.9974,-3.9284,-3.8272,-3.7754,-3.7236,-3.6594,-3.5697,-3.5076,-3.4766,-3.4337,-3.3958,-3.3593,-3.3593,-3.3455,-3.3145,-3.3145,-3.3145,-3.3145,-3.3145,-3.3302,-3.3593,-3.3593,-3.3835,-4.7627,0.0,0.0,-5.0361,-5.3804,-5.7357,-5.9185,-6.1461,-6.3772,-6.5842,-6.8049,-6.9739,-7.0291,-7.1463,-7.236,-7.236,-7.2575,-7.2713,-7.2713,-7.2326,-7.1463,-6.9946,-7.036,-7.1843,-7.4464,-7.5844,-7.7051,-7.8154,-7.8154,-7.7637,-7.6592,-7.5489,-7.4568,-7.3809,-7.305,-7.2395,-7.1843,-7.2188,-7.1429,-6.9566,-6.8946,-6.7566,-6.5497,-6.3531,-6.153,-5.9461,-5.7598,-5.6667,-5.6357,-5.5046,-5.3736,-5.2528,-5.2291,-5.1395,-5.0287,-5.008,-4.9465,-4.8672,-4.7948,-4.7217,-4.6493,-4.5638,-4.5397,-4.5397,-4.5397,-4.5397,-4.5397,-4.5397,-4.5397,-4.5397,-4.5397,-4.5397,-4.519,-4.4483,-4.4872,-4.5052,-4.3793,-4.3345,-4.3034,-4.2447,-4.155,-4.0894,-4.0894,-4.0894,-4.0894,-4.0894,-4.0894,-4.0894,-4.0894,-4.0181,-3.9491,-3.8939,-3.8065,-3.7512,-3.7512,-3.6249,-3.549,-3.549,-3.5007,-3.4614,-3.4407,-3.4387,-3.4303,-3.4096,-3.4096,-3.4096,-3.4096,-3.4096,-3.4199,-3.4387,-3.4387,-3.48,-4.5624,0.0,-4.9844,-5.429,-5.7771,-6.122,-6.5669,-6.729,-6.8325,-6.9877,-7.0291,-7.036,-7.0394,-7.1015,-7.1532,-7.1532,-7.2188,-7.2713,-7.2713,-7.1394,-6.9877,-6.8359,-6.6945,-6.6704,0.0,-7.2395,-7.4972,-7.5041,-7.6386,-7.6558,-7.5041,-7.4903,-7.4568,-7.3809,-7.305,-7.2713,-7.2678,-7.1912,-7.1118,-7.0325,-6.8118,-6.6255,-6.4634,-6.1668,-5.9461,-5.7943,-5.715,-5.6357,-5.5598,-5.4805,-5.4046,-5.3287,-5.2528,-5.174,-5.0976,-5.0252,-4.9465,-4.8672,-4.7948,-4.7217,-4.6493,-4.5638,-4.5397,-4.5397,-4.5397,-4.5397,-4.5397,-4.5397,-4.5397,-4.5397,-4.5397,-4.5397,-4.519,-4.4483,-4.4872,-4.519,-4.4449,-4.369,-4.3172,-4.3172,-4.193,-4.0894,-4.0894,-4.0894,-4.0894,-4.0894,-4.0894,-4.0894,-4.0894,-4.0181,-3.9698,-3.9664,-3.8375,-3.7512,-3.7512,-3.6732,-3.6284,-3.6284,-3.6249,-3.5904,-3.518,-3.5145,-3.4835,-3.413,-3.4096,-3.4096,-3.4096,-3.4096,-3.4476,-3.5145,-3.5145,-3.5559,-4.8183,0.0,-5.5081,-5.915,-6.2461,-6.5359,-6.7911,-6.8704,-6.8877,-6.8877,-6.7256,-6.5876,-6.5876,-6.6083,-6.6738,-6.8256,-6.998,-7.1498,-7.2575,-7.1774,-7.0015,-6.698,-6.7049,0.0,0.0,0.0,0.0,-7.3981,-7.4636,-7.4705,-7.4188,-7.4188,-7.3809,-7.3084,-7.2291,-7.167,-7.1153,-7.0912,-6.9877,-6.8118,-6.5807,-6.3669,-6.1668,-6.0151,-5.8633,-5.7116,-5.6357,-5.5874,-5.5563,-5.4805,-5.377,-5.2597,-5.2321,-5.1459,-5.0355,-5.008,-4.9465,-4.8672,-4.7948,-4.6845,-4.5742,-4.55,-4.5397,-4.5397,-4.5397,-4.5397,-4.5397,-4.5397,-4.5397,-4.5397,-4.5397,-4.5397,-4.519,-4.4483,-4.4872,-4.519,-4.4483,-4.3724,-4.3207,-4.3207,-4.1964,-4.0894,-4.0894,-4.0894,-4.0894,-4.0894,-4.0894,-4.0894,-4.0894,-4.0653,-4.0515,-4.0515,-3.956,-3.8767,-3.8272,-3.7974,-3.7387,-3.6353,-3.6801,-3.6732,-3.5939,-3.5939,-3.5801,-3.5559,-3.5559,-3.5559,-3.5559,-3.5559,-3.5697,-3.5939,-3.5939,-3.6042,-5.1581,-5.5306,-5.9392,-6.3462,-6.6152,-6.8118,-6.9394,-6.9049,-6.7911,-6.6048,-6.3703,-6.1703,-6.0875,-6.0737,-6.1565,-6.4152,-6.5773,-6.7738,-7.0636,-6.9911,-6.8359,-6.6497,-6.6635,0.0,0.0,0.0,0.0,-7.1946,-7.2671,-7.2981,-7.2981,-7.3222,-7.3188,-7.2705,-7.2188,-7.1532,-7.0774,-7.0532,-6.898,-6.6152,-6.4152,-6.1979,-5.9737,-5.9012,-5.784,-5.6357,-5.5839,-5.546,-5.5184,-5.4701,-5.3598,-5.2188,-5.2188,-5.1321,-5.0011,-5.0011,-4.9321,-4.8327,-4.7844,-4.6879,-4.5776,-4.55,-4.5397,-4.5397,-4.5397,-4.5397,-4.5397,-4.5397,-4.5397,-4.5397,-4.5397,-4.5397,-4.519,-4.4483,-4.4872,-4.519,-4.4483,-4.3931,-4.3586,-4.3586,-4.2344,-4.1309,-4.1309,-4.1067,-4.0894,-4.0894,-4.0894,-4.0894,-4.0894,-4.0894,-4.0894,-4.0894,-4.0181,-3.9491,-3.9008,-3.8732,-3.818,-3.718,-3.7353,-3.7271,-3.6732,-3.6456,-3.6284,-3.6284,-3.6284,-3.6284,-3.6284,-3.6284,-3.6284,-3.6284,-3.6284,-3.6284,-5.566,-5.9203,-6.2776,-6.7118,-6.8739,-6.9428,-7.0015,-6.8325,-6.5566,-6.1737,-5.9564,-5.7702,0.0,0.0,-5.6322,-5.9495,-6.0254,-6.2255,-6.7532,-6.6428,-6.56,0.0,0.0,0.0,0.0,0.0,0.0,-6.9158,0.0,-7.1463,-7.1567,-7.2257,-7.2713,-7.2713,-7.2678,-7.2222,-7.1429,-7.0601,-6.829,-6.4634,-6.3082,-6.1151,-5.8944,-5.815,-5.6978,-5.5563,-5.5563,-5.515,-5.4494,-5.4494,-5.3598,-5.2188,-5.2188,-5.1321,-5.0011,-5.0011,-4.9045,-4.7741,-4.7707,-4.7217,-4.6397,-4.5638,-4.5397,-4.5397,-4.5397,-4.5397,-4.5397,-4.5397,-4.5397,-4.5397,-4.5397,-4.5397,-4.5225,-4.4518,-4.4906,-4.519,-4.4518,-4.4345,-4.4311,-4.4311,-4.3103,-4.2068,-4.2033,-4.1412,-4.0929,-4.0929,-4.0894,-4.0894,-4.0894,-4.0894,-4.0894,-4.0894,-4.0215,-3.9733,-3.9698,-3.9077,-3.8663,-3.8594,-3.7996,-3.7581,-3.7512,-3.6766,-3.6353,-3.6284,-3.6284,-3.6284,-3.6284,-3.6284,-3.6284,-3.6284,-3.6284,-3.6284,-6.0141,-6.3971,-6.7675,-6.9381,-6.9532,-6.8877,-6.7359,-6.4393,-6.084,-5.7012,-5.2804,-4.9424,0.0,0.0,0.0,-5.6874,-6.0978,0.0,-6.998,-7.0636,0.0,-6.8842,0.0,-6.8256,-6.6566,-6.7635,0.0,0.0,-7.0153,-7.1153,-7.2326,-7.2609,-7.2713,-7.2713,-7.2119,-7.1429,-7.067,-6.8256,-6.5979,-6.3841,-6.1772,-5.9875,-5.815,-5.6805,-5.5667,-5.4805,-5.4805,-5.4667,-5.4494,-5.4494,-5.3598,-5.2188,-5.2188,-5.1321,-5.0011,-5.0011,-4.939,-4.843,-4.7879,-4.681,-4.5673,-4.5466,-4.5397,-4.5397,-4.5397,-4.5397,-4.5397,-4.5397,-4.5397,-4.5397,-4.5397,-4.5397,-4.5363,-4.5156,-4.5259,-4.5363,-4.5156,-4.4699,-4.4311,-4.4311,-4.3552,-4.2689,-4.2102,-4.1861,-4.155,-4.0998,-4.0894,-4.0894,-4.0894,-4.0894,-4.0894,-4.0894,-4.0722,-4.0353,-3.9733,-4.0101,-3.9825,-3.8663,-3.8939,-3.8629,-3.7547,-3.7305,-3.6904,-3.6318,-3.6284,-3.6284,-3.6284,-3.6284,-3.6284,-3.6284,-3.6284,-3.6284,-6.5019,-6.8222,-7.0804,-7.088,-6.9808,-6.7911,-6.4634,-6.0668,-5.6322,-5.1498,-4.7355,0.0,0.0,0.0,0.0,0.0,0.0,0.0,-6.8187,-6.9704,-7.0187,0.0,-7.0636,0.0,-6.8635,-6.9566,-7.0256,0.0,-7.0636,-7.1256,-7.2119,-7.254,-7.2713,-7.2713,-7.1912,-7.0808,-6.9394,-6.6393,-6.4117,-6.2565,-6.0599,-5.8702,-5.6874,-5.5979,-5.5219,-5.4494,0.0,-5.4494,-5.4494,-5.4149,-5.3322,-5.2153,-5.1843,-5.1011,-5.0011,-5.0011,-4.9465,-4.8741,-4.8327,-4.7189,-4.5845,-4.55,-4.5397,-4.5397,-4.5397,-4.5397,-4.5397,-4.5397,-4.5397,-4.5397,-4.5397,-4.5397,-4.5397,-4.5397,-4.5397,-4.5397,-4.5397,-4.5079,-4.4699,-4.438,-4.3966,-4.3448,-4.2654,-4.2516,-4.2378,-4.1964,-4.1619,-4.1378,-4.1378,-4.1101,-4.0894,-4.0894,-4.0894,-4.0722,-4.0273,-4.0653,-4.0549,-3.9664,-3.9664,-3.9319,-3.8491,-3.7858,-3.7305,-3.6835,-3.649,-3.6284,-3.6284,-3.6663,-3.6628,-3.6318,-3.6663,-3.6835,-6.9544,-7.1656,-7.2602,-7.1468,-6.9325,-6.629,-6.1599,-5.7012,-5.208,-4.6155,0.0,-4.124,-3.9698,-4.0836,-4.3768,-4.9252,0.0,-5.7288,-6.5221,-6.6807,-6.8256,-7.1291,-7.1636,-7.1394,-7.0739,-7.1256,-7.1636,-7.1636,-7.1567,-7.1532,-7.1636,-7.2291,-7.2644,-7.2402,-7.1498,-7.0015,-6.7807,-6.5014,-6.2772,-6.1151,-5.9599,-5.7736,-5.5598,-5.5529,-5.5115,-5.4494,-5.4494,0.0,-5.446,-5.3701,-5.2942,-5.2119,-5.139,-5.0666,-5.0011,-5.0011,-4.9465,-4.881,-4.881,-4.781,-4.6493,-4.5776,-4.55,-4.5397,-4.5397,-4.5397,-4.5397,-4.5397,-4.5397,-4.5397,-4.5397,-4.5397,-4.5397,-4.5397,-4.5397,-4.5397,-4.5397,-4.5397,-4.519,-4.4561,-4.4449,-4.4207,-4.3483,-4.3345,-4.331,-4.3207,-4.262,-4.2171,-4.2171,-4.1412,-4.0894,-4.0894,-4.0894,-4.0894,-4.0894,-4.0894,-4.0894,-4.0894,-4.0273,-3.9802,-3.9698,-3.8375,-3.765,-3.765,-3.6835,-3.6525,-3.6594,-3.7305,-3.7305,-3.6628,-3.7318,-3.765,-7.1788,-7.2941,-7.3039,-7.0347,-6.7014,-6.3013,-5.7805,-5.3049,0.0,0.0,-4.125,-3.9629,-3.8168,-4.0135,-4.394,-4.9942,0.0,0.0,0.0,0.0,-6.9049,0.0,0.0,0.0,0.0,0.0,0.0,0.0,0.0,-7.1774,-7.2429,-7.2644,-7.2084,-7.0808,-6.9428,-6.7911,-6.629,-6.4496,-6.253,-6.0358,-5.884,-5.7219,-5.5598,-5.4977,-5.4632,-5.4494,-5.4494,0.0,-5.446,-5.3701,-5.2942,-5.2119,-5.139,-5.0666,-5.0011,-5.0011,-4.9465,-4.881,-4.881,-4.781,-4.6596,-4.6458,-4.5914,-4.5397,-4.5397,-4.5397,-4.5397,-4.5397,-4.5397,-4.5397,-4.5397,-4.5397,-4.5397,-4.5397,-4.5397,-4.5397,-4.5397,-4.5397,-4.5363,-4.5225,-4.519,-4.4975,-4.4242,-4.4104,-4.3897,-4.3276,-4.3069,-4.3,-4.3,-4.1757,-4.0894,-4.0894,-4.0894,-4.0894,-4.0894,-4.0894,-4.0894,-4.0894,-4.0791,-4.0388,-3.9733,-3.887,-3.8387,-3.8387,-3.7685,-3.7616,-3.818,-3.8318,-3.8318,-3.818,-3.8318,-3.8387,-7.4018,-7.4475,-7.3722,-7.0657,-6.6425,-6.1392,-5.5253,0.0,0.0,0.0,-3.8732,-3.7836,-3.7547,0.0,0.0,0.0,0.0,0.0,0.0,0.0,0.0,0.0,0.0,0.0,0.0,0.0,0.0,0.0,0.0,-7.1843,-7.2678,-7.2291,-7.1187,-6.9256,-6.8118,-6.66,-6.4703,-6.3151,-6.1254,-5.8978,-5.7874,-5.6529,-5.5046,-5.4667,-5.4494,-5.4494,-5.4494,0.0,-5.4425,-5.3253,-5.2563,-5.2084,-5.0976,-5.0321,-5.0011,-5.0011,-4.9769,-4.9424,-4.9424,-4.843,-4.7182,-4.7182,-4.6362,-4.5397,-4.5397,-4.5397,-4.5397,-4.5397,-4.5397,-4.5397,-4.5397,-4.5397,-4.5397,-4.5397,-4.5397,-4.5397,-4.5397,-4.5397,-4.55,-4.5914,-4.5673,-4.5535,-4.601,-4.5389,-4.4906,-4.4941,-4.4311,-4.3759,-4.3759,-4.2792,-4.193,-4.1516,-4.1136,-4.0894,-4.0894,-4.0894,-4.0894,-4.0894,-4.0894,-4.0722,-4.0342,-3.956,-3.9146,-3.9146,-3.8456,-3.8272,-3.8594,-3.8974,-3.8974,-3.8594,-3.8974,-3.9146,-7.5099,-7.547,-7.4404,-7.0796,-6.6069,-6.0358,-5.3111,-4.7631,0.0,0.0,-3.7111,-3.6939,-3.7409,0.0,-4.0767,0.0,0.0,0.0,0.0,0.0,0.0,0.0,0.0,0.0,0.0,0.0,0.0,0.0,0.0,0.0,-7.2195,-7.1291,-6.9877,-6.7911,-6.698,-6.5497,-6.3358,-6.1841,-6.0013,-5.7909,-5.6978,-5.5839,-5.4494,-5.4494,-5.4494,-5.4494,-5.4494,0.0,0.0,-5.2839,-5.2188,-5.205,-5.0597,-5.0011,-5.0011,-5.0011,-5.0011,-5.0011,-5.0011,-4.901,-4.7672,-4.7672,-4.6638,-4.5397,-4.5397,-4.5397,-4.5397,-4.5397,-4.55,-4.5638,-4.5638,-4.5638,-4.5604,-4.5432,-4.5397,-4.5397,-4.5397,-4.5535,-4.5845,-4.6493,-4.6224,-4.6259,-4.7465,-4.6707,-4.6052,-4.6527,-4.5561,-4.4725,-4.4587,-4.3897,-4.3207,-4.2585,-4.1688,-4.1067,-4.0929,-4.0894,-4.0894,-4.0894,-4.0894,-4.0894,-4.0894,-4.0112,-3.9767,-3.9939,-3.9215,-3.8905,-3.9077,-3.9664,-3.9664,-3.9134,-3.9664,-3.9939,-7.3756,-7.5014,-7.4857,-6.9672,-6.4914,-5.9341,-5.1014,0.0,0.0,-3.8306,-3.7996,-3.8215,-3.7616,-3.8168,-4.0181,0.0,0.0,0.0,0.0,0.0,0.0,0.0,0.0,0.0,0.0,0.0,0.0,0.0,0.0,0.0,-7.0567,-6.9187,-6.8014,-6.7118,-6.5669,-6.4152,-6.2599,-6.1082,-5.9495,-5.7874,-5.6426,-5.5288,-5.4494,-5.4494,-5.4494,-5.4494,-5.4494,0.0,0.0,-5.2839,-5.2188,-5.205,-5.0597,-5.0011,-5.0011,-5.0011,-5.0011,-5.0011,-5.0011,-4.901,-4.7672,-4.7672,-4.6638,-4.5397,-4.5397,-4.5397,-4.5397,-4.5397,-4.5914,-4.6493,-4.6493,-4.6493,-4.632,-4.5569,-4.5397,-4.5397,-4.5397,-4.5949,-4.6527,-4.6596,-4.7052,-4.7534,-4.7672,-4.7569,-4.7293,-4.67,-4.6493,-4.6148,-4.5397,-4.4665,-4.4173,-4.4104,-4.2792,-4.1654,-4.0963,-4.0894,-4.0894,-4.0894,-4.0894,-4.0894,-4.0894,-4.0112,-4.0043,-4.0791,-4.0008,-3.9939,-4.0687,-4.0756,-4.0756,-4.0687,-4.0756,-4.0791,-7.2722,-7.4247,-7.3799,-6.9839,-6.4043,-5.7544,-5.0921,0.0,-4.0388,-3.7885,-3.7309,-3.7249,-3.7478,-3.7318,-3.8249,0.0,0.0,0.0,0.0,0.0,0.0,0.0,0.0,0.0,0.0,0.0,0.0,0.0,0.0,0.0,-6.7669,-6.7532,-6.6876,-6.5635,-6.46,-6.3289,-6.1772,-6.0254,-5.8737,-5.7219,-5.6115,-5.5219,-5.4494,-5.4494,-5.4494,-5.4494,-5.4494,0.0,0.0,-5.2666,-5.1912,-5.1459,-5.0424,-5.0011,-5.0011,-5.0011,-5.0011,-5.0011,-5.0011,-4.9286,-4.8361,-4.8361,-4.7327,-4.6017,-4.5535,-4.5742,-4.6121,-4.6121,-4.6672,-4.7286,-4.7286,-4.6941,-4.6527,-4.619,-4.6466,-4.6914,-4.7362,-4.8051,-4.8665,-4.8665,-4.8465,-4.8499,-4.901,-4.8321,-4.7603,-4.7293,-4.6879,-4.632,-4.55,-4.5121,-4.4803,-4.4345,-4.293,-4.1871,-4.1585,-4.117,-4.0894,-4.0894,-4.0894,-4.0894,-4.0894,-4.0584,-4.0584,-4.0894,-4.0584,-4.0584,-4.0894,-4.0894,-4.0894,-4.0894,-4.0894,-4.0894,-6.9633,-7.1742,-7.1915,-6.8697,-6.2648,-5.6017,0.0,0.0,-3.8986,-3.759,-3.6578,-3.6215,-3.6973,-3.6663,-3.6973,0.0,0.0,0.0,0.0,0.0,0.0,0.0,0.0,0.0,0.0,0.0,0.0,0.0,0.0,0.0,0.0,-6.5497,-6.5255,-6.4393,-6.3427,-6.2186,-6.0634,-5.9323,-5.7943,-5.646,-5.5667,-5.5012,-5.4494,-5.4494,-5.4494,-5.4494,0.0,0.0,0.0,-5.2321,-5.1567,-5.1045,-5.0287,-5.0011,-5.0011,-5.0011,-5.0011,-5.0011,-5.0011,-4.9465,-4.881,-4.881,-4.7948,-4.6837,-4.6259,-4.6293,-4.6665,-4.6872,-4.7431,-4.8017,-4.8017,-4.7638,-4.7251,-4.7251,-4.7638,-4.8224,-4.8982,-4.9769,-5.0252,-5.0045,-4.9735,-4.9568,-4.9942,-4.9114,-4.8321,-4.8051,-4.7569,-4.6879,-4.588,-4.5742,-4.5466,-4.4699,-4.3457,-4.2585,-4.2378,-4.1654,-4.124,-4.124,-4.1032,-4.0894,-4.0894,-4.0894,-4.0894,-4.0894,-4.0894,-4.0894,-4.0894,-4.0894,-4.0894,-4.0894,-4.0894,-4.0894,-6.3723,-6.71,-6.9271,-6.5586,-6.0605,-5.5027,0.0,0.0,-3.8365,-3.7487,-3.6199,-3.5421,-3.618,-3.6318,-3.6801,-3.8353,0.0,0.0,0.0,0.0,0.0,0.0,0.0,0.0,0.0,0.0,0.0,0.0,0.0,0.0,0.0,-6.2944,-6.2841,-6.3565,-6.2117,-6.0599,-5.9047,-5.8288,-5.715,-5.5598,-5.4874,-5.4529,-5.4494,-5.4494,-5.4494,0.0,0.0,0.0,0.0,-5.1735,-5.1114,-5.1045,-5.0287,-5.0011,-5.0011,-5.0011,-5.0011,-5.0011,-5.0011,-4.9465,-4.881,-4.881,-4.8293,-4.77,-4.7672,-4.7182,-4.6769,-4.7465,-4.8224,-4.8775,-4.8775,-4.8775,-4.8775,-4.8775,-4.8775,-4.8982,-4.9804,-5.0562,-5.0873,-5.0149,-5.0597,-5.0873,-5.0114,-5.0011,-4.9735,-4.8913,-4.8775,-4.8224,-4.6803,-4.6596,-4.6259,-4.5466,-4.4734,-4.3966,-4.3241,-4.2447,-4.1999,-4.1999,-4.1309,-4.0894,-4.0894,-4.0894,-4.0894,-4.0894,-4.0894,-4.0894,-4.0894,-4.0894,-4.0894,-4.0894,-4.0894,-4.0894,-5.7341,-5.9798,-6.0612,-5.7307,-5.3423,-4.9296,-4.5225,0.0,-3.7578,-3.7115,-3.6816,-3.6535,-3.6281,-3.7072,-3.8253,-3.9707,0.0,0.0,0.0,0.0,0.0,0.0,0.0,0.0,0.0,0.0,0.0,0.0,0.0,0.0,0.0,-6.2117,-6.2048,-6.2806,-6.1358,-6.0047,-5.9012,-5.7771,-5.6633,-5.5566,-5.4874,-5.4494,-5.4494,-5.4494,0.0,0.0,0.0,0.0,0.0,-5.1528,-5.0804,-5.0321,-5.008,-5.0011,-5.0011,-5.0011,-5.0011,-5.0011,-5.0011,-4.9838,-4.9631,-4.9631,-4.9085,-4.8534,-4.9114,-4.8706,-4.8258,-4.9079,-4.9804,-5.0257,-4.9769,-4.9631,-4.9631,-4.9631,-4.9631,-4.9838,-5.0597,-5.1326,-5.1602,-5.0907,-5.0942,-5.0873,-5.0149,-5.0011,-4.9735,-4.8913,-4.881,-4.8258,-4.6803,-4.6596,-4.6293,-4.55,-4.519,-4.4768,-4.4,-4.3276,-4.2585,-4.2009,-4.1792,-4.1447,-4.0929,-4.0894,-4.0894,-4.0894,-4.0894,-4.0894,-4.0894,-4.0894,-4.0894,-4.0894,-4.0894,-4.0894,-5.055,-5.3726,-5.499,-5.2058,-4.9039,0.0,0.0,0.0,-3.6894,-3.6899,-3.6659,-3.6388,-3.6238,-3.6938,-3.7876,-3.8803,0.0,0.0,0.0,0.0,0.0,0.0,0.0,0.0,0.0,0.0,0.0,0.0,0.0,0.0,0.0,-6.1461,-6.0978,-6.1151,-5.9978,-5.8944,-5.8185,-5.6978,-5.5977,-5.5184,-5.4736,-5.4494,-5.4494,-5.4218,0.0,0.0,0.0,0.0,0.0,-5.1011,-5.0424,-5.0011,-5.0011,-5.0011,-5.0011,-5.0011,-5.0011,-5.0011,-5.0011,-5.0011,-5.0011,-5.0011,-4.9666,-4.9355,-4.9873,-4.9666,-4.9361,-4.9873,-5.0321,-5.0597,-5.0114,-5.0218,-5.0424,-5.0424,-5.0631,-5.0976,-5.1425,-5.1908,-5.1981,-5.1252,-5.1114,-5.0873,-5.0149,-5.0011,-4.9838,-4.9355,-4.9223,-4.881,-4.7569,-4.7458,-4.7017,-4.5949,-4.5845,-4.5535,-4.4768,-4.4035,-4.3414,-4.2896,-4.262,-4.224,-4.1792,-4.1757,-4.1619,-4.1343,-4.1343,-4.117,-4.0894,-4.0894,-4.0894,-4.0894,-4.0894,-4.0894,0.0,-4.8287,-5.1209,-4.8603,-4.6435,-4.4175,-4.1582,0.0,0.0,-3.6707,-3.592,-3.5372,-3.6114,-3.6285,-3.6388,-3.656,0.0,0.0,0.0,0.0,0.0,0.0,0.0,0.0,0.0,0.0,0.0,0.0,0.0,0.0,0.0,-6.0978,-5.9806,-5.8944,-5.8219,-5.746,-5.6736,-5.5977,-5.5253,-5.4494,-5.4494,-5.4494,-5.4391,-5.3701,0.0,0.0,0.0,0.0,0.0,-5.0321,-5.0011,-5.0011,-5.0011,-5.0011,-5.0011,-5.0011,-5.0011,-5.0011,-5.0011,-4.9976,-4.9907,-4.9907,-4.9942,-5.0011,-5.0011,-5.0011,-5.0011,-5.0011,-5.0045,-5.008,-5.008,-5.0597,-5.1114,-5.1114,-5.1597,-5.2015,-5.2015,-5.2015,-5.1839,-5.1149,-5.1045,-5.0804,-5.0114,-5.0011,-5.0011,-5.0011,-5.0011,-4.9735,-4.8879,-4.881,-4.8258,-4.6837,-4.67,-4.6328,-4.5535,-4.4803,-4.438,-4.4311,-4.3655,-4.3241,-4.3207,-4.3207,-4.2861,-4.2102,-4.2102,-4.1723,-4.0998,-4.0998,-4.0963,-4.0894,-4.0894,-4.0894,-3.7023,0.0,-4.0832,-3.8667,-3.7918,-3.7457,0.0,0.0,0.0,0.0,0.0,0.0,0.0,0.0,0.0,0.0,0.0,0.0,0.0,0.0,0.0,0.0,0.0,0.0,0.0,0.0,0.0,0.0,0.0,0.0,0.0,-6.0392,-5.9564,-5.8219,-5.746,-5.6702,-5.5908,-5.5669,-5.5253,-5.4494,-5.4494,-5.4218,-5.3667,-5.3494,0.0,0.0,0.0,0.0,-5.1045,-5.0321,-5.0011,-5.0011,-5.0011,-5.0011,-5.0011,-5.0011,-5.0011,-5.0011,-5.0011,-4.9597,-4.9085,-4.9085,-4.9528,-5.0011,-5.0011,-5.0011,-5.0011,-5.0011,-5.0424,-5.0838,-5.0838,-5.0976,-5.1114,-5.1114,-5.0804,-5.0528,-5.0528,-5.0528,-5.0459,-5.0287,-5.0252,-5.0218,-5.0045,-5.0011,-5.0011,-5.0011,-5.0011,-4.9735,-4.8879,-4.881,-4.843,-4.7562,-4.7431,-4.7121,-4.6389,-4.5569,-4.4906,-4.4345,-4.4138,-4.3793,-4.3207,-4.3207,-4.3103,-4.293,-4.293,-4.2516,-4.1757,-4.1757,-4.1447,-4.0894,-4.0894,-4.0894,-3.4718,-3.6788,-3.8492,-3.6265,-3.6431,-3.688,-3.5888,0.0,0.0,0.0,0.0,0.0,0.0,0.0,0.0,0.0,0.0,0.0,0.0,0.0,0.0,0.0,0.0,0.0,0.0,0.0,0.0,0.0,0.0,0.0,0.0,-5.9012,-5.8081,-5.6874,-5.646,-5.6046,-5.5598,-5.5288,-5.4908,-5.4494,-5.4149,-5.3804,-5.3391,-5.2666,-5.2114,0.0,0.0,0.0,-5.0562,-5.0183,-5.0011,-5.0011,-5.0011,-5.0011,-5.0011,-5.0011,-5.0011,-5.0011,-5.0011,-4.9735,-4.9286,-4.8913,-4.9327,-5.0011,-5.0011,-5.0011,-5.0011,-5.0011,-5.0287,-5.0597,-5.0597,-5.0873,-5.1011,-5.07,-5.0562,-5.0424,-5.008,-5.0011,-5.0011,-5.0011,-5.0011,-5.0011,-5.0011,-5.0011,-5.0011,-5.0011,-5.0011,-4.9838,-4.9424,-4.9327,-4.9217,-4.8803,-4.8396,-4.8017,-4.7638,-4.6569,-4.5604,-4.4837,-4.4803,-4.463,-4.4216,-4.4216,-4.4044,-4.3724,-4.3379,-4.3,-4.2551,-4.2551,-4.2171,-4.1412,-4.1412,-4.124,-3.4914,-3.7544,-3.9571,-3.6965,-3.7512,-3.8384,-3.6786,0.0,0.0,0.0,0.0,0.0,0.0,-3.6807,0.0,0.0,0.0,0.0,0.0,0.0,0.0,0.0,0.0,0.0,0.0,0.0,0.0,0.0,0.0,0.0,0.0,-5.7495,-5.6426,-5.5632,-5.5598,-5.5563,-5.546,-5.4805,-5.446,-5.4356,-5.3804,-5.3391,-5.3011,-5.1804,-5.1149,-5.0907,0.0,0.0,-5.0011,-5.0011,-5.0011,-5.0011,-5.0011,-5.0011,-5.0011,-5.0011,-5.0011,-4.9976,-4.9873,-4.9838,-4.97,-4.9016,-4.9327,-5.0011,-5.0011,-5.008,-5.0149,-5.0045,-5.0011,-5.0011,-5.0011,-5.0459,-5.0769,-5.0149,-5.0493,-5.0769,-5.0149,-5.0011,-5.0011,-5.0011,-5.0011,-5.0011,-5.0011,-5.0011,-5.0011,-5.0011,-5.0011,-5.0011,-5.0011,-5.0011,-5.0045,-5.0183,-4.9533,-4.9085,-4.8982,-4.7838,-4.6707,-4.5811,-4.5535,-4.5397,-4.5397,-4.5397,-4.5113,-4.4483,-4.3862,-4.3483,-4.3379,-4.3379,-4.2965,-4.2206,-4.2043,-4.164,-3.627,-3.7754,-3.811,-3.4761,-3.5144,-3.6073,-3.5083,0.0,0.0,0.0,0.0,0.0,0.0,0.0,0.0,0.0,0.0,0.0,0.0,0.0,0.0,0.0,0.0,0.0,0.0,0.0,0.0,0.0,0.0,0.0,0.0,-5.6909,-5.6426,-5.5632,-5.5598,-5.5322,-5.4667,-5.4563,-5.4184,-5.3598,-5.408,-5.3322,-5.1494,-5.1843,-5.1326,-5.0183,0.0,-5.0011,-5.0011,-5.0011,-5.0011,-5.0011,-5.0011,-5.0011,-5.0011,-5.0011,-5.0011,-4.9907,-4.9223,-4.8982,-4.8947,-4.8844,-4.9327,-5.0011,-5.0011,-5.0459,-5.0804,-5.0183,-5.0011,-5.0011,-5.0011,-5.008,-5.0149,-5.0045,-5.008,-5.0149,-5.0011,-5.0011,-5.0011,-5.0011,-5.0011,-5.0011,-5.0011,-5.0011,-5.0011,-5.0011,-5.0011,-5.0011,-5.0011,-5.0011,-5.0252,-5.0873,-5.0838,-5.0493,-4.9873,-4.9631,-4.8872,-4.7431,-4.6121,-4.5397,-4.5397,-4.5397,-4.5363,-4.5225,-4.5121,-4.4768,-4.4138,-4.4138,-4.3759,-4.3,-4.2221,-4.1768,-3.6814,-3.7983,-3.842,-3.5871,-3.6576,-3.762,0.0,0.0,0.0,0.0,0.0,0.0,0.0,0.0,0.0,0.0,0.0,0.0,0.0,0.0,0.0,0.0,0.0,0.0,0.0,0.0,0.0,0.0,0.0,0.0,0.0,0.0,-5.5391,-5.5046,-5.5012,-5.4667,-5.3908,-5.3908,-5.3736,-5.3391,-5.2908,-5.2114,-5.1114,-5.1045,-5.0666,-5.0011,0.0,-5.0011,-5.0011,-5.0011,-5.0011,-5.0011,-5.0011,-5.0011,-5.0011,-5.0011,-5.0011,-4.9873,-4.9085,-4.9085,-4.939,-4.8947,-4.9327,-5.0011,-5.0011,-5.0252,-5.0424,-5.0114,-5.0011,-5.0011,-5.0011,-5.0011,-5.0011,-5.0011,-5.0011,-5.0011,-5.0011,-5.0011,-5.0011,-5.0011,-5.0011,-5.0011,-5.0011,-5.0011,-5.0011,-5.0011,-5.0011,-5.0011,-5.0011,-5.0011,-5.0287,-5.1045,-5.0769,-5.07,-5.1149,-5.008,-4.8879,-4.7775,-4.7017,-4.6638,-4.6638,-4.6259,-4.6052,-4.6052,-4.5604,-4.5225,-4.4906,-4.4906,-4.4527,-4.3759,-4.2925,-4.2555,-3.7393,-3.8232,-3.869,-3.754,-3.8286,0.0,0.0,0.0,0.0,0.0,0.0,0.0,0.0,0.0,0.0,0.0,0.0,0.0,0.0,0.0,0.0,0.0,0.0,0.0,0.0,0.0,0.0,0.0,0.0,0.0,0.0,0.0,-5.4494,-5.4494,-5.4356,-5.3977,-5.3425,-5.3046,-5.2873,-5.2839,-5.1839,-5.1183,-5.0838,-5.0459,-5.0183,-5.0011,-5.0011,-5.0011,-5.0011,-5.0011,-5.0011,-5.0011,-5.0011,-5.0011,-5.0011,-5.0011,-5.0011,-4.9907,-4.9292,-4.9493,-4.9907,-4.9258,-4.9528,-5.0011,-5.0011,-5.0011,-5.0011,-5.0011,-5.0011,-5.0011,-5.0011,-5.0011,-5.0011,-5.0011,-5.0011,-5.0011,-5.0011,-5.0011,-5.0011,-5.0011,-5.0011,-5.0011,-5.0011,-5.0011,-5.0011,-5.0011,-5.0011,-5.0011,-5.0011,-5.0011,-5.0287,-5.1045,-5.0597,-5.0735,-5.1843,-5.0154,-4.8844,-4.8258,-4.8252,-4.8155,-4.7948,-4.7079,-4.6596,-4.6596,-4.5811,-4.5397,-4.5397,-4.5397,-4.5087,-4.4527,-4.3768,-4.3398,-3.8608,-3.8438,-3.779,-3.8396,-3.8373,0.0,-4.0551,-4.0392,0.0,-4.2523,0.0,0.0,0.0,0.0,0.0,0.0,0.0,0.0,0.0,0.0,0.0,0.0,0.0,0.0,0.0,0.0,0.0,0.0,0.0,0.0,0.0,0.0,0.0,-5.4494,-5.3839,-5.346,-5.3391,-5.1977,-5.1287,-5.1287,-5.1843,-5.1395,-5.0114,-5.0735,-5.0666,-5.0011,-5.0011,-5.0011,-5.0011,-5.0011,-5.0011,-5.0011,-5.0011,-5.0011,-5.0011,-5.0011,-5.0011,-5.0011,-4.9942,-4.9942,-5.0011,-4.9942,-4.9942,-5.0011,-5.0011,-5.0011,-5.0011,-5.0011,-5.0011,-5.0011,-5.0011,-5.0011,-5.0011,-5.0011,-5.0011,-5.0011,-5.0011,-5.0011,-5.0011,-5.0011,-5.0011,-5.0011,-5.0011,-5.0011,-5.0011,-5.0011,-5.0011,-5.0011,-5.0011,-5.0011,-5.0287,-5.1045,-5.1045,-5.108,-5.1183,-5.0424,-4.9907,-4.9838,-4.9838,-4.9528,-4.8741,-4.7355,-4.6596,-4.6596,-4.5811,-4.5397,-4.5397,-4.5397,-4.5363,-4.5294,-4.4431,-4.4035,-3.7647,-3.7702,-3.7681,-3.8431,-3.8491,0.0,0.0,-4.2484,-4.3636,-4.4609,-4.4959,0.0,0.0,0.0,0.0,0.0,0.0,0.0,0.0,0.0,0.0,0.0,0.0,0.0,0.0,0.0,0.0,0.0,0.0,0.0,0.0,0.0,0.0,-5.3839,-5.308,-5.2459,-5.1977,-5.139,-5.0873,-5.0424,-5.07,-5.0562,-5.0011,-5.0287,-5.0252,-5.0011,-5.0011,-5.0011,-5.0011,-5.0011,-5.0011,-5.0011,-5.0011,-5.0011,-5.0011,-5.0011,-5.0011,-5.0011,-5.0011,-5.0011,-5.0011,-5.0011,-5.0011,-5.0011,-5.0011,-5.0011,-5.0011,-5.0011,-5.0011,-5.0011,-5.0011,-5.0011,-5.0011,-5.0011,-5.0011,-5.0011,-5.0011,-5.0011,-5.0011,-5.0011,-5.0011,-5.0011,-5.0011,-5.0011,-5.0011,-5.0011,-5.0011,-5.0011,-5.0011,-5.0011,-5.0114,-5.039,-5.0838,-5.0907,-5.0459,-5.1011,-5.1183,-5.0735,-5.0252,-4.9873,-4.9562,-4.8534,-4.7741,-4.7293,-4.6535,-4.588,-4.5397,-4.5397,-4.5397,-4.5363,-4.4578,-4.4449,-3.64,-3.6591,-3.6969,-3.7854,0.0,0.0,-4.2684,-4.4567,-4.6163,-4.7488,0.0,0.0,0.0,0.0,0.0,0.0,0.0,0.0,0.0,0.0,0.0,0.0,0.0,0.0,0.0,0.0,0.0,0.0,0.0,0.0,0.0,0.0,-5.3011,-5.3011,-5.2287,-5.1602,-5.1114,-5.0873,-5.0493,-5.0011,-5.0011,-5.0011,-5.0011,-5.0011,-5.0011,-5.0011,-5.0011,-5.0011,-5.0011,-5.0011,-5.0011,-5.0011,-5.0011,-5.0011,-5.0011,-5.0011,-5.0011,-5.0011,-5.0011,-5.0011,-5.0011,-5.0011,-5.0011,-5.0011,-5.0011,-5.0011,-5.0011,-5.0011,-5.0011,-5.0011,-5.0011,-5.0011,-5.0011,-5.0011,-5.0011,-5.0011,-5.0011,-5.0011,-5.0011,-5.0011,-5.0011,-5.0011,-5.0011,-5.0011,-5.0011,-5.0011,-5.0011,-5.0011,-5.0011,-5.0011,-5.0011,-5.0011,-5.0459,-5.0562,-5.0045,-5.0942,-5.139,-5.1149,-5.0424,-5.0114,-5.0355,-4.9327,-4.843,-4.7707,-4.7189,-4.6535,-4.5776,-4.5776,-4.5776,-4.5742,-4.501,-4.5018,-3.5064,-3.5203,-3.5509,0.0,0.0,0.0,-4.5683,-4.6618,-4.7898,0.0,0.0,0.0,0.0,0.0,0.0,0.0,0.0,0.0,0.0,0.0,0.0,0.0,0.0,0.0,0.0,0.0,0.0,0.0,0.0,0.0,0.0,-5.2632,-5.2188,-5.2188,-5.1494,-5.1114,-5.1114,-5.0355,-5.0011,-5.0011,-5.0011,-5.0011,-5.0011,-5.0011,-5.0011,-5.0011,-5.0011,-5.0011,-5.0011,-5.0011,-5.0011,-5.0011,-5.0011,-5.0011,-5.0011,-5.0011,-5.0011,-5.0011,-5.0011,-5.0011,-5.0011,-5.0011,-5.0011,-5.0011,-5.0011,-5.0011,-5.0011,-5.0011,-5.0011,-5.0011,-5.0011,-5.0011,-5.0011,-5.0011,-5.0011,-5.0011,-5.0011,-5.0011,-5.0011,-5.0011,-5.0011,-5.0011,-5.0011,-5.0011,-5.0011,-5.0011,-5.0011,-5.0011,-5.0011,-5.0011,-5.0011,-5.0011,-5.0011,-5.0011,-5.0011,-5.0011,-5.0321,-5.1045,-5.0424,-5.0321,-5.108,-4.9602,-4.8465,-4.7707,-4.7707,-4.7327,-4.6631,-4.6631,-4.6631,-4.6596,-4.5776,-4.5731,-3.4341,-3.496,0.0,-3.7876,0.0,0.0,0.0,0.0,0.0,0.0,0.0,0.0,0.0,0.0,0.0,0.0,0.0,0.0,0.0,0.0,0.0,0.0,0.0,0.0,0.0,0.0,0.0,0.0,0.0,0.0,0.0,-5.1839,-5.1459,-5.1459,-5.0735,-5.0321,-5.0321,-5.0114,-5.0011,-5.0011,-5.0011,-5.0011,-5.0011,-5.0011,-5.0011,-5.0011,-5.0011,-5.0011,-5.0011,-5.0011,-5.0011,-5.0011,-5.0011,-5.0011,-5.0011,-5.0011,-5.0011,-5.0011,-5.0011,-5.0011,-5.0011,-5.0011,-5.0011,-5.0011,-5.0011,-5.0011,-5.0011,-5.0011,-5.0011,-5.0011,-5.0011,-5.0011,-5.0011,-5.0011,-5.0011,-5.0011,-5.0011,-5.0011,-5.0011,-5.0011,-5.0011,-5.0011,-5.0011,-5.0011,-5.0011,-5.0011,-5.0011,-5.0011,-5.0011,-5.0011,-5.0011,-5.0011,-5.0011,-5.0011,-5.0011,-5.0011,-5.008,-5.0321,-5.0114,-5.0321,-5.108,-5.0183,-4.9286,-4.8465,-4.8465,-4.8086,-4.7389,-4.7389,-4.7334,-4.7223,-4.6983,-4.69,-3.4161,-3.5223,0.0,-3.8697,0.0,0.0,0.0,0.0,0.0,0.0,0.0,0.0,0.0,0.0,0.0,0.0,0.0,0.0,0.0,0.0,0.0,0.0,0.0,0.0,0.0,0.0,0.0,0.0,0.0,0.0,0.0,-5.108,-5.0666,-5.0666,-4.9942,-4.9528,-4.9528,-4.9252,-4.9114,-4.9114,-4.9114,-4.9114,-4.9114,-4.9735,-5.0011,-5.0011,-5.0011,-4.9838,-4.9562,-4.9873,-5.0011,-5.0011,-5.0011,-5.0011,-5.0011,-5.0011,-5.0011,-5.0011,-5.0011,-5.0011,-5.0011,-5.0011,-5.0011,-5.0011,-5.0011,-5.0011,-5.0011,-5.0011,-5.0011,-5.0011,-5.0011,-5.0011,-5.0011,-5.0011,-5.0011,-5.0011,-5.0011,-5.0011,-5.0011,-5.0011,-5.0011,-5.0011,-5.0011,-5.0011,-5.0011,-5.0011,-5.0011,-5.0011,-5.0011,-5.0011,-5.0011,-5.0011,-5.0011,-5.0011,-5.0011,-5.0011,-5.0149,-5.0424,-5.0183,-5.0321,-5.108,-5.039,-4.9631,-4.881,-4.9085,-4.885,-4.8036,-4.8036,-4.8014,-4.7837,-4.7529,-4.7415,-3.4318,0.0,0.0,0.0,0.0,0.0,0.0,0.0,0.0,0.0,0.0,0.0,0.0,0.0,0.0,0.0,0.0,0.0,0.0,0.0,0.0,0.0,0.0,0.0,0.0,0.0,0.0,0.0,0.0,0.0,0.0,-5.0252,-4.9873,-4.9804,-4.9085,-4.8706,-4.8706,-4.8017,-4.7672,-4.7672,-4.7672,-4.7672,-4.7741,-4.9217,-4.9907,-4.9907,-4.9907,-4.9493,-4.8844,-4.9597,-4.9942,-5.0011,-5.0011,-5.0011,-5.0011,-5.0011,-5.0011,-5.0011,-5.0011,-5.0011,-5.0011,-5.0011,-5.0011,-5.0011,-5.0011,-5.0011,-5.0011,-5.0011,-5.0011,-5.0011,-5.0011,-5.0011,-5.0011,-5.0011,-5.0011,-5.0011,-5.0011,-5.0011,-5.0011,-5.0011,-5.0011,-5.0011,-5.0011,-5.0011,-5.0011,-5.0011,-5.0011,-5.0011,-5.0011,-5.0011,-5.0011,-5.0011,-5.0011,-5.0011,-5.0011,-5.0011,-5.0287,-5.0976,-5.039,-5.0287,-5.0947,-5.0326,-4.9637,-4.8913,-4.9602,-4.9516,-4.8684,-4.8684,-4.8626,-4.848,-4.7733,-4.768,0.0,-3.5948,0.0,0.0,0.0,0.0,0.0,0.0,0.0,0.0,0.0,0.0,0.0,0.0,0.0,0.0,0.0,0.0,0.0,0.0,0.0,0.0,0.0,0.0,0.0,0.0,0.0,0.0,0.0,0.0,-4.9292,-4.912,-4.8775,-4.8189,-4.8045,-4.7913,-4.7913,-4.7775,-4.7672,0.0,-4.7672,-4.7672,-4.7707,-4.8637,-4.9051,-4.9051,-4.9051,-4.8947,-4.881,-4.8982,-4.943,-5.0011,-5.0011,-5.0011,-5.0011,-5.0011,-5.0011,-5.0011,-5.0011,-5.0011,-5.0011,-5.0011,-5.0011,-5.0011,-5.0011,-5.0011,-5.0011,-5.0011,-5.0011,-5.0011,-5.0011,-5.0011,-5.0011,-5.0011,-5.0011,-5.0011,-5.0011,-5.0011,-5.0011,-5.0011,-5.0011,-5.0011,-5.0011,-5.0011,-5.0011,-5.0011,-5.0011,-5.0011,-5.0011,-5.0011,-5.0011,-5.0011,-5.0011,-5.0011,-5.0011,-5.0011,-5.008,-5.0252,-5.008,-4.9987,-5.0007,-4.987,-4.9669,-4.9497,-4.958,-4.9492,-4.9291,-4.9291,-4.9202,-4.9022,-4.8852,-4.8761,0.0,0.0,0.0,0.0,0.0,0.0,0.0,0.0,0.0,0.0,0.0,0.0,0.0,0.0,0.0,0.0,0.0,0.0,0.0,0.0,0.0,0.0,0.0,0.0,0.0,0.0,0.0,0.0,0.0,-4.8443,-4.8293,-4.8258,-4.8086,-4.7707,-4.7355,-4.7182,-4.7182,-4.6776,-4.6603,-4.6603,-4.6603,-4.6776,-4.7189,-4.7913,-4.8086,-4.7775,-4.812,-4.8051,-4.7775,-4.812,-4.8499,-4.8907,-4.8907,-4.8907,-4.8941,-4.9321,-4.9424,-4.9493,-4.9873,-5.0011,-5.0011,-5.0011,-5.0011,-5.0011,-5.0011,-5.0011,-5.0011,-5.0011,-5.0011,-5.0011,-5.0011,-5.0011,-5.0011,-5.0011,-5.0011,-5.0011,-5.0011,-5.0011,-5.0011,-5.0011,-5.0011,-5.0011,-5.0011,-5.0011,-5.0011,-5.0011,-5.0011,-5.0011,-5.0011,-5.0011,-5.0011,-5.0011,-5.0011,-5.0011,-5.0011,-4.9889,-4.986,-4.986,-4.9801,-4.9713,-4.959,-4.95,-4.95,-4.959,-4.953,-4.9441,-4.935,-4.935,-4.926,-4.9107,-4.9107,-4.9046,0.0,0.0,0.0,0.0,0.0,0.0,0.0,0.0,0.0,0.0,0.0,0.0,0.0,0.0,0.0,0.0,0.0,0.0,0.0,0.0,0.0,0.0,0.0,0.0,0.0,0.0,0.0,0.0,0.0,-4.7158,-4.7438,-4.75,-4.7458,-4.7293,-4.6707,-4.6362,-4.6362,-4.5742,-4.5397,-4.5397,-4.5397,-4.5742,-4.6397,-4.7017,-4.7052,-4.6631,-4.7251,-4.7155,-4.6665,-4.7286,-4.7569,-4.7672,-4.7672,-4.7672,-4.7775,-4.8534,-4.881,-4.8913,-4.9735,-5.0011,-5.0011,-5.0011,-5.0011,-5.0011,-5.0011,-5.0011,-5.0011,-5.0011,-5.0011,-5.0011,-5.0011,-5.0011,-5.0011,-5.0011,-5.0011,-5.0011,-5.0011,-5.0011,-5.0011,-5.0011,-5.0011,-5.0011,-5.0011,-5.0011,-5.0011,-5.0011,-5.0011,-5.0011,-5.0011,-5.0011,-5.0011,-5.0011,-5.0011,-4.9982,-4.9952,-4.9801,-4.9679,-4.9679,-4.956,-4.9471,-4.9441,-4.929,-4.926,-4.9411,-4.9411,-4.932,-4.9168,-4.9168,-4.9107,-4.9018,-4.9018,-4.9018,0.0,0.0,0.0,0.0,0.0,0.0,0.0,0.0,0.0,0.0,0.0,0.0,0.0,0.0,0.0,0.0,0.0,0.0,0.0,0.0,0.0,0.0,0.0,0.0,0.0,0.0,0.0,0.0,-4.651,-4.6309,-4.6474,-4.6652,-4.6431,-4.5742,-4.5604,-4.5569,-4.5569,-4.5466,-4.5397,-4.5397,-4.5397,-4.5466,-4.5569,-4.5673,-4.6017,-4.6631,-4.67,-4.67,-4.6631,-4.6734,-4.7121,-4.7672,-4.7672,-4.7672,-4.7775,-4.8534,-4.881,-4.8913,-4.9735,-5.0011,-5.0011,-5.0011,-5.0011,-5.0011,-5.0011,-5.0011,-5.0011,-5.0011,-5.0011,-5.0011,-5.0011,-5.0011,-5.0011,-5.0011,-5.0011,-5.0011,-5.0011,-5.0011,-5.0011,-5.0011,-5.0011,-5.0011,-5.0011,-5.0011,-5.0011,-5.0011,-5.0011,-5.0011,-5.0011,-5.0011,-5.0011,-5.0011,-5.0011,-4.9918,-4.9737,-4.9708,-4.9649,-4.953,-4.95,-4.9411,-4.926,-4.9199,-4.9168,-4.908,-4.908,-4.9046,-4.9049,-4.9049,-4.9049,-4.9018,-4.9018,-4.9018,0.0,0.0,0.0,0.0,0.0,0.0,0.0,0.0,0.0,0.0,0.0,0.0,0.0,0.0,0.0,0.0,0.0,0.0,0.0,0.0,0.0,0.0,0.0,0.0,0.0,0.0,0.0,0.0,-4.4654,-4.4858,-4.5039,-4.5566,-4.5688,-4.5397,-4.5397,-4.519,-4.4803,-4.4768,-4.4768,-4.4803,-4.519,-4.5397,-4.5397,-4.5397,-4.5604,-4.5914,-4.5914,-4.5914,-4.5914,-4.5914,-4.6121,-4.6397,-4.6397,-4.6397,-4.65,-4.7258,-4.781,-4.8293,-4.9079,-4.9631,-5.0011,-5.0011,-5.0011,-5.0011,-5.0011,-5.0011,-5.0011,-5.0011,-5.0011,-5.0011,-5.0011,-5.0011,-5.0011,-5.0011,-5.0011,-5.0011,-5.0011,-5.0011,-5.0011,-5.0011,-5.0011,-5.0011,-5.0011,-5.0011,-5.0011,-5.0011,-5.0011,-5.0011,-5.0011,-5.0011,-5.0011,-5.0011,-5.0011,-4.9918,-4.9708,-4.9619,-4.95,-4.935,-4.926,-4.9168,-4.9077,-4.9077,-4.9046,-4.9018,-4.9018,-4.9018,-4.9018,-4.9018,-4.9018,-4.9018,-4.9018,-4.9018,0.0,0.0,0.0,0.0,0.0,0.0,0.0,0.0,0.0,0.0,0.0,0.0,0.0,0.0,0.0,0.0,0.0,0.0,0.0,0.0,0.0,0.0,0.0,0.0,0.0,0.0,0.0,0.0,-4.3042,-4.3488,-4.3665,-4.4266,-4.4654,-4.4793,-4.4785,-4.4535,-4.4035,-4.4035,-4.4104,-4.4311,-4.4872,-4.519,-4.5371,-4.5397,-4.5371,-4.5318,-4.5371,-4.5397,-4.5397,-4.5397,-4.5397,-4.5397,-4.5397,-4.5397,-4.55,-4.632,-4.7079,-4.781,-4.8534,-4.9355,-5.0011,-5.0011,-5.0011,-5.0011,-5.0011,-5.0011,-5.0011,-5.0011,-5.0011,-5.0011,-5.0011,-5.0011,-5.0011,-5.0011,-5.0011,-5.0011,-5.0011,-5.0011,-5.0011,-5.0011,-5.0011,-5.0011,-5.0011,-5.0011,-5.008,-5.0252,-5.0287,-5.0355,-5.0562,-5.0424,-5.0287,-5.0287,-5.0114,-4.9889,-4.9679,-4.956,-4.9381,-4.9168,-4.908,-4.9086,-4.9255,-4.9086,-4.9086,-4.9289,-4.9086,-4.9018,-4.9018,-4.9018,-4.9018,-4.9018,-4.9018,-4.9018,0.0,0.0,0.0,0.0,0.0,0.0,0.0,0.0,0.0,0.0,0.0,0.0,0.0,0.0,0.0,0.0,0.0,0.0,0.0,0.0,0.0,0.0,0.0,0.0,0.0,0.0,0.0,0.0,0.0,-4.2558,-4.2558,-4.2791,-4.2989,-4.3108,-4.3108,-4.3184,-4.3241,-4.3241,-4.3621,-4.4311,-4.4345,-4.4647,-4.5203,-4.5344,-4.5264,-4.5049,-4.5291,-4.5397,-4.5397,-4.5397,-4.5397,-4.5397,-4.5397,-4.5397,-4.55,-4.632,-4.7079,-4.781,-4.8534,-4.9355,-5.0011,-5.0011,-5.0011,-5.0011,-5.0011,-5.0011,-5.0011,-5.0011,-5.0011,-5.0011,-5.0011,-5.0011,-5.0011,-5.0011,-5.0011,-5.0011,-5.0011,-5.0011,-5.0011,-5.0011,-5.0011,-5.0011,-5.0011,-5.0011,-5.0252,-5.0942,-5.1045,-5.1321,-5.1981,-5.1494,-5.1045,-5.1045,-5.0424,-4.986,-4.953,-4.95,-4.935,-4.9015,-4.8984,-4.9323,-4.9999,-4.9357,-4.9323,-5.0033,-4.9357,-4.9018,-4.9018,-4.9018,-4.9018,-4.9018,-4.9018,-4.9018,0.0,0.0,0.0,0.0,0.0,0.0,0.0,0.0,0.0,0.0,0.0,0.0,0.0,0.0,0.0,0.0,0.0,0.0,0.0,0.0,0.0,0.0,0.0,0.0,0.0,0.0,0.0,0.0,0.0,-4.1706,-4.1784,-4.2312,-4.2688,-4.2852,-4.2852,-4.2689,-4.2299,-4.2299,-4.2486,-4.2861,-4.3828,-4.4372,-4.4516,-4.5024,-4.515,-4.5022,-4.5177,-4.5257,-4.5291,-4.5371,-4.5397,-4.5397,-4.5397,-4.5397,-4.5432,-4.5707,-4.6293,-4.7113,-4.7844,-4.8568,-4.9292,-4.9838,-5.0011,-5.0011,-5.0011,-5.0011,-5.0011,-5.0011,-5.0011,-5.0011,-5.0011,-5.0011,-5.0011,-5.0011,-5.0011,-5.0011,-5.0011,-5.0011,-5.0011,-5.0011,-5.0011,-5.0149,-5.0631,-5.0735,-5.0976,-5.1701,-5.1808,-5.1735,-5.1498,-5.1287,-5.0942,-5.0459,-5.0061,-4.9708,-4.95,-4.9858,-4.9977,-4.9726,-5.0168,-5.0541,-5.0811,-5.0101,-4.983,-5.0067,-4.939,-4.9018,-4.9018,-4.9018,-4.9018,-4.9018,-4.9018,-4.9018,0.0,0.0,0.0,0.0,0.0,0.0,0.0,0.0,0.0,0.0,0.0,0.0,0.0,0.0,0.0,0.0,0.0,0.0,0.0,0.0,0.0,0.0,0.0,0.0,0.0,0.0,0.0,0.0,0.0,0.0,-4.0985,-4.1426,-4.1784,-4.1972,-4.2023,-4.18,-4.1386,-4.141,-4.1562,-4.1886,-4.2984,-4.3726,-4.406,-4.4593,-4.489,-4.494,-4.5069,-4.515,-4.5203,-4.5344,-4.5397,-4.5397,-4.5397,-4.5371,-4.5379,-4.5593,-4.6151,-4.6942,-4.7726,-4.8477,-4.92,-4.9809,-5.0011,-5.0011,-5.0011,-5.0011,-5.0011,-5.0011,-5.0011,-5.0011,-5.0011,-5.0011,-5.0011,-5.0011,-5.0011,-5.0011,-5.0011,-5.0011,-5.0011,-5.0011,-5.0218,-5.0528,-5.1045,-5.1321,-5.1666,-5.2119,-5.2188,-5.2119,-5.1908,-5.1666,-5.136,-5.1059,-5.0695,-5.0373,-5.0195,-5.0515,-5.0697,-5.0473,-5.0947,-5.1185,-5.1185,-5.0473,-5.0101,-5.0101,-4.939,-4.9018,-4.9018,-4.9018,-4.9018,-4.9018,-4.9018,-4.9018,0.0,0.0,0.0,0.0,0.0,0.0,0.0,0.0,0.0,0.0,0.0,0.0,0.0,0.0,0.0,0.0,0.0,0.0,0.0,0.0,0.0,0.0,0.0,0.0,0.0,0.0,0.0,0.0,-4.0764,-4.0865,-4.0146,-4.0113,-4.0163,-4.0288,-4.0412,-4.0485,-4.051,-4.0607,-4.0984,-4.1569,-4.1852,-4.2652,-4.3868,-4.4026,-4.4331,-4.4803,-4.494,-4.5042,-4.5177,-4.5344,-4.5397,-4.5397,-4.5397,-4.5318,-4.528,-4.6008,-4.6679,-4.7284,-4.8277,-4.909,-4.9703,-4.9918,-5.0011,-5.0011,-5.0011,-5.0011,-5.0011,-5.0011,-5.0011,-5.0011,-5.0011,-5.0011,-5.0011,-5.0011,-5.0011,-5.0011,-5.0011,-5.0011,-5.0011,-5.0011,-5.0597,-5.108,-5.1149,-5.1735,-5.2222,-5.2257,-5.2257,-5.2528,-5.3287,-5.267,-5.2402,-5.3001,-5.242,-5.185,-5.1505,-5.1507,-5.1444,-5.1251,-5.1219,-5.1285,-5.1219,-5.0507,-5.0101,-5.0101,-4.939,-4.9018,-4.9018,-4.9018,-4.9018,-4.9018,-4.9018,-4.9018,-3.119,0.0,0.0,0.0,0.0,0.0,0.0,-3.4392,0.0,0.0,0.0,0.0,0.0,0.0,0.0,0.0,0.0,0.0,0.0,0.0,0.0,0.0,0.0,0.0,0.0,0.0,0.0,0.0,-4.0282,-4.0316,-4.0113,-4.0113,-4.0138,-4.0163,-4.0188,-4.0263,-4.0337,-4.0387,-4.0539,-4.0817,-4.1439,-4.2116,-4.2925,-4.3522,-4.4123,-4.4637,-4.4803,-4.4886,-4.494,-4.515,-4.5264,-4.5264,-4.5264,-4.523,-4.528,-4.5898,-4.6259,-4.6601,-4.7991,-4.866,-4.8987,-4.9595,-4.9889,-5.0011,-5.0011,-5.0011,-5.0011,-5.0011,-5.0011,-5.0011,-5.0011,-5.0011,-5.0011,-5.0011,-5.0011,-5.0011,-5.0011,-4.9889,-4.983,-4.9982,-5.0183,-5.0666,-5.1735,-5.205,-5.2567,-5.3701,-5.3425,-5.3118,-5.3166,-5.2516,-5.2042,-5.2093,-5.1831,-5.16,-5.1505,-5.1887,-5.2028,-5.1995,-5.2536,-5.2604,-5.2029,-5.1285,-5.0642,-5.0101,-4.939,-4.9018,-4.9018,-4.9018,-4.9018,-4.9018,-4.9018,-4.9018,0.0,0.0,0.0,0.0,0.0,0.0,-3.2611,-3.3207,-3.3795,0.0,0.0,0.0,0.0,0.0,0.0,0.0,0.0,0.0,0.0,0.0,0.0,0.0,0.0,0.0,0.0,0.0,0.0,-4.0113,-4.0113,-4.0113,-4.0113,-4.0113,-4.0113,-4.0113,-4.0113,-4.0138,-4.0213,-4.0263,-4.0313,-4.0337,-4.087,-4.163,-4.2532,-4.3008,-4.3736,-4.4665,-4.4726,-4.4692,-4.472,-4.4968,-4.5076,-4.5096,-4.5177,-4.5123,-4.5118,-4.5849,-4.6243,-4.6572,-4.7851,-4.8553,-4.8919,-4.9453,-4.9742,-4.986,-4.986,-4.986,-4.986,-4.986,-4.986,-4.9889,-4.9982,-5.0011,-5.0011,-5.0011,-4.9952,-4.986,-4.986,-4.9742,-4.9679,-4.9952,-5.0135,-5.0557,-5.1511,-5.2196,-5.2781,-5.3366,-5.3366,-5.3232,-5.3138,-5.2632,-5.2401,-5.2518,-5.2456,-5.2393,-5.2328,-5.2636,-5.2807,-5.2807,-5.3247,-5.3145,-5.2334,-5.1589,-5.0845,-5.0101,-4.939,-4.9018,-4.9018,-4.9018,-4.9018,-4.9018,-4.9018,-4.9018,0.0,0.0,0.0,0.0,0.0,0.0,-3.3051,-3.2814,-3.2598,0.0,0.0,0.0,0.0,0.0,0.0,0.0,0.0,0.0,0.0,0.0,0.0,0.0,0.0,0.0,0.0,-4.0045,-4.0113,-4.0113,-4.0113,-4.0113,-4.0113,-4.0113,-4.0113,-4.0113,-4.0113,-4.0113,-4.0113,-4.0213,-4.0213,-4.0113,-4.0337,-4.1103,-4.2362,-4.2438,-4.3287,-4.4612,-4.4603,-4.4615,-4.4615,-4.472,-4.4858,-4.4995,-4.5096,-4.5022,-4.4905,-4.5738,-4.634,-4.6815,-4.7674,-4.8384,-4.8991,-4.9172,-4.932,-4.9438,-4.9541,-4.9576,-4.9576,-4.9644,-4.9679,-4.9708,-4.9889,-4.9952,-4.9952,-4.9952,-4.9801,-4.9679,-4.9679,-4.956,-4.953,-4.986,-5.0227,-5.0556,-5.0875,-5.1974,-5.266,-5.218,-5.256,-5.3006,-5.3178,-5.2951,-5.303,-5.3582,-5.3684,-5.3617,-5.3484,-5.3518,-5.3518,-5.3518,-5.3518,-5.3145,-5.2334,-5.1589,-5.0845,-5.0101,-4.939,-4.9018,-4.9018,-4.9018,-4.9018,-4.9018,-4.9018,-4.9018,0.0,0.0,0.0,0.0,0.0,0.0,-3.2869,-3.2848,-3.3051,0.0,0.0,0.0,0.0,0.0,0.0,0.0,0.0,0.0,0.0,0.0,0.0,0.0,0.0,0.0,0.0,-3.9774,-4.0113,-4.0113,-4.0113,-4.0113,-4.0113,-4.0113,-4.0113,-4.0113,-4.0113,-4.0113,-4.0113,-4.0138,-4.0138,-4.0113,-4.0163,-4.0637,-4.1493,-4.2068,-4.2848,-4.3701,-4.4344,-4.4615,-4.4615,-4.4643,-4.472,-4.4831,-4.4886,-4.4858,-4.4878,-4.5546,-4.5862,-4.6007,-4.6781,-4.7208,-4.7427,-4.7457,-4.7636,-4.7883,-4.847,-4.8641,-4.8778,-4.9359,-4.953,-4.953,-4.9594,-4.9624,-4.9624,-4.9624,-4.956,-4.953,-4.953,-4.9381,-4.932,-4.9564,-4.9667,-4.9975,-5.0772,-5.099,-5.1446,-5.2575,-5.2269,-5.2375,-5.3442,-5.3034,-5.2869,-5.3483,-5.3517,-5.3517,-5.3518,-5.3518,-5.3518,-5.3518,-5.3518,-5.3145,-5.2334,-5.1589,-5.0845,-5.0101,-4.939,-4.9018,-4.9018,-4.9018,-4.9018,-4.9018,-4.9018,-4.9018,0.0,0.0,0.0,-3.4506,0.0,0.0,0.0,-3.2848,-3.2767,0.0,0.0,0.0,0.0,0.0,0.0,0.0,0.0,0.0,0.0,0.0,0.0,0.0,0.0,0.0,0.0,-3.9106,-3.9706,-4.0079,-3.9774,-3.9706,-4.0079,-3.9377,-3.9343,-4.0079,-3.974,-3.974,-4.0113,-4.0113,-4.0113,-4.0113,-4.0113,-4.0493,-4.1238,-4.1948,-4.2692,-4.3443,-4.4248,-4.4615,-4.4615,-4.4615,-4.4643,-4.4726,-4.4776,-4.4748,-4.476,-4.5106,-4.5422,-4.5771,-4.6109,-4.654,-4.6903,-4.6903,-4.702,-4.7232,-4.7578,-4.7953,-4.8396,-4.9146,-4.935,-4.9381,-4.9471,-4.95,-4.95,-4.95,-4.9411,-4.935,-4.935,-4.9199,-4.9138,-4.932,-4.9596,-4.9835,-5.0021,-5.0298,-5.0748,-5.1532,-5.1941,-5.242,-5.3071,-5.2735,-5.2737,-5.3416,-5.3145,-5.3078,-5.3484,-5.3518,-5.3518,-5.3518,-5.3518,-5.3145,-5.2334,-5.1589,-5.0676,-4.956,-4.9187,-4.9018,-4.9018,-4.9018,-4.9018,-4.9018,-4.9018,-4.9018,0.0,0.0,0.0,0.0,0.0,-3.4336,0.0,0.0,0.0,0.0,0.0,0.0,0.0,0.0,0.0,0.0,0.0,0.0,0.0,0.0,0.0,0.0,0.0,0.0,0.0,-3.8227,-3.887,-3.9639,-3.9106,-3.9039,-3.9639,-3.8531,-3.8497,-3.9842,-3.9309,-3.9368,-4.0079,-4.0113,-4.0113,-4.0113,-4.0113,-4.0417,-4.1035,-4.188,-4.2625,-4.3267,-4.4181,-4.4615,-4.4615,-4.4615,-4.4615,-4.4615,-4.472,-4.4726,-4.4615,-4.472,-4.5072,-4.55,-4.55,-4.5872,-4.638,-4.638,-4.6535,-4.6758,-4.6893,-4.7471,-4.8218,-4.8965,-4.9168,-4.9199,-4.935,-4.9381,-4.9381,-4.9381,-4.926,-4.9168,-4.9168,-4.9077,-4.9015,-4.9138,-4.9551,-4.9791,-4.9505,-4.9946,-5.0456,-5.0728,-5.1647,-5.2428,-5.2734,-5.25,-5.2604,-5.3416,-5.2773,-5.2638,-5.345,-5.3518,-5.345,-5.3281,-5.3416,-5.3145,-5.2334,-5.1725,-5.0777,-4.9458,-4.9424,-4.9424,-4.9424,-4.9424,-4.9289,-4.9018,-4.9018,-4.9018,0.0,0.0,0.0,0.0,-3.7516,0.0,0.0,0.0,0.0,0.0,0.0,0.0,0.0,0.0,0.0,0.0,0.0,0.0,0.0,0.0,0.0,0.0,0.0,0.0,0.0,0.0,-3.7371,-3.8091,-3.8058,-3.8058,-3.8159,-3.799,-3.8294,-3.9073,-3.9039,-3.9368,-4.0079,-4.0113,-4.0113,-4.0113,-4.0113,-4.0146,-4.0282,-4.1644,-4.2354,-4.2489,-4.3972,-4.4615,-4.4615,-4.4615,-4.4615,-4.4615,-4.4615,-4.4615,-4.4615,-4.4615,-4.4649,-4.4716,-4.4716,-4.4784,-4.4852,-4.4852,-4.5326,-4.5969,-4.6612,-4.7357,-4.8071,-4.8846,-4.9015,-4.9049,-4.908,-4.908,-4.908,-4.908,-4.9049,-4.9015,-4.9015,-4.9018,-4.8984,-4.9049,-4.9086,-4.9385,-5.0116,-5.0193,-5.0572,-5.1893,-5.1689,-5.1826,-5.3247,-5.2739,-5.2604,-5.3416,-5.2773,-5.2638,-5.345,-5.3518,-5.3213,-5.2469,-5.3112,-5.3145,-5.2334,-5.2232,-5.1792,-5.098,-5.098,-5.098,-5.098,-5.098,-5.0304,-4.9018,-4.9018,-4.9018,0.0,0.0,0.0,0.0,0.0,0.0,-3.6118,0.0,-3.4709,0.0,0.0,0.0,0.0,0.0,0.0,0.0,0.0,0.0,0.0,0.0,0.0,0.0,0.0,0.0,0.0,0.0,0.0,0.0,-3.6546,-3.6772,-3.7246,-3.684,-3.7313,-3.8937,-3.8565,-3.8903,-4.0079,-4.0113,-4.0113,-4.0113,-4.0113,-4.0316,-4.0764,-4.1813,-4.2523,-4.2997,-4.4141,-4.4615,-4.4615,-4.4615,-4.4615,-4.4615,-4.4615,-4.4615,-4.4615,-4.4615,-4.4615,-4.4615,-4.4615,-4.4615,-4.4615,-4.4615,-4.4818,-4.5263,-4.6447,-4.7022,-4.7496,-4.868,-4.9018,-4.9018,-4.9018,-4.9018,-4.9018,-4.9018,-4.9018,-4.9018,-4.9018,-4.9018,-4.9018,-4.9018,-4.9357,-4.976,-5.0161,-4.9825,-4.983,-5.0879,-5.1116,-5.1589,-5.2672,-5.2131,-5.1961,-5.2739,-5.1725,-5.1319,-5.2097,-5.2198,-5.2029,-5.1691,-5.1995,-5.2029,-5.1691,-5.1657,-5.1522,-5.1217,-5.1185,-5.1185,-5.1185,-5.1185,-5.0879,-5.027,-4.983,-4.939,-3.93,0.0,0.0,0.0,0.0,0.0,0.0,0.0,0.0,0.0,0.0,0.0,0.0,0.0,0.0,0.0,0.0,0.0,0.0,0.0,0.0,0.0,0.0,0.0,0.0,0.0,0.0,-3.525,-3.5092,-3.5351,-3.6152,-3.5622,-3.6265,-3.8328,-3.8058,-3.8497,-3.9808,-4.0011,-4.0113,-4.0113,-4.0113,-4.0493,-4.1238,-4.1948,-4.2692,-4.3443,-4.4248,-4.4615,-4.4615,-4.4615,-4.4615,-4.4615,-4.4615,-4.4615,-4.4615,-4.4615,-4.4615,-4.4615,-4.4615,-4.4615,-4.4615,-4.4615,-4.4615,-4.4886,-4.6346,-4.6786,-4.709,-4.8578,-4.9018,-4.9018,-4.9018,-4.9018,-4.9018,-4.9018,-4.9018,-4.9018,-4.9018,-4.9018,-4.9018,-4.9018,-4.9593,-5.0101,-5.0101,-4.983,-4.9864,-5.0574,-5.115,-5.1792,-5.2536,-5.1961,-5.1792,-5.257,-5.1285,-5.071,-5.1454,-5.1319,-5.1286,-5.1488,-5.1319,-5.1388,-5.1826,-5.186,-5.186,-5.186,-5.186,-5.186,-5.186,-5.186,-5.1725,-5.1488,-5.0744,-5.0101,0.0,0.0,0.0,-3.9174,0.0,0.0,0.0,0.0,-3.843,0.0,0.0,0.0,0.0,0.0,0.0,0.0,0.0,0.0,0.0,0.0,0.0,0.0,0.0,0.0,0.0,0.0,0.0,-3.4472,-3.3863,-3.3795,-3.4539,-3.4539,-3.525,-3.6829,-3.755,-3.8261,-3.9039,-3.974,-4.0113,-4.0113,-4.0113,-4.0493,-4.1238,-4.1948,-4.2692,-4.3443,-4.4248,-4.4615,-4.4615,-4.4615,-4.4615,-4.4615,-4.4615,-4.4615,-4.4615,-4.4615,-4.4615,-4.4615,-4.4615,-4.4615,-4.4615,-4.4615,-4.4615,-4.4886,-4.6346,-4.6786,-4.709,-4.8578,-4.9018,-4.9018,-4.9018,-4.9018,-4.9018,-4.9018,-4.9018,-4.9018,-4.9018,-4.9018,-4.9018,-4.9018,-4.9593,-5.0101,-5.0101,-5.0676,-5.1386,-5.2131,-5.2266,-5.257,-5.3382,-5.2773,-5.257,-5.3382,-5.2097,-5.1488,-5.2198,-5.1623,-5.1522,-5.2232,-5.1589,-5.1894,-5.3382,-5.345,-5.345,-5.345,-5.345,-5.345,-5.345,-5.345,-5.3044,-5.2266,-5.1522,-5.1151,0.0,0.0,-4.1399,-4.0629,0.0,0.0,0.0,0.0,0.0,0.0,0.0,0.0,0.0,0.0,0.0,0.0,0.0,0.0,0.0,0.0,0.0,0.0,0.0,0.0,0.0,0.0,0.0,-3.2307,-3.2564,-3.2983,-3.3728,-3.4235,-3.5204,-3.6761,-3.7032,-3.7753,-3.8971,-3.9266,-3.9639,-4.0113,-4.0113,-4.0756,-4.1948,-4.2185,-4.2997,-4.4215,-4.4479,-4.4615,-4.4615,-4.4615,-4.4615,-4.4615,-4.4615,-4.4615,-4.4615,-4.4615,-4.4615,-4.4615,-4.4615,-4.4615,-4.4615,-4.4615,-4.4615,-4.4886,-4.6346,-4.6786,-4.709,-4.8578,-4.9018,-4.9018,-4.9018,-4.9018,-4.9018,-4.9018,-4.9018,-4.9018,-4.9018,-4.9018,-4.9018,-4.9018,-4.9593,-5.0101,-5.0101,-5.1116,-5.2029,-5.2266,-5.23,-5.2604,-5.3416,-5.2807,-5.2232,-5.1995,-5.1082,-5.0371,-5.0135,-4.9898,-5.0067,-5.0777,-5.1082,-5.1657,-5.2672,-5.3213,-5.3518,-5.3518,-5.3518,-5.3518,-5.3518,-5.3518,-5.3382,-5.3078,-5.2841,-5.2198,-4.2286,-4.2286,0.0,-4.1711,-4.1238,0.0,-3.9952,0.0,0.0,0.0,0.0,0.0,0.0,0.0,0.0,0.0,0.0,0.0,0.0,-3.1515,0.0,0.0,0.0,0.0,0.0,0.0,-3.209,-3.165,-3.1785,-3.2361,0.0,0.0,-3.481,-3.6332,-3.6907,-3.7652,-3.8599,-3.9106,-3.9639,-4.0113,-4.0113,-4.0756,-4.1914,-4.2185,-4.2997,-4.4181,-4.4479,-4.4615,-4.4615,-4.4615,-4.4615,-4.4615,-4.4615,-4.4615,-4.4615,-4.4615,-4.4615,-4.4615,-4.4615,-4.4615,-4.4615,-4.4615,-4.4615,-4.4852,-4.6041,-4.6583,-4.6989,-4.7936,-4.8612,-4.8951,-4.868,-4.8815,-4.9018,-4.9018,-4.9018,-4.9018,-4.9018,-4.9018,-4.9086,-4.9357,-4.9999,-5.0574,-5.0845,-5.1894,-5.2638,-5.2334,-5.2536,-5.2909,-5.345,-5.3044,-5.2536,-5.2097,-5.1352,-5.0473,-4.9492,-4.9627,-4.9999,-5.0473,-5.1183,-5.1928,-5.2706,-5.3213,-5.3619,-5.389,-5.3619,-5.3619,-5.389,-5.3619,-5.3518,-5.3518,-5.3518,-5.2674]},{"header":{"parameterUnit":"m.s-1","parameterCategory":1,"la1":30.6,"la2":29.2853,"lo1":-89.7004,"lo2":-87.6739,"dy":0.0162,"dx":0.0183,"nx":112,"ny":82,"refTime":"2024-04-05T12:00:00:Z","depth":0,"parameterNumber":3,"parameterNumberName":"V-component_of_WINDS"},"data":[0.0,0.0,0.0,0.0,0.0,0.0,0.0,0.0,0.0,0.0,0.0,0.0,0.0,0.0,0.0,0.0,0.0,0.0,0.0,0.0,0.0,0.0,0.0,0.0,0.0,0.0,0.0,0.0,0.0,0.0,0.0,0.0,0.0,0.0,0.0,0.0,0.0,0.0,0.0,0.0,0.0,0.0,0.0,0.0,0.0,0.0,0.0,0.0,0.0,0.0,0.0,0.0,0.0,0.0,0.0,0.0,0.0,0.0,0.0,0.0,0.0,0.0,0.0,0.0,0.0,0.0,0.0,0.0,0.0,0.0,0.0,0.0,0.0,0.0,0.0,0.0,0.0,0.0,0.0,0.0,0.0,0.0,0.0,0.0,0.0,0.0,0.0,0.0,0.0,0.0,0.0,1.9199,2.2832,2.4507,2.3005,2.3281,2.1031,1.5226,0.0,0.0,0.0,0.0,0.0,0.0,0.0,0.0,0.0,0.0,0.0,0.0,0.0,0.0,0.0,0.0,0.0,0.0,0.0,0.0,0.0,0.0,0.0,0.0,0.0,0.0,0.0,0.0,0.0,0.0,0.0,0.0,0.0,0.0,0.0,0.0,0.0,0.0,0.0,0.0,0.0,0.0,0.0,0.0,0.0,0.0,0.0,0.0,0.0,0.0,0.0,0.0,0.0,0.0,0.0,0.0,0.0,0.0,0.0,0.0,0.0,0.0,0.0,0.0,0.0,0.0,0.0,0.0,0.0,0.0,0.0,0.0,0.0,0.0,0.0,0.0,0.0,0.0,0.0,0.0,0.0,0.0,0.0,0.0,0.0,0.0,0.0,0.0,0.0,0.0,0.0,0.0,0.0,0.0,0.0,0.0,0.0,0.0,0.0,0.0,0.0,0.0,0.0,0.0,1.7114,2.143,2.3808,2.4882,2.4354,2.3028,2.0903,1.7666,0.0,0.0,0.0,0.0,0.0,0.0,0.0,0.0,0.0,0.0,0.0,0.0,0.0,0.0,0.0,0.0,0.0,0.0,0.0,0.0,0.0,0.0,0.0,0.0,0.0,0.0,0.0,0.0,0.0,0.0,0.0,0.0,0.0,0.0,0.0,0.0,0.0,0.0,0.0,0.0,0.0,0.0,0.0,0.0,0.0,0.0,0.0,0.0,0.0,0.0,0.0,0.0,0.0,0.0,0.0,0.0,0.0,0.0,0.0,0.0,0.0,0.0,0.0,0.0,0.0,0.0,0.0,0.0,0.0,0.0,0.0,0.0,0.0,0.0,0.0,0.0,0.0,0.0,0.0,0.0,0.0,0.0,0.0,0.0,0.0,0.0,0.0,0.0,0.0,0.0,0.0,0.0,0.0,0.0,0.0,0.0,0.0,0.0,0.0,0.0,0.0,0.0,0.0,1.67,1.8811,2.2739,2.4022,2.4556,2.4409,2.2619,2.0454,1.7956,1.5402,0.0,0.0,0.0,0.0,0.0,0.0,0.0,0.0,0.0,0.0,0.0,0.0,0.0,0.0,0.0,0.0,0.0,0.0,0.0,0.0,0.0,0.0,0.0,0.0,0.0,0.0,0.0,0.0,0.0,0.0,0.0,0.0,0.0,0.0,0.0,0.0,0.0,0.0,0.0,0.0,0.0,0.0,0.0,0.0,0.0,0.0,0.0,0.0,0.0,0.0,0.0,0.0,0.0,0.0,0.0,0.0,0.0,0.0,0.0,0.0,0.0,0.0,0.0,0.0,0.0,0.0,0.0,0.0,0.0,0.0,0.0,0.0,0.0,0.0,0.0,0.0,0.0,0.0,0.0,0.0,0.0,0.0,0.0,0.0,0.0,0.0,0.0,0.0,0.0,0.0,0.0,0.0,0.0,0.0,0.0,0.0,0.0,0.0,0.0,0.0,0.0,0.0,1.8851,2.0428,2.326,2.3821,2.3941,2.3794,2.1764,1.9599,1.7515,1.4696,0.0,0.0,0.0,0.0,0.0,0.0,0.0,0.0,0.0,0.0,0.0,0.0,0.0,0.0,0.0,0.0,0.0,0.0,0.0,0.0,0.0,0.0,0.0,0.0,0.0,0.0,0.0,0.0,0.0,0.0,0.0,0.0,0.0,0.0,0.0,0.0,0.0,0.0,0.0,0.0,0.0,0.0,0.0,0.0,0.0,0.0,0.0,0.0,0.0,0.0,0.0,0.0,0.0,0.0,0.0,0.0,0.0,0.0,0.0,0.0,0.0,0.0,0.0,0.0,0.0,0.0,0.0,0.0,0.0,0.0,0.0,0.0,0.0,0.0,0.0,0.0,0.0,0.0,0.0,0.0,0.0,0.0,0.0,0.0,0.0,0.0,0.0,0.0,0.0,0.0,0.0,0.0,0.0,0.0,0.0,0.0,0.0,0.0,0.0,0.0,0.0,0.0,1.9185,2.1162,2.2752,2.3207,2.3166,2.2592,2.016,1.813,1.6847,1.3507,0.0,0.0,0.0,0.0,0.0,0.0,0.0,0.0,0.0,0.0,0.0,0.0,0.0,0.0,0.0,0.0,0.0,0.0,0.0,0.0,0.0,0.0,0.0,0.0,0.0,0.0,0.0,0.0,0.0,0.0,0.0,0.0,0.0,0.0,0.0,0.0,0.0,0.0,0.0,0.0,0.0,0.0,0.0,0.0,0.0,0.0,0.0,0.0,0.0,0.0,0.0,0.0,0.0,0.0,0.0,0.0,0.0,0.0,0.0,0.0,0.0,0.0,0.0,0.0,0.0,0.0,0.0,0.0,0.0,0.0,0.0,0.0,0.0,0.0,0.0,0.0,0.0,0.0,0.0,0.0,0.0,0.0,0.0,0.0,0.0,0.0,0.0,0.0,0.0,0.0,0.0,0.0,0.0,0.0,0.0,0.0,0.0,0.0,0.0,0.0,0.0,0.0,1.8571,2.0347,0.0,2.2686,2.2445,2.167,2.0027,1.8063,1.5765,0.0,0.0,0.0,0.0,0.0,0.0,0.0,0.0,0.0,0.0,0.0,0.0,0.0,0.0,0.0,0.0,0.0,0.0,0.0,0.0,0.0,0.0,0.0,0.0,0.0,0.0,0.0,0.0,0.0,0.0,0.0,0.0,0.0,0.0,0.0,0.0,0.0,0.0,0.0,0.0,0.0,0.0,0.0,0.0,0.0,0.0,0.0,0.0,0.0,0.0,0.0,0.0,0.0,0.0,0.0,0.0,0.0,0.0,0.0,0.0,0.0,0.0,0.0,0.0,0.0,0.0,0.0,0.0,0.0,0.0,0.0,0.0,0.0,0.0,0.0,0.0,0.0,0.0,0.0,0.0,0.0,0.0,0.0,0.0,0.0,0.0,0.0,0.0,0.0,0.0,0.0,0.0,0.0,0.0,0.0,0.0,0.0,0.0,0.0,0.0,0.0,0.0,1.6804,1.8277,1.9893,0.0,2.2111,2.1683,2.0895,1.9239,1.7261,1.4963,0.0,0.0,0.0,0.0,0.0,0.0,0.0,0.0,0.0,0.0,0.0,0.0,0.0,0.0,0.0,0.0,0.0,0.0,0.0,0.0,0.0,0.0,0.0,0.0,0.0,0.0,0.0,0.0,0.0,0.0,0.0,0.0,0.0,0.0,0.0,0.0,0.0,0.0,0.0,0.0,0.0,0.0,0.0,0.0,0.0,0.0,0.0,0.0,0.0,0.0,0.0,0.0,0.0,0.0,0.0,0.0,0.0,0.0,0.0,0.0,0.0,0.0,0.0,0.0,0.0,0.0,0.0,0.0,0.0,0.0,0.0,0.0,0.0,0.0,0.0,0.0,0.0,0.0,0.0,0.0,0.0,0.0,0.0,0.0,0.0,0.0,0.0,0.0,0.0,0.0,0.0,0.0,0.0,0.0,0.0,0.0,0.0,0.0,0.0,0.0,0.0,0.0,1.6844,1.8492,2.0087,2.1777,2.1443,2.0855,2.0267,1.7528,1.5411,0.0,0.0,0.0,0.0,0.0,0.0,0.0,0.0,0.0,0.0,0.0,0.0,0.0,0.0,0.0,0.0,0.0,0.0,0.0,0.0,0.0,0.0,0.0,0.0,0.0,0.0,0.0,0.0,0.0,0.0,0.0,0.0,0.0,0.0,0.0,0.0,0.0,0.0,0.0,0.0,0.0,0.0,0.0,0.0,0.0,0.0,0.0,0.0,0.0,0.0,0.0,0.0,0.0,0.0,0.0,0.0,0.0,0.0,0.0,0.0,0.0,0.0,0.0,0.0,0.0,0.0,0.0,0.0,0.0,0.0,0.0,0.0,0.0,0.0,0.0,0.0,0.0,0.0,0.0,0.0,0.0,0.0,0.0,0.0,0.0,0.0,0.0,0.0,0.0,0.0,0.0,0.0,0.0,0.0,0.0,0.0,0.0,0.0,0.0,0.0,0.0,0.0,0.0,1.6321,1.7836,1.9265,2.0601,2.0414,1.9947,1.9301,1.7555,1.5712,1.3959,0.0,0.0,0.0,0.0,0.0,0.0,0.0,0.0,0.0,0.0,0.0,0.0,0.0,0.0,0.0,0.0,0.0,0.0,0.0,0.0,0.0,0.0,0.0,0.0,0.0,0.0,0.0,0.0,0.0,0.0,0.0,0.0,0.0,0.0,0.0,0.0,0.0,0.0,0.0,0.0,0.0,0.0,0.0,0.0,0.0,0.0,0.0,0.0,0.0,0.0,0.0,0.0,0.0,0.0,0.0,0.0,0.0,0.0,0.0,0.0,0.0,0.0,0.0,0.0,0.0,0.0,0.0,0.0,0.0,0.0,0.0,0.0,0.0,0.0,0.0,0.0,0.0,0.0,0.0,0.0,0.0,0.0,0.0,0.0,0.0,0.0,0.0,0.0,0.0,0.0,0.0,0.0,0.0,0.0,0.0,0.0,0.0,0.0,0.0,0.0,0.0,0.0,1.5872,1.7288,1.8624,1.992,1.9693,1.9265,1.8784,1.7382,1.5658,1.356,0.0,0.0,0.0,0.0,0.0,0.0,0.0,0.0,0.0,0.0,0.0,0.0,0.0,0.0,0.0,0.0,0.0,0.0,0.0,0.0,0.0,0.0,0.0,0.0,0.0,0.0,0.0,0.0,0.0,0.0,0.0,0.0,0.0,0.0,0.0,0.0,0.0,0.0,0.0,0.0,0.0,0.0,0.0,0.0,0.0,0.0,0.0,0.0,0.0,0.0,0.0,0.0,0.0,0.0,0.0,0.0,0.0,0.0,0.0,0.0,0.0,0.0,0.0,0.0,0.0,0.0,0.0,0.0,0.0,0.0,0.0,0.0,0.0,0.0,0.0,0.0,0.0,0.0,0.0,0.0,0.0,0.0,0.0,0.0,0.0,0.0,0.0,0.0,0.0,0.0,0.0,0.0,0.0,0.0,0.0,0.0,0.0,0.0,0.0,0.0,0.0,0.0,1.5438,1.6754,1.805,1.9479,1.9132,1.8691,1.8424,1.7048,1.541,1.3494,0.0,0.0,0.0,0.0,0.0,0.0,0.0,0.0,0.0,0.0,0.0,0.0,0.0,0.0,0.0,0.0,0.0,0.0,0.0,0.0,0.0,0.0,0.0,0.0,0.0,0.0,0.0,0.0,0.0,0.0,0.0,0.0,0.0,0.0,0.0,0.0,0.0,0.0,0.0,0.0,0.0,0.0,0.0,0.0,0.0,0.0,0.0,0.0,0.0,0.0,0.0,0.0,0.0,0.0,0.0,0.0,0.0,0.0,0.0,0.0,1.8662,0.0,0.0,0.0,0.0,0.0,0.0,0.0,0.0,0.0,0.0,0.0,0.0,0.0,0.0,0.0,0.0,0.0,0.0,0.0,0.0,0.0,0.0,0.0,0.0,0.0,0.0,0.0,0.0,0.0,0.0,0.0,0.0,0.0,0.0,0.0,0.0,0.0,0.0,0.0,0.0,0.0,1.4629,1.6019,1.7288,1.8262,1.809,1.7849,1.7782,1.6433,1.5368,1.4822,1.2897,0.0,0.0,0.0,0.0,0.0,0.0,0.0,0.0,0.0,0.0,0.0,0.0,0.0,0.0,0.0,0.0,0.0,0.0,0.0,0.0,0.0,0.0,0.0,0.0,0.0,0.0,0.0,0.0,0.0,0.0,0.0,0.0,0.0,0.0,0.0,0.0,0.0,0.0,0.0,0.0,0.0,0.0,0.0,0.0,0.0,0.0,0.0,0.0,0.0,0.0,0.0,0.0,0.0,0.0,0.0,0.0,0.0,0.0,0.0,0.0,1.9834,0.0,0.0,0.0,0.0,0.0,0.0,0.0,0.0,0.0,0.0,0.0,0.0,0.0,0.0,0.0,0.0,0.0,0.0,0.0,0.0,0.0,0.0,0.0,0.0,0.0,0.0,0.0,0.0,0.0,0.0,0.0,0.0,0.0,0.0,0.0,0.0,0.0,0.0,0.0,0.0,1.4362,1.5671,1.678,1.7542,1.7475,1.7522,1.7835,1.6918,1.6235,1.6035,1.4306,0.0,0.0,0.0,0.0,0.0,0.0,0.0,0.0,0.0,0.0,0.0,0.0,0.0,0.0,0.0,0.0,0.0,0.0,0.0,0.0,0.0,0.0,0.0,0.0,0.0,0.0,0.0,0.0,0.0,0.0,0.0,0.0,0.0,0.0,0.0,0.0,0.0,0.0,0.0,0.0,0.0,0.0,0.0,0.0,0.0,0.0,0.0,0.0,0.0,0.0,0.0,0.0,0.0,2.8503,2.8799,2.7689,2.8199,2.843,2.8237,2.5065,2.3516,2.3066,2.0766,0.0,0.0,0.0,0.0,0.0,0.0,0.0,0.0,0.0,0.0,0.0,0.0,0.0,0.0,0.0,0.0,0.0,0.0,0.0,0.0,0.0,0.0,0.0,0.0,1.7348,1.6899,0.0,0.0,0.0,0.0,0.0,0.0,0.0,0.0,0.0,0.0,0.0,0.0,1.4229,1.5431,1.6455,1.6991,1.7045,1.7342,1.8085,1.7614,1.7281,1.7203,1.5853,1.4787,0.0,0.0,0.0,0.0,0.0,0.0,0.0,0.0,0.0,0.0,0.0,0.0,0.0,0.0,0.0,0.0,0.0,0.0,0.0,0.0,0.0,0.0,0.0,0.0,0.0,0.0,0.0,0.0,0.0,0.0,0.0,0.0,2.4335,2.4073,0.0,0.0,0.0,0.0,0.0,0.0,0.0,0.0,0.0,0.0,0.0,0.0,0.0,2.961,3.0239,3.1465,3.1756,3.1154,3.2801,3.2965,3.1806,3.2247,3.226,3.1895,3.1382,0.0,2.5141,2.3441,0.0,0.0,0.0,0.0,0.0,0.0,0.0,0.0,0.0,0.0,0.0,0.0,0.0,0.0,0.0,0.0,0.0,0.0,0.0,0.0,0.0,0.0,1.7876,1.7798,1.7849,1.7596,0.0,1.5877,1.4953,1.3397,1.2971,0.0,0.0,0.0,0.0,0.0,0.0,0.0,1.3666,1.4958,1.6019,1.6402,1.6442,1.6807,1.7785,1.7498,1.7568,1.8229,1.6894,1.594,1.5634,1.3606,0.0,0.0,0.0,0.0,0.0,0.0,0.0,0.0,0.0,0.0,0.0,0.0,0.0,0.0,0.0,0.0,0.0,0.0,0.0,0.0,0.0,0.0,0.0,0.0,0.0,0.0,0.0,0.0,0.0,2.4812,2.5729,2.4679,2.5271,2.5197,0.0,0.0,0.0,0.0,0.0,0.0,0.0,0.0,0.0,3.0699,3.1506,3.2294,3.3083,3.3853,3.4403,3.4715,3.5192,3.5504,3.5632,3.5375,3.5284,3.5265,3.4348,3.2648,3.0309,2.7018,2.4525,2.2651,0.0,0.0,0.0,0.0,2.0246,2.02,2.1197,2.1461,0.0,2.1088,0.0,0.0,0.0,0.0,0.0,0.0,0.0,0.0,0.0,0.0,1.9787,2.0167,2.049,2.0539,1.9667,1.9076,1.7866,0.0,1.4526,1.4029,1.2631,0.0,0.0,0.0,0.0,1.4254,1.4866,1.6446,1.7542,1.769,1.782,1.8293,1.9127,1.8838,1.8935,1.9572,1.8189,1.7153,1.6813,1.4689,1.3545,0.0,0.0,0.0,0.0,0.0,0.0,0.0,0.0,0.0,0.0,0.0,0.0,0.0,0.0,0.0,0.0,0.0,0.0,0.0,0.0,0.0,0.0,0.0,0.0,0.0,0.0,0.0,0.0,2.6059,2.7123,2.5307,2.6793,2.705,0.0,0.0,0.0,0.0,0.0,0.0,3.0406,3.1194,3.2331,3.3927,3.4495,3.5155,3.5944,3.6054,3.6549,3.7448,3.7026,3.7301,3.8163,3.7558,3.7338,3.7356,3.6164,3.5174,3.4058,2.9923,2.7158,2.5316,2.3574,2.2448,2.1895,2.2378,2.2346,2.2147,2.3531,2.3895,2.37,2.2839,2.2201,2.1363,1.9339,0.0,0.0,0.0,0.0,1.9605,2.0265,2.0785,2.1309,2.2025,2.2535,2.2604,2.1659,2.126,2.0154,0.0,1.6015,1.5385,1.3956,0.0,0.0,0.0,0.0,1.561,1.6227,1.7772,1.8796,1.8796,1.8892,1.9263,2.0093,1.9778,1.9713,2.0163,1.896,1.8045,1.7513,1.5566,1.453,1.453,0.0,0.0,0.0,0.0,0.0,0.0,0.0,0.0,0.0,0.0,0.0,0.0,0.0,0.0,0.0,0.0,0.0,0.0,0.0,0.0,0.0,0.0,0.0,0.0,0.0,0.0,0.0,0.0,0.0,2.6241,2.936,0.0,0.0,0.0,0.0,2.9929,3.0681,3.1689,3.2973,3.4513,3.6091,3.7686,3.8511,3.9336,4.0162,3.941,3.9043,3.9098,3.8713,3.8469,3.8524,3.8487,3.8144,3.7429,3.7338,3.6201,3.4183,3.1258,2.9337,2.8056,2.6409,2.5532,2.5167,2.5222,2.5441,2.5624,2.4999,2.4981,2.5274,2.5219,2.3842,2.2025,2.1117,1.9633,0.0,0.0,2.0268,2.1078,2.2391,2.2307,2.1957,2.2365,2.2485,2.2297,2.1511,2.1418,2.0721,0.0,1.6802,1.6022,1.6198,0.0,1.5014,1.5535,1.6516,1.7185,1.7233,1.8128,1.8796,1.8796,1.8464,1.8633,1.9638,1.9358,1.9207,1.9323,1.8944,1.832,1.7532,1.627,1.5629,1.5629,1.4818,0.0,0.0,0.0,0.0,0.0,0.0,0.0,0.0,0.0,0.0,0.0,0.0,0.0,0.0,0.0,0.0,0.0,0.0,0.0,0.0,0.0,0.0,0.0,0.0,0.0,0.0,0.0,0.0,3.0296,3.2881,0.0,3.1653,3.1488,3.1909,3.2826,3.3651,3.488,3.6547,3.7741,3.8841,3.9942,4.0253,4.0418,4.0473,3.9905,3.9483,3.9226,3.8743,3.856,3.856,3.8365,3.8089,3.7759,3.6971,3.6091,3.5027,3.2991,3.1121,2.9452,2.8333,2.7343,2.6573,2.6866,2.6903,2.6756,2.6426,2.6408,2.6371,2.5326,2.4136,2.2937,2.2369,2.176,2.1415,2.2035,2.2351,2.2667,2.3147,2.3329,2.3354,2.318,2.3162,2.297,2.2435,2.216,2.1685,2.0553,1.9293,1.8099,1.7119,1.7017,1.6837,1.6204,1.7096,1.7944,1.8113,1.9187,1.9887,1.9887,1.9765,1.9719,1.9829,1.9204,1.8773,1.8539,1.7642,1.7037,1.6743,1.5826,1.5313,1.5313,1.4781,1.4506,0.0,0.0,0.0,0.0,0.0,0.0,0.0,0.0,0.0,0.0,0.0,0.0,0.0,0.0,0.0,0.0,0.0,0.0,0.0,0.0,0.0,0.0,0.0,0.0,0.0,0.0,3.3211,3.3211,3.5834,3.6897,3.5027,3.4825,3.5229,3.6164,3.6989,3.8163,3.9777,4.0492,4.1255,4.1867,4.161,4.128,4.0877,4.0281,3.963,3.9226,3.8743,3.8487,3.842,3.8144,3.7796,3.7356,3.6549,3.576,3.4917,3.3725,3.2111,3.0332,2.9654,2.881,2.8003,2.8189,2.793,2.7545,2.727,2.6903,2.6443,2.5326,2.4335,2.3444,2.3187,2.3023,2.2986,2.3389,2.3389,2.3334,2.3462,2.3639,2.3675,2.337,2.3297,2.3187,2.2785,2.2474,2.2163,2.176,2.074,1.9648,1.8743,1.865,1.8484,1.7823,1.8441,1.9053,1.9193,1.9979,2.0521,2.0521,2.0351,2.0113,1.971,1.9091,1.843,1.7752,1.6928,1.6395,1.612,1.546,1.5093,1.5093,1.4708,1.4506,1.4506,0.0,0.0,0.0,0.0,0.0,0.0,0.0,0.0,0.0,0.0,0.0,0.0,0.0,0.0,0.0,0.0,0.0,0.0,0.0,0.0,0.0,0.0,0.0,2.8462,3.2661,3.5412,3.4697,3.8126,3.9648,3.7283,3.8456,3.9538,4.0005,4.0777,4.1482,4.2271,4.2674,4.3041,4.3444,4.2656,4.2051,4.1666,4.052,3.963,3.9226,3.8823,3.8401,3.8016,3.7979,3.7319,3.6201,3.6164,3.5247,3.378,3.334,3.2239,3.0772,3.0369,2.9929,2.9507,2.9122,2.8718,2.826,2.7453,2.6443,2.5433,2.5381,2.4556,2.3535,2.3517,2.3242,2.3023,2.3389,2.3224,2.3004,2.337,2.3187,2.2895,2.2895,2.2895,2.2767,2.2364,2.2272,2.219,2.176,2.0997,2.0497,2.1007,2.0368,1.9922,2.0407,2.0521,0.0,2.0461,2.0461,2.0461,2.0461,2.0113,1.971,1.9329,1.8926,1.8174,1.6963,1.6872,1.6505,1.5698,1.5313,1.5093,1.5074,1.4726,1.4524,1.4524,0.0,0.0,0.0,0.0,0.0,0.0,0.0,0.0,0.0,0.0,0.0,0.0,0.0,0.0,0.0,0.0,0.0,0.0,0.0,0.0,0.0,0.0,3.1653,3.1469,3.4605,3.7503,3.9043,4.1262,4.2509,4.2124,4.2234,4.2362,4.2491,4.2692,4.2931,4.3151,4.2968,4.2784,4.2619,4.1831,4.1207,4.0804,3.9868,3.9336,3.9226,3.853,3.8126,3.7979,3.7099,3.6512,3.6146,3.4972,3.422,3.3707,3.2441,3.1634,3.1157,3.0461,2.9764,2.914,2.9012,2.8535,2.7856,2.7361,2.6627,2.58,2.5506,2.4941,2.439,2.4079,2.3914,2.3785,2.3553,2.3407,2.3224,2.273,2.2748,2.2821,2.2529,2.2455,2.2419,2.2309,2.2053,2.1815,2.1705,2.1508,2.1274,2.1138,2.0891,2.0678,2.0534,2.0521,0.0,2.0095,2.0058,2.0058,2.0058,1.9948,1.96,1.8944,1.8522,1.7734,1.6526,1.6193,1.579,1.5276,1.5166,1.4964,1.4671,1.4854,1.4946,0.0,0.0,0.0,0.0,0.0,0.0,0.0,0.0,0.0,0.0,0.0,0.0,0.0,0.0,0.0,0.0,0.0,0.0,0.0,0.0,0.0,0.0,3.1524,3.4183,3.4788,3.7081,3.941,4.1335,4.2858,4.3903,4.4288,4.3976,4.3738,4.3738,4.3591,4.3426,4.3243,4.2839,4.2436,4.2051,4.1244,4.062,4.0217,3.9557,3.9153,3.897,3.8328,3.7924,3.7723,3.6677,3.6036,3.565,3.4367,3.3615,3.3211,3.1946,3.1212,0.0,0.0,0.0,0.0,0.0,2.8058,2.7509,2.7068,2.6389,2.5727,2.5506,2.5029,2.4532,2.4275,2.4202,2.411,2.3608,2.337,2.3133,2.2675,2.2602,2.262,2.2565,2.2547,2.2492,2.2355,2.2108,2.1888,2.1723,2.1687,0.0,2.142,2.1365,2.1248,2.1028,2.0888,2.0613,2.0186,1.9985,1.982,1.9677,1.9659,1.9347,1.854,1.8228,0.0,0.0,0.0,1.5771,1.5368,1.5349,0.0,0.0,0.0,1.5349,1.5349,0.0,0.0,0.0,1.5955,1.6175,0.0,0.0,0.0,0.0,0.0,0.0,0.0,0.0,0.0,0.0,0.0,0.0,0.0,0.0,0.0,0.0,3.3541,3.6054,3.8016,3.9593,4.0969,4.2142,4.3261,4.4123,4.4563,4.4288,4.4105,4.4141,4.3738,4.3334,4.2949,0.0,0.0,0.0,0.0,4.0281,3.9858,3.9373,3.897,3.8487,3.8144,3.7723,3.7264,3.6439,3.565,3.4844,3.4037,3.3211,3.2404,3.1616,3.0772,2.9965,2.958,2.9415,2.9232,2.8171,2.7528,2.7123,2.6664,0.0,0.0,2.5378,2.4826,2.4202,2.4202,2.4202,2.411,2.3608,2.3242,2.2968,2.2913,2.2638,2.2455,2.2821,2.2913,2.2803,2.2437,2.2309,2.2181,2.1833,2.1723,2.1687,2.1687,2.1687,2.1687,2.1687,2.142,2.1016,2.0576,2.0168,1.9802,1.9421,0.0,0.0,1.8283,1.8173,1.7661,1.6523,1.6358,1.6156,1.5771,1.5716,1.568,1.568,1.5735,1.5753,1.5753,1.6175,1.6376,1.6376,1.6376,1.6578,0.0,0.0,0.0,0.0,0.0,0.0,0.0,0.0,0.0,0.0,0.0,0.0,0.0,0.0,0.0,3.3358,3.5797,3.8034,3.9758,4.0547,4.128,4.2179,4.2766,4.3389,4.4123,4.4123,4.4215,4.4526,4.3903,4.3463,4.3371,4.2381,4.161,4.1189,4.0483,3.9758,3.9355,3.8951,3.8548,3.8126,0.0,0.0,3.6421,3.5614,3.4807,3.4,3.3175,3.2368,3.1543,3.0754,2.9764,2.8737,2.8663,2.8407,2.8097,2.749,2.7233,2.7123,2.6388,2.5819,2.5378,2.4996,2.4606,2.4202,2.4202,2.4202,0.0,2.3608,2.3444,2.3316,2.2986,2.284,2.2803,2.2895,2.2913,2.2895,2.2803,2.2529,2.2254,2.2181,2.1906,2.1687,2.1687,2.1687,2.1687,2.1687,2.1632,2.1302,2.057,2.0406,2.0204,1.982,1.9765,1.9604,1.9109,1.8779,1.821,1.733,1.667,1.6285,1.6193,1.5863,1.568,1.568,1.6028,1.6193,1.6193,1.6597,1.6798,1.6798,1.6798,1.6835,0.0,0.0,0.0,0.0,0.0,0.0,0.0,0.0,0.0,0.0,0.0,2.7783,2.881,0.0,3.3486,3.532,3.7136,3.8676,3.9703,4.0382,4.106,4.1886,4.2509,4.3114,4.3738,4.3793,4.3958,4.4343,4.3628,4.3096,4.2894,4.1739,4.0895,4.0538,3.9667,3.9135,3.8933,3.8652,3.8438,3.8016,3.7613,3.6989,3.6182,3.5394,3.4587,3.3762,3.2955,3.2129,3.1304,3.0296,2.9177,2.8077,2.8077,2.7838,2.7509,2.7251,2.705,2.6793,2.6223,2.5764,2.5307,2.4904,2.4551,2.4202,2.4202,2.4202,2.411,2.3608,2.3499,2.3444,2.3261,2.3206,2.3242,2.351,2.3547,2.3437,2.2986,2.2748,2.2474,2.2071,2.1833,2.1687,2.1687,2.1687,2.1687,2.1687,2.1687,2.1467,2.0888,2.0649,2.0374,1.993,1.9692,1.9457,1.9036,1.8449,1.7935,1.7513,1.6945,1.6615,1.6615,1.6413,1.6303,1.6303,1.6505,1.6615,1.6615,1.6817,1.6908,1.6908,1.6908,1.7018,0.0,0.0,0.0,0.0,0.0,0.0,0.0,0.0,2.5986,2.6995,2.8627,3.0369,3.1854,3.3633,3.5375,3.6934,3.7998,3.8805,3.9281,3.985,4.051,4.1244,4.2032,4.2711,4.3206,4.3261,4.3389,4.3701,4.3188,4.2656,4.2179,4.117,4.0446,3.9932,3.9135,3.8713,3.856,3.856,3.8383,3.7888,3.7503,3.6842,3.5944,3.5155,3.4348,3.3523,3.2551,3.1763,3.1066,2.9929,2.8828,2.7932,2.7858,2.7526,2.716,2.7086,2.6866,2.6518,2.6076,2.569,2.5341,2.4812,2.4477,2.4202,2.4202,2.4202,2.4128,2.3749,2.3657,2.3657,2.3657,2.3657,2.3749,2.4128,2.4202,2.4018,2.3279,2.3023,2.2712,2.2053,2.1797,2.1687,2.1687,2.1687,2.1687,2.1687,2.1687,2.154,2.1163,2.0833,2.0406,1.993,1.9622,1.9237,1.876,1.8119,1.7697,1.7623,1.7312,1.711,1.7018,1.7018,1.6982,1.6908,1.6908,1.6908,1.6908,1.6908,1.6945,1.7018,1.7018,1.7183,2.3268,2.3206,2.3352,2.4702,2.4867,2.5527,0.0,0.0,2.947,3.1011,3.2368,3.356,3.4458,3.5687,3.6971,3.8236,3.8469,3.8915,3.9748,3.9538,3.9538,4.0079,4.0851,4.1555,4.2344,4.2417,4.2436,4.2472,4.2729,4.2546,4.1794,4.1262,4.0639,3.995,3.9392,3.8988,3.856,3.856,3.8255,3.7484,3.7099,3.6292,3.5137,3.433,3.3505,3.2643,3.1121,3.0424,3.0259,2.9397,2.8773,2.8278,2.7911,2.7526,2.7141,2.6774,2.6628,2.6481,2.5711,2.547,2.5286,2.4532,2.4238,2.4202,2.4202,2.4202,2.4183,2.4146,2.4128,2.4128,2.4128,2.4128,2.4146,2.4183,2.4202,2.4183,2.4091,2.3455,2.2876,2.2785,2.2181,2.1687,2.1687,2.1687,2.1687,2.1687,2.1687,2.154,2.1163,2.1071,2.0759,1.9966,1.9857,1.9509,1.8779,1.8632,1.843,1.8082,1.7972,1.7825,1.744,1.7422,1.7257,1.6908,1.6908,1.6908,1.6908,1.6908,1.7092,1.7422,1.7422,1.7458,2.4302,2.4647,0.0,0.0,2.6701,2.804,2.98,3.0791,3.1726,3.312,3.455,3.5742,3.6311,3.7228,3.7975,0.0,3.856,3.8768,3.9098,3.8988,3.8768,3.8475,3.9153,4.0162,4.1445,4.1574,4.1757,4.2234,4.2216,4.1922,4.1354,4.0795,4.0088,3.9502,3.9098,3.8695,3.8273,3.8451,3.8126,3.7081,3.6916,3.6201,3.5009,3.4183,3.3248,3.2184,3.0791,3.0204,3.013,2.9324,2.8608,2.8003,2.7895,2.738,2.6811,2.6646,2.6426,2.6186,2.5617,2.5267,2.4992,2.4385,2.4202,2.4202,2.4202,2.4202,2.4202,2.4202,2.4202,2.4202,2.4202,2.4202,2.4146,2.3859,2.3987,2.4073,2.3565,2.3151,2.284,2.2584,2.2071,2.1687,2.1687,2.1687,2.1687,2.1687,2.1687,2.1632,2.1449,2.1255,2.0888,2.0296,2.0021,1.9747,1.9457,1.8981,1.865,1.8485,1.821,1.8008,1.7862,1.7862,1.7789,1.7623,1.7623,1.7623,1.7623,1.7623,1.7661,1.7862,1.7862,1.799,2.4661,0.0,0.0,2.6848,2.8608,3.0497,3.1469,3.268,3.3908,3.5009,3.6182,3.7081,3.7374,3.7998,3.8475,3.8475,3.8487,3.856,3.856,3.8456,3.7998,3.7191,3.7411,3.8199,3.9593,4.0327,4.0969,4.1555,4.1555,4.128,4.0832,4.0244,3.9648,3.9245,3.8841,3.8493,3.8199,3.8383,3.7979,3.6989,3.6659,3.5925,3.4825,3.378,3.2716,3.1616,3.0626,3.013,2.9965,2.9269,2.8572,2.793,2.7877,2.7399,2.6738,2.6628,2.637,2.5947,2.5561,2.5106,2.4721,2.433,2.4202,2.4202,2.4202,2.4202,2.4202,2.4202,2.4202,2.4202,2.4202,2.4202,2.4091,2.359,2.3859,2.4018,2.3224,2.2986,2.2821,2.251,2.2034,2.1687,2.1687,2.1687,2.1687,2.1687,2.1687,2.1687,2.1687,2.1365,2.0998,2.0704,2.0186,1.9893,1.9893,1.9274,1.8871,1.8871,1.8614,1.8356,1.8246,1.8284,1.8191,1.8081,1.8081,1.8081,1.8081,1.8081,1.8136,1.8284,1.8284,1.8504,2.394,0.0,2.6572,2.8943,3.0717,3.2551,3.4917,3.5779,3.6329,3.7154,3.7374,3.7411,3.7429,3.7759,3.8034,3.8034,3.8383,3.856,3.856,3.7961,3.7154,3.6347,3.5595,3.5467,0.0,3.8493,3.9968,4.0005,4.0722,4.0814,4.0005,3.9932,3.9648,3.9245,3.8841,3.856,3.8542,3.8236,3.7814,3.7393,3.6219,3.5229,3.4367,3.279,3.1616,3.0809,3.0387,2.9965,2.9562,2.914,2.8737,2.8333,2.793,2.7583,2.7105,2.6719,2.637,2.5947,2.5561,2.5106,2.4721,2.433,2.4202,2.4202,2.4202,2.4202,2.4202,2.4202,2.4202,2.4202,2.4202,2.4202,2.4091,2.359,2.3859,2.4091,2.3572,2.3169,2.2895,2.2895,2.2236,2.1687,2.1687,2.1687,2.1687,2.1687,2.1687,2.1687,2.1687,2.1365,2.1108,2.1089,2.0351,1.9893,1.9893,1.9531,1.9292,1.9292,1.9274,1.9091,1.8705,1.8687,1.8522,1.81,1.8081,1.8081,1.8081,1.8081,1.8283,1.8687,1.8687,1.8907,2.5283,0.0,2.9287,3.1451,3.3211,3.4752,3.6109,3.6531,3.6622,3.6622,3.576,3.5027,3.5027,3.5137,3.5485,3.6292,3.7209,3.8016,3.8487,3.8163,3.7228,3.5614,3.565,0.0,0.0,0.0,0.0,3.9336,3.9685,3.9722,3.9447,3.9447,3.9245,3.886,3.8438,3.8108,3.7833,3.7704,3.7154,3.6219,3.499,3.3853,3.279,3.1983,3.1176,3.0369,2.9965,2.9709,2.9544,2.914,2.859,2.7967,2.782,2.7361,2.6774,2.6628,2.637,2.5947,2.5561,2.4973,2.4385,2.4257,2.4202,2.4202,2.4202,2.4202,2.4202,2.4202,2.4202,2.4202,2.4202,2.4202,2.4091,2.359,2.3859,2.4091,2.359,2.3187,2.2913,2.2913,2.2254,2.1687,2.1687,2.1687,2.1687,2.1687,2.1687,2.1687,2.1687,2.1559,2.1485,2.1485,2.1034,2.0613,2.0296,2.0191,1.9879,1.9329,1.9567,1.9531,1.9109,1.9109,1.9036,1.8907,1.8907,1.8907,1.8907,1.8907,1.8981,1.9109,1.9109,1.9164,2.6282,2.8944,3.1579,3.3743,3.5174,3.6219,3.6897,3.6714,3.6109,3.5119,3.3872,3.2808,3.2368,3.2294,3.2735,3.411,3.4972,3.6017,3.7558,3.7173,3.6347,3.5357,3.543,0.0,0.0,0.0,0.0,3.8255,3.864,3.8805,3.8805,3.8933,3.8915,3.8658,3.8383,3.8034,3.7631,3.7503,3.6677,3.5174,3.411,3.2955,3.1763,3.1377,3.0754,2.9965,2.969,2.9489,2.9342,2.9085,2.8498,2.7822,2.7822,2.7288,2.6591,2.6591,2.6224,2.5764,2.5506,2.4992,2.4404,2.4257,2.4202,2.4202,2.4202,2.4202,2.4202,2.4202,2.4202,2.4202,2.4202,2.4202,2.4091,2.359,2.3859,2.4091,2.359,2.3297,2.3114,2.3114,2.2455,2.1906,2.1906,2.1778,2.1687,2.1687,2.1687,2.1687,2.1687,2.1687,2.1687,2.1687,2.1365,2.0998,2.0741,2.0594,2.0301,1.9769,1.9861,1.9765,1.9531,1.9384,1.9292,1.9292,1.9292,1.9292,1.9292,1.9292,1.9292,1.9292,1.9292,1.9292,2.6847,3.0165,3.3203,3.5687,3.6549,3.6916,3.7228,3.6329,3.4862,3.2826,3.1671,3.0681,0.0,0.0,2.9947,3.1634,3.2038,3.3101,3.5907,3.532,3.488,0.0,0.0,0.0,0.0,0.0,0.0,3.6675,0.0,3.7998,3.8053,3.842,3.856,3.856,3.8542,3.8401,3.7979,3.7539,3.6311,3.4367,3.3541,3.2514,3.1341,3.0919,3.0296,2.9544,2.9544,2.9324,2.8975,2.8975,2.8498,2.7822,2.7822,2.7288,2.6591,2.6591,2.6078,2.5451,2.5433,2.5106,2.4735,2.433,2.4202,2.4202,2.4202,2.4202,2.4202,2.4202,2.4202,2.4202,2.4202,2.4202,2.411,2.3608,2.3877,2.4091,2.3608,2.3517,2.3499,2.3499,2.2858,2.2309,2.2291,2.1961,2.1705,2.1705,2.1687,2.1687,2.1687,2.1687,2.1687,2.1687,2.1383,2.1126,2.1108,2.0778,2.0558,2.0521,2.0149,1.993,1.9893,1.9549,1.9329,1.9292,1.9292,1.9292,1.9292,1.9292,1.9292,1.9292,1.9292,1.9292,2.8525,3.1461,3.3926,3.6503,3.6971,3.6622,3.5815,3.4238,3.2349,3.0314,2.8077,2.6279,0.0,0.0,0.0,3.0241,3.2423,0.0,3.7209,3.7558,0.0,3.6604,0.0,3.6292,3.5394,3.5962,0.0,0.0,3.7301,3.7833,3.8456,3.8505,3.856,3.856,3.8346,3.7979,3.7576,3.6292,3.5082,3.3945,3.2845,3.1836,3.0919,3.0204,2.9599,2.914,2.914,2.9067,2.8975,2.8975,2.8498,2.7822,2.7822,2.7288,2.6591,2.6591,2.6261,2.5819,2.5525,2.4955,2.4349,2.4238,2.4202,2.4202,2.4202,2.4202,2.4202,2.4202,2.4202,2.4202,2.4202,2.4202,2.4183,2.4073,2.4128,2.4183,2.4073,2.3767,2.3499,2.3499,2.3096,2.2638,2.2327,2.2199,2.2034,2.1742,2.1687,2.1687,2.1687,2.1687,2.1687,2.1687,2.1595,2.1456,2.1126,2.1266,2.1119,2.0558,2.0704,2.0539,1.9912,1.9783,1.9622,1.9311,1.9292,1.9292,1.9292,1.9292,1.9292,1.9292,1.9292,1.9292,2.9802,3.2632,3.4917,3.7095,3.7118,3.6109,3.4367,3.2258,2.9947,2.7454,2.5179,0.0,0.0,0.0,0.0,0.0,0.0,0.0,3.6256,3.7062,3.7319,0.0,3.7558,0.0,3.6494,3.6989,3.7356,0.0,3.7558,3.7888,3.8346,3.8469,3.856,3.856,3.8236,3.7649,3.6897,3.5302,3.4092,3.3266,3.2221,3.1212,3.0241,2.9843,2.936,2.8975,0.0,2.8975,2.8975,2.8792,2.8352,2.7803,2.7638,2.7123,2.6591,2.6591,2.637,2.5984,2.5764,2.5157,2.444,2.4257,2.4202,2.4202,2.4202,2.4202,2.4202,2.4202,2.4202,2.4202,2.4202,2.4202,2.4202,2.4202,2.4202,2.4202,2.4202,2.3969,2.3767,2.3535,2.3316,2.3041,2.262,2.2547,2.2474,2.2254,2.2071,2.1943,2.1943,2.1797,2.1687,2.1687,2.1687,2.1595,2.1357,2.1559,2.1504,2.1089,2.1089,2.0906,2.0466,2.0076,1.9783,1.9586,1.9402,1.9292,1.9292,1.9494,1.9476,1.9311,1.9494,1.9586,3.0691,3.3319,3.5508,3.7402,3.6861,3.5247,3.2753,3.0314,2.7691,2.4606,0.0,2.187,2.1108,2.1713,2.3272,2.6188,0.0,3.0461,3.4678,3.5522,3.6292,3.7906,3.8089,3.7961,3.7613,3.7888,3.8089,3.8089,3.8053,3.8034,3.8089,3.8438,3.8524,3.8396,3.8016,3.7228,3.6054,3.4568,3.3376,3.2514,3.1689,3.0699,2.9562,2.9525,2.9305,2.8975,2.8975,0.0,2.8957,2.8553,2.815,2.7785,2.7325,2.694,2.6591,2.6591,2.637,2.6021,2.6021,2.5488,2.4721,2.4404,2.4257,2.4202,2.4202,2.4202,2.4202,2.4202,2.4202,2.4202,2.4202,2.4202,2.4202,2.4202,2.4202,2.4202,2.4202,2.4202,2.4091,2.3694,2.3572,2.3444,2.3059,2.2986,2.2968,2.2913,2.2602,2.2364,2.2364,2.1961,2.1687,2.1687,2.1687,2.1687,2.1687,2.1687,2.1687,2.1687,2.1357,2.1163,2.1108,2.0351,1.9966,1.9966,1.9586,1.9421,1.9457,1.9783,1.9783,1.9476,1.9842,1.9966,3.1215,3.2762,3.3865,3.6426,3.5632,3.3505,3.0736,2.8281,0.0,0.0,2.1933,2.1071,2.0241,2.1284,2.3363,2.6554,0.0,0.0,0.0,0.0,3.6714,0.0,0.0,0.0,0.0,0.0,0.0,0.0,0.0,3.8163,3.8511,3.8524,3.8328,3.7649,3.6916,3.6109,3.5247,3.4293,3.3248,3.2093,3.1286,3.0424,2.9562,2.9232,2.9048,2.8975,2.8975,0.0,2.8957,2.8553,2.815,2.7785,2.7325,2.694,2.6591,2.6591,2.637,2.6021,2.6021,2.5488,2.4776,2.4702,2.4477,2.4202,2.4202,2.4202,2.4202,2.4202,2.4202,2.4202,2.4202,2.4202,2.4202,2.4202,2.4202,2.4202,2.4202,2.4202,2.4183,2.411,2.4091,2.3914,2.3462,2.3389,2.3279,2.295,2.284,2.2803,2.2803,2.2144,2.1687,2.1687,2.1687,2.1687,2.1687,2.1687,2.1687,2.1687,2.1632,2.1475,2.1126,2.0668,2.0411,2.0411,1.9985,1.9948,2.0301,2.0374,2.0374,2.0301,2.0374,2.0411,3.0659,3.2383,3.35,3.5036,3.4486,3.2643,2.9379,0.0,0.0,0.0,2.0594,2.0118,1.9912,0.0,0.0,0.0,0.0,0.0,0.0,0.0,0.0,0.0,0.0,0.0,0.0,0.0,0.0,0.0,0.0,3.8199,3.8542,3.8438,3.7851,3.6824,3.6219,3.5412,3.4403,3.3578,3.257,3.1359,3.0772,3.0057,2.9269,2.9067,2.8975,2.8975,2.8975,0.0,2.8938,2.8315,2.7948,2.7767,2.7105,2.6756,2.6591,2.6591,2.6463,2.6279,2.6279,2.5819,2.5087,2.5087,2.4716,2.4202,2.4202,2.4202,2.4202,2.4202,2.4202,2.4202,2.4202,2.4202,2.4202,2.4202,2.4202,2.4202,2.4202,2.4202,2.4257,2.4477,2.4349,2.4275,2.4464,2.4134,2.3877,2.3895,2.3499,2.3206,2.3206,2.2693,2.2236,2.2016,2.1815,2.1687,2.1687,2.1687,2.1687,2.1687,2.1687,2.1595,2.1394,2.1034,2.0814,2.0814,2.0448,2.0296,2.0521,2.0723,2.0723,2.0521,2.0723,2.0814,2.9867,3.1744,3.303,3.3768,3.3121,3.1504,2.8165,2.5326,0.0,0.0,1.9732,1.9641,1.9838,0.0,2.1676,0.0,0.0,0.0,0.0,0.0,0.0,0.0,0.0,0.0,0.0,0.0,0.0,0.0,0.0,0.0,3.8286,3.7906,3.7154,3.6109,3.5614,3.4825,3.3688,3.2881,3.1909,3.0791,3.0296,2.969,2.8975,2.8975,2.8975,2.8975,2.8975,0.0,0.0,2.8095,2.7822,2.7748,2.6903,2.6591,2.6591,2.6591,2.6591,2.6591,2.6591,2.6059,2.5414,2.5414,2.4863,2.4202,2.4202,2.4202,2.4202,2.4202,2.4257,2.433,2.433,2.433,2.4312,2.422,2.4202,2.4202,2.4202,2.4275,2.444,2.4721,2.4643,2.4661,2.5304,2.49,2.4551,2.4739,2.4225,2.3718,2.3645,2.3279,2.2913,2.2584,2.2108,2.1778,2.1705,2.1687,2.1687,2.1687,2.1687,2.1687,2.1687,2.1328,2.1145,2.1236,2.0851,2.0686,2.0778,2.1089,2.1089,2.0753,2.1089,2.1236,2.9332,3.0498,3.139,3.2766,3.1398,2.9103,2.6698,0.0,0.0,2.0314,2.0149,2.0319,1.9948,2.0241,2.1365,0.0,0.0,0.0,0.0,0.0,0.0,0.0,0.0,0.0,0.0,0.0,0.0,0.0,0.0,0.0,3.7521,3.6787,3.6164,3.5687,3.4917,3.411,3.3285,3.2478,3.1634,3.0772,3.0002,2.9397,2.8975,2.8975,2.8975,2.8975,2.8975,0.0,0.0,2.8095,2.7822,2.7748,2.6903,2.6591,2.6591,2.6591,2.6591,2.6591,2.6591,2.6059,2.5414,2.5414,2.4863,2.4202,2.4202,2.4202,2.4202,2.4202,2.4477,2.4721,2.4721,2.4721,2.4629,2.4293,2.4202,2.4202,2.4202,2.4496,2.4739,2.4776,2.5084,2.5341,2.5414,2.5359,2.5212,2.4831,2.4721,2.4537,2.4202,2.3749,2.3425,2.3389,2.2693,2.2089,2.1723,2.1687,2.1687,2.1687,2.1687,2.1687,2.1687,2.1328,2.1291,2.1632,2.1273,2.1236,2.1577,2.1614,2.1614,2.1577,2.1614,2.1632,2.7461,2.9153,3.0474,3.1277,2.9864,2.8066,2.6791,0.0,2.1475,2.0356,1.9942,1.9806,1.9875,1.9842,2.0338,0.0,0.0,0.0,0.0,0.0,0.0,0.0,0.0,0.0,0.0,0.0,0.0,0.0,0.0,0.0,3.5981,3.5907,3.5559,3.4899,3.4348,3.3651,3.2845,3.2038,3.1231,3.0424,2.9837,2.936,2.8975,2.8975,2.8975,2.8975,2.8975,0.0,0.0,2.8003,2.7675,2.7361,2.6811,2.6591,2.6591,2.6591,2.6591,2.6591,2.6591,2.6206,2.5782,2.5782,2.5231,2.4532,2.4275,2.4385,2.4587,2.4587,2.4882,2.5142,2.5142,2.4959,2.4739,2.4624,2.4771,2.501,2.5249,2.5617,2.5876,2.5876,2.5837,2.5855,2.6059,2.5693,2.5378,2.5212,2.4992,2.4629,2.4257,2.4055,2.3822,2.3517,2.2767,2.2263,2.2053,2.1833,2.1687,2.1687,2.1687,2.1687,2.1687,2.1522,2.1522,2.1687,2.1522,2.1522,2.1687,2.1687,2.1687,2.1687,2.1687,2.1687,2.5344,2.7181,2.8782,2.9604,2.8221,2.6644,0.0,0.0,2.0784,2.041,1.9654,1.9256,1.9659,1.9494,1.9659,0.0,0.0,0.0,0.0,0.0,0.0,0.0,0.0,0.0,0.0,0.0,0.0,0.0,0.0,0.0,0.0,3.4825,3.4697,3.4238,3.3725,3.3065,3.2239,3.1543,3.0809,3.002,2.9599,2.925,2.8975,2.8975,2.8975,2.8975,0.0,0.0,0.0,2.782,2.7491,2.7141,2.6738,2.6591,2.6591,2.6591,2.6591,2.6591,2.6591,2.637,2.6021,2.6021,2.5561,2.4904,2.4661,2.4679,2.4812,2.4922,2.5286,2.5598,2.5598,2.5396,2.5124,2.5124,2.5396,2.5708,2.6113,2.6463,2.6719,2.6609,2.6444,2.6425,2.6554,2.6114,2.5693,2.5617,2.5359,2.4992,2.4459,2.4385,2.4238,2.3767,2.3107,2.2584,2.2474,2.2089,2.187,2.187,2.176,2.1687,2.1687,2.1687,2.1687,2.1687,2.1687,2.1687,2.1687,2.1687,2.1687,2.1687,2.1687,2.1687,2.3193,2.4422,2.5985,2.784,2.6273,2.4499,0.0,0.0,2.0453,2.0354,1.945,1.8834,1.9237,1.9311,1.9567,2.0393,0.0,0.0,0.0,0.0,0.0,0.0,0.0,0.0,0.0,0.0,0.0,0.0,0.0,0.0,0.0,3.3468,3.3413,3.3798,3.3028,3.2221,3.1396,3.0992,3.0387,2.9562,2.9177,2.8993,2.8975,2.8975,2.8975,0.0,0.0,0.0,0.0,2.7508,2.7178,2.7141,2.6738,2.6591,2.6591,2.6591,2.6591,2.6591,2.6591,2.637,2.6021,2.6021,2.5745,2.5362,2.5414,2.5087,2.4867,2.5304,2.5708,2.6002,2.6002,2.6002,2.6002,2.6002,2.6002,2.6113,2.6481,2.6885,2.705,2.6664,2.6903,2.705,2.6646,2.6591,2.6444,2.6076,2.6002,2.5708,2.4886,2.4776,2.4661,2.4238,2.3785,2.3316,2.2931,2.251,2.2272,2.2272,2.1906,2.1687,2.1687,2.1687,2.1687,2.1687,2.1687,2.1687,2.1687,2.1687,2.1687,2.1687,2.1687,2.1687,2.1083,2.2432,2.3799,2.4844,2.4066,2.3315,2.411,0.0,2.035,2.0626,2.0198,1.9734,1.9545,1.9972,2.0662,2.1503,0.0,0.0,0.0,0.0,0.0,0.0,0.0,0.0,0.0,0.0,0.0,0.0,0.0,0.0,0.0,3.3028,3.2991,3.3395,3.2625,3.1928,3.1377,3.0717,3.0112,2.9623,2.9177,2.8975,2.8975,2.8975,0.0,0.0,0.0,0.0,0.0,2.7398,2.7013,2.6756,2.6628,2.6591,2.6591,2.6591,2.6591,2.6591,2.6591,2.6499,2.6389,2.6389,2.6168,2.5874,2.6114,2.5966,2.5727,2.6096,2.6481,2.6793,2.6463,2.6389,2.6389,2.6389,2.6389,2.6499,2.6903,2.7362,2.7509,2.7068,2.7086,2.705,2.6664,2.6591,2.6444,2.6076,2.6021,2.5727,2.4886,2.4776,2.4679,2.4257,2.4091,2.3804,2.3334,2.295,2.2584,2.2337,2.2163,2.198,2.1705,2.1687,2.1687,2.1687,2.1687,2.1687,2.1687,2.1687,2.1687,2.1687,2.1687,2.1687,1.8837,2.0489,2.1869,2.2906,2.2478,0.0,0.0,0.0,2.0136,2.0771,2.032,1.9757,1.9625,2.0056,2.0619,2.1123,0.0,0.0,0.0,0.0,0.0,0.0,0.0,0.0,0.0,0.0,0.0,0.0,0.0,0.0,0.0,3.268,3.2423,3.2514,3.1891,3.1341,3.0937,3.0296,2.9764,2.9342,2.9104,2.8975,2.8975,2.8828,0.0,0.0,0.0,0.0,0.0,2.7123,2.6811,2.6591,2.6591,2.6591,2.6591,2.6591,2.6591,2.6591,2.6591,2.6591,2.6591,2.6591,2.6408,2.6243,2.6518,2.6408,2.6315,2.6518,2.6756,2.6903,2.6646,2.6701,2.6811,2.6811,2.6921,2.7105,2.7343,2.76,2.7711,2.7251,2.7178,2.705,2.6664,2.6591,2.6499,2.6243,2.6241,2.6021,2.5359,2.5234,2.5065,2.4496,2.444,2.4275,2.3804,2.3352,2.3023,2.2748,2.2602,2.24,2.2163,2.2144,2.2071,2.1925,2.1925,2.1833,2.1687,2.1687,2.1687,2.1687,2.1687,2.1687,0.0,1.8415,2.0172,2.164,2.1223,2.0893,2.2636,0.0,0.0,2.0715,1.9962,1.9255,1.9608,1.9701,1.9757,1.9851,0.0,0.0,0.0,0.0,0.0,0.0,0.0,0.0,0.0,0.0,0.0,0.0,0.0,0.0,0.0,3.2423,3.1799,3.1341,3.0956,3.0552,3.0167,2.9764,2.9379,2.8975,2.8975,2.8975,2.892,2.8553,0.0,0.0,0.0,0.0,0.0,2.6756,2.6591,2.6591,2.6591,2.6591,2.6591,2.6591,2.6591,2.6591,2.6591,2.6573,2.6536,2.6536,2.6554,2.6591,2.6591,2.6591,2.6591,2.6591,2.6609,2.6628,2.6628,2.6903,2.7178,2.7178,2.7435,2.773,2.773,2.773,2.7563,2.7196,2.7141,2.7013,2.6646,2.6591,2.6591,2.6591,2.6591,2.6444,2.6058,2.6021,2.5727,2.4904,2.4831,2.4698,2.4275,2.3822,2.3535,2.3499,2.3151,2.2931,2.2913,2.2913,2.273,2.2327,2.2327,2.2126,2.1742,2.1742,2.1723,2.1687,2.1687,2.1687,1.4724,0.0,1.7175,1.7826,1.8494,1.924,0.0,0.0,0.0,0.0,0.0,0.0,0.0,0.0,0.0,0.0,0.0,0.0,0.0,0.0,0.0,0.0,0.0,0.0,0.0,0.0,0.0,0.0,0.0,0.0,0.0,3.2111,3.1671,3.0956,3.0552,3.0149,2.9727,2.9678,2.9379,2.8975,2.8975,2.8828,2.8535,2.8443,0.0,0.0,0.0,0.0,2.7141,2.6756,2.6591,2.6591,2.6591,2.6591,2.6591,2.6591,2.6591,2.6591,2.6591,2.6371,2.6168,2.6168,2.6334,2.6591,2.6591,2.6591,2.6591,2.6591,2.6811,2.7031,2.7031,2.7105,2.7178,2.7178,2.7013,2.6866,2.6866,2.6866,2.683,2.6738,2.6719,2.6701,2.6609,2.6591,2.6591,2.6591,2.6591,2.6444,2.6058,2.6021,2.5819,2.5289,2.5286,2.512,2.4666,2.4293,2.3877,2.3517,2.3407,2.3224,2.2913,2.2913,2.2858,2.2767,2.2767,2.2547,2.2144,2.2144,2.198,2.1687,2.1687,2.1687,1.4071,1.5097,1.6389,1.7152,1.8065,1.8995,2.0098,0.0,0.0,0.0,0.0,0.0,0.0,0.0,0.0,0.0,0.0,0.0,0.0,0.0,0.0,0.0,0.0,0.0,0.0,0.0,0.0,0.0,0.0,0.0,0.0,3.1377,3.0882,3.0241,3.002,2.98,2.9562,2.9397,2.9195,2.8975,2.8792,2.8608,2.8388,2.8003,2.771,0.0,0.0,0.0,2.6885,2.6683,2.6591,2.6591,2.6591,2.6591,2.6591,2.6591,2.6591,2.6591,2.6591,2.6444,2.6206,2.6076,2.6296,2.6591,2.6591,2.6591,2.6591,2.6591,2.6738,2.6903,2.6903,2.705,2.7123,2.6958,2.6885,2.6811,2.6628,2.6591,2.6591,2.6591,2.6591,2.6591,2.6591,2.6591,2.6591,2.6591,2.6591,2.6499,2.6279,2.6296,2.6169,2.5949,2.58,2.5598,2.5396,2.4826,2.4312,2.384,2.3822,2.373,2.351,2.351,2.3419,2.3187,2.3004,2.2803,2.2565,2.2565,2.2364,2.1961,2.1961,2.187,1.4106,1.5312,1.6746,1.7681,1.8346,1.9138,2.0654,0.0,0.0,0.0,0.0,0.0,0.0,2.0455,0.0,0.0,0.0,0.0,0.0,0.0,0.0,0.0,0.0,0.0,0.0,0.0,0.0,0.0,0.0,0.0,0.0,3.0571,3.0002,2.958,2.9562,2.9544,2.9489,2.914,2.8957,2.8902,2.8608,2.8388,2.8187,2.7545,2.7196,2.7068,0.0,0.0,2.6591,2.6591,2.6591,2.6591,2.6591,2.6591,2.6591,2.6591,2.6591,2.6573,2.6518,2.6499,2.6426,2.6131,2.6296,2.6591,2.6591,2.6628,2.6664,2.6609,2.6591,2.6591,2.6591,2.683,2.6995,2.6664,2.6848,2.6995,2.6664,2.6591,2.6591,2.6591,2.6591,2.6591,2.6591,2.6591,2.6591,2.6591,2.6591,2.6591,2.6591,2.6591,2.6609,2.6683,2.6407,2.6168,2.6113,2.5436,2.49,2.4422,2.4275,2.4202,2.4202,2.4202,2.3987,2.359,2.3261,2.3059,2.3004,2.3004,2.2785,2.2382,2.2355,2.2199,1.4608,1.5928,1.7068,1.6767,1.7141,1.8083,1.9698,0.0,0.0,0.0,0.0,0.0,0.0,0.0,0.0,0.0,0.0,0.0,0.0,0.0,0.0,0.0,0.0,0.0,0.0,0.0,0.0,0.0,0.0,0.0,0.0,3.0259,3.0002,2.958,2.9562,2.9415,2.9067,2.9012,2.881,2.8498,2.8755,2.8352,2.738,2.7638,2.7362,2.6683,0.0,2.6591,2.6591,2.6591,2.6591,2.6591,2.6591,2.6591,2.6591,2.6591,2.6591,2.6536,2.6241,2.6113,2.6094,2.6039,2.6296,2.6591,2.6591,2.683,2.7013,2.6683,2.6591,2.6591,2.6591,2.6628,2.6664,2.6609,2.6628,2.6664,2.6591,2.6591,2.6591,2.6591,2.6591,2.6591,2.6591,2.6591,2.6591,2.6591,2.6591,2.6591,2.6591,2.6591,2.6719,2.705,2.7031,2.6848,2.6518,2.6389,2.5986,2.5286,2.4587,2.4202,2.4202,2.4202,2.4183,2.411,2.4055,2.3804,2.3407,2.3407,2.3206,2.2803,2.2686,2.2619,1.4827,1.5684,1.6656,1.7254,1.8386,1.9688,0.0,0.0,0.0,0.0,0.0,0.0,0.0,0.0,0.0,0.0,0.0,0.0,0.0,0.0,0.0,0.0,0.0,0.0,0.0,0.0,0.0,0.0,0.0,0.0,0.0,0.0,2.9452,2.9269,2.925,2.9067,2.8663,2.8663,2.8572,2.8388,2.8132,2.771,2.7178,2.7141,2.694,2.6591,0.0,2.6591,2.6591,2.6591,2.6591,2.6591,2.6591,2.6591,2.6591,2.6591,2.6591,2.6518,2.6168,2.6168,2.6261,2.6094,2.6296,2.6591,2.6591,2.6719,2.6811,2.6646,2.6591,2.6591,2.6591,2.6591,2.6591,2.6591,2.6591,2.6591,2.6591,2.6591,2.6591,2.6591,2.6591,2.6591,2.6591,2.6591,2.6591,2.6591,2.6591,2.6591,2.6591,2.6591,2.6738,2.7141,2.6995,2.6958,2.7196,2.6628,2.6058,2.547,2.5065,2.4863,2.4863,2.4661,2.4551,2.4551,2.4312,2.411,2.3877,2.3877,2.3675,2.3206,2.2944,2.2806,1.5061,1.5592,1.6423,1.7655,1.9246,0.0,0.0,0.0,0.0,0.0,0.0,0.0,0.0,0.0,0.0,0.0,0.0,0.0,0.0,0.0,0.0,0.0,0.0,0.0,0.0,0.0,0.0,0.0,0.0,0.0,0.0,0.0,2.8975,2.8975,2.8902,2.87,2.8407,2.8205,2.8113,2.8095,2.7563,2.7215,2.7031,2.683,2.6683,2.6591,2.6591,2.6591,2.6591,2.6591,2.6591,2.6591,2.6591,2.6591,2.6591,2.6591,2.6591,2.6536,2.6278,2.6316,2.6536,2.626,2.6334,2.6591,2.6591,2.6591,2.6591,2.6591,2.6591,2.6591,2.6591,2.6591,2.6591,2.6591,2.6591,2.6591,2.6591,2.6591,2.6591,2.6591,2.6591,2.6591,2.6591,2.6591,2.6591,2.6591,2.6591,2.6591,2.6591,2.6591,2.6738,2.7141,2.6903,2.6976,2.7638,2.6738,2.6039,2.5727,2.5656,2.5672,2.5561,2.5032,2.4776,2.4776,2.4422,2.4202,2.4202,2.4202,2.4036,2.3675,2.3272,2.3136,1.5599,1.6316,1.6924,1.7195,1.7995,0.0,2.2884,2.332,0.0,2.4551,0.0,0.0,0.0,0.0,0.0,0.0,0.0,0.0,0.0,0.0,0.0,0.0,0.0,0.0,0.0,0.0,0.0,0.0,0.0,0.0,0.0,0.0,0.0,2.8975,2.8627,2.8425,2.8388,2.7636,2.727,2.727,2.7638,2.7399,2.6646,2.6976,2.694,2.6591,2.6591,2.6591,2.6591,2.6591,2.6591,2.6591,2.6591,2.6591,2.6591,2.6591,2.6591,2.6591,2.6554,2.6554,2.6591,2.6554,2.6554,2.6591,2.6591,2.6591,2.6591,2.6591,2.6591,2.6591,2.6591,2.6591,2.6591,2.6591,2.6591,2.6591,2.6591,2.6591,2.6591,2.6591,2.6591,2.6591,2.6591,2.6591,2.6591,2.6591,2.6591,2.6591,2.6591,2.6591,2.6738,2.7141,2.7141,2.716,2.7215,2.6811,2.6536,2.6499,2.6499,2.6334,2.5984,2.5179,2.4776,2.4776,2.4422,2.4202,2.4202,2.4202,2.4183,2.4146,2.3936,2.3847,1.5163,1.6052,1.6974,1.7211,1.8566,0.0,0.0,2.3428,2.425,2.5625,2.5957,0.0,0.0,0.0,0.0,0.0,0.0,0.0,0.0,0.0,0.0,0.0,0.0,0.0,0.0,0.0,0.0,0.0,0.0,0.0,0.0,0.0,0.0,2.8627,2.8223,2.7893,2.7636,2.7325,2.705,2.6811,2.6958,2.6885,2.6591,2.6738,2.6719,2.6591,2.6591,2.6591,2.6591,2.6591,2.6591,2.6591,2.6591,2.6591,2.6591,2.6591,2.6591,2.6591,2.6591,2.6591,2.6591,2.6591,2.6591,2.6591,2.6591,2.6591,2.6591,2.6591,2.6591,2.6591,2.6591,2.6591,2.6591,2.6591,2.6591,2.6591,2.6591,2.6591,2.6591,2.6591,2.6591,2.6591,2.6591,2.6591,2.6591,2.6591,2.6591,2.6591,2.6591,2.6591,2.6646,2.6793,2.7031,2.7068,2.683,2.7123,2.7215,2.6976,2.6719,2.6518,2.6353,2.5874,2.5451,2.5212,2.4808,2.4459,2.4202,2.4202,2.4202,2.4183,2.3828,2.3821,1.5217,1.5768,1.6653,1.7351,0.0,0.0,2.2815,2.4261,2.5654,2.7279,0.0,0.0,0.0,0.0,0.0,0.0,0.0,0.0,0.0,0.0,0.0,0.0,0.0,0.0,0.0,0.0,0.0,0.0,0.0,0.0,0.0,0.0,2.8187,2.8187,2.7801,2.7509,2.7178,2.705,2.6848,2.6591,2.6591,2.6591,2.6591,2.6591,2.6591,2.6591,2.6591,2.6591,2.6591,2.6591,2.6591,2.6591,2.6591,2.6591,2.6591,2.6591,2.6591,2.6591,2.6591,2.6591,2.6591,2.6591,2.6591,2.6591,2.6591,2.6591,2.6591,2.6591,2.6591,2.6591,2.6591,2.6591,2.6591,2.6591,2.6591,2.6591,2.6591,2.6591,2.6591,2.6591,2.6591,2.6591,2.6591,2.6591,2.6591,2.6591,2.6591,2.6591,2.6591,2.6591,2.6591,2.6591,2.683,2.6885,2.6609,2.7086,2.7325,2.7196,2.6811,2.6646,2.6774,2.6296,2.5819,2.5433,2.5157,2.4808,2.4404,2.4404,2.4404,2.4385,2.3932,2.3999,1.5841,1.5627,1.5996,0.0,0.0,0.0,2.4162,2.6041,2.7584,0.0,0.0,0.0,0.0,0.0,0.0,0.0,0.0,0.0,0.0,0.0,0.0,0.0,0.0,0.0,0.0,0.0,0.0,0.0,0.0,0.0,0.0,2.7985,2.7822,2.7822,2.738,2.7178,2.7178,2.6774,2.6591,2.6591,2.6591,2.6591,2.6591,2.6591,2.6591,2.6591,2.6591,2.6591,2.6591,2.6591,2.6591,2.6591,2.6591,2.6591,2.6591,2.6591,2.6591,2.6591,2.6591,2.6591,2.6591,2.6591,2.6591,2.6591,2.6591,2.6591,2.6591,2.6591,2.6591,2.6591,2.6591,2.6591,2.6591,2.6591,2.6591,2.6591,2.6591,2.6591,2.6591,2.6591,2.6591,2.6591,2.6591,2.6591,2.6591,2.6591,2.6591,2.6591,2.6591,2.6591,2.6591,2.6591,2.6591,2.6591,2.6591,2.6591,2.6756,2.7141,2.6811,2.6756,2.716,2.6443,2.5837,2.5433,2.5433,2.5231,2.4794,2.4794,2.4794,2.4776,2.4404,2.4572,1.6105,1.607,0.0,1.7112,0.0,0.0,0.0,0.0,0.0,0.0,0.0,0.0,0.0,0.0,0.0,0.0,0.0,0.0,0.0,0.0,0.0,0.0,0.0,0.0,0.0,0.0,0.0,0.0,0.0,0.0,0.0,2.7563,2.7361,2.7361,2.6976,2.6756,2.6756,2.6646,2.6591,2.6591,2.6591,2.6591,2.6591,2.6591,2.6591,2.6591,2.6591,2.6591,2.6591,2.6591,2.6591,2.6591,2.6591,2.6591,2.6591,2.6591,2.6591,2.6591,2.6591,2.6591,2.6591,2.6591,2.6591,2.6591,2.6591,2.6591,2.6591,2.6591,2.6591,2.6591,2.6591,2.6591,2.6591,2.6591,2.6591,2.6591,2.6591,2.6591,2.6591,2.6591,2.6591,2.6591,2.6591,2.6591,2.6591,2.6591,2.6591,2.6591,2.6591,2.6591,2.6591,2.6591,2.6591,2.6591,2.6591,2.6591,2.6628,2.6756,2.6646,2.6756,2.716,2.6683,2.6206,2.5837,2.5837,2.5635,2.5197,2.5197,2.5301,2.5507,2.5377,2.5531,1.6661,1.6706,0.0,1.8406,0.0,0.0,0.0,0.0,0.0,0.0,0.0,0.0,0.0,0.0,0.0,0.0,0.0,0.0,0.0,0.0,0.0,0.0,0.0,0.0,0.0,0.0,0.0,0.0,0.0,0.0,0.0,2.716,2.694,2.694,2.6554,2.6334,2.6334,2.6188,2.6114,2.6114,2.6114,2.6114,2.6114,2.6444,2.6591,2.6591,2.6591,2.6499,2.6353,2.6518,2.6591,2.6591,2.6591,2.6591,2.6591,2.6591,2.6591,2.6591,2.6591,2.6591,2.6591,2.6591,2.6591,2.6591,2.6591,2.6591,2.6591,2.6591,2.6591,2.6591,2.6591,2.6591,2.6591,2.6591,2.6591,2.6591,2.6591,2.6591,2.6591,2.6591,2.6591,2.6591,2.6591,2.6591,2.6591,2.6591,2.6591,2.6591,2.6591,2.6591,2.6591,2.6591,2.6591,2.6591,2.6591,2.6591,2.6664,2.6811,2.6683,2.6756,2.716,2.6793,2.6389,2.6021,2.6168,2.6111,2.5811,2.5811,2.5934,2.6177,2.6008,2.6215,1.7486,0.0,0.0,0.0,0.0,0.0,0.0,0.0,0.0,0.0,0.0,0.0,0.0,0.0,0.0,0.0,0.0,0.0,0.0,0.0,0.0,0.0,0.0,0.0,0.0,0.0,0.0,0.0,0.0,0.0,0.0,2.6719,2.6518,2.6481,2.6168,2.5966,2.5966,2.5598,2.5414,2.5414,2.5414,2.5414,2.5451,2.6169,2.6536,2.6536,2.6536,2.6316,2.6039,2.6371,2.6554,2.6591,2.6591,2.6591,2.6591,2.6591,2.6591,2.6591,2.6591,2.6591,2.6591,2.6591,2.6591,2.6591,2.6591,2.6591,2.6591,2.6591,2.6591,2.6591,2.6591,2.6591,2.6591,2.6591,2.6591,2.6591,2.6591,2.6591,2.6591,2.6591,2.6591,2.6591,2.6591,2.6591,2.6591,2.6591,2.6591,2.6591,2.6591,2.6591,2.6591,2.6591,2.6591,2.6591,2.6591,2.6591,2.6738,2.7105,2.6793,2.6738,2.716,2.6829,2.6462,2.6076,2.6443,2.6606,2.6502,2.6502,2.6608,2.6873,2.6527,2.6702,0.0,1.807,0.0,0.0,0.0,0.0,0.0,0.0,0.0,0.0,0.0,0.0,0.0,0.0,0.0,0.0,0.0,0.0,0.0,0.0,0.0,0.0,0.0,0.0,0.0,0.0,0.0,0.0,0.0,0.0,2.6278,2.6186,2.6002,2.569,2.5546,2.5543,2.5543,2.547,2.5414,0.0,2.5414,2.5414,2.5433,2.5929,2.6149,2.6149,2.6149,2.6094,2.6021,2.6113,2.6352,2.6591,2.6591,2.6591,2.6591,2.6591,2.6591,2.6591,2.6591,2.6591,2.6591,2.6591,2.6591,2.6591,2.6591,2.6591,2.6591,2.6591,2.6591,2.6591,2.6591,2.6591,2.6591,2.6591,2.6591,2.6591,2.6591,2.6591,2.6591,2.6591,2.6591,2.6591,2.6591,2.6591,2.6591,2.6591,2.6591,2.6591,2.6591,2.6591,2.6591,2.6591,2.6591,2.6591,2.6591,2.6591,2.6628,2.6719,2.6628,2.6719,2.7011,2.6936,2.6898,2.6805,2.706,2.7222,2.7182,2.7182,2.7343,2.7665,2.7569,2.7728,0.0,0.0,0.0,0.0,0.0,0.0,0.0,0.0,0.0,0.0,0.0,0.0,0.0,0.0,0.0,0.0,0.0,0.0,0.0,0.0,0.0,0.0,0.0,0.0,0.0,0.0,0.0,0.0,0.0,2.6371,2.5745,2.5727,2.5635,2.5433,2.5179,2.5087,2.5087,2.4937,2.4845,2.4845,2.4845,2.4937,2.5157,2.5543,2.5635,2.547,2.5653,2.5617,2.547,2.5653,2.5855,2.6004,2.6004,2.6004,2.6023,2.6224,2.6279,2.6316,2.6518,2.6591,2.6591,2.6591,2.6591,2.6591,2.6591,2.6591,2.6591,2.6591,2.6591,2.6591,2.6591,2.6591,2.6591,2.6591,2.6591,2.6591,2.6591,2.6591,2.6591,2.6591,2.6591,2.6591,2.6591,2.6591,2.6591,2.6591,2.6591,2.6591,2.6591,2.6591,2.6591,2.6591,2.6591,2.6591,2.6591,2.6736,2.6791,2.6791,2.6899,2.7062,2.7206,2.7368,2.7368,2.7206,2.7314,2.7476,2.7638,2.7638,2.7799,2.8067,2.8067,2.8174,0.0,0.0,0.0,0.0,0.0,0.0,0.0,0.0,0.0,0.0,0.0,0.0,0.0,0.0,0.0,0.0,0.0,0.0,0.0,0.0,0.0,0.0,0.0,0.0,0.0,0.0,0.0,0.0,0.0,2.5872,2.5356,2.5323,2.5234,2.5212,2.49,2.4716,2.4716,2.4385,2.4202,2.4202,2.4202,2.4385,2.4735,2.5065,2.5084,2.4794,2.5124,2.5139,2.4812,2.5142,2.5359,2.5414,2.5414,2.5414,2.547,2.5874,2.6021,2.6076,2.6444,2.6591,2.6591,2.6591,2.6591,2.6591,2.6591,2.6591,2.6591,2.6591,2.6591,2.6591,2.6591,2.6591,2.6591,2.6591,2.6591,2.6591,2.6591,2.6591,2.6591,2.6591,2.6591,2.6591,2.6591,2.6591,2.6591,2.6591,2.6591,2.6591,2.6591,2.6591,2.6591,2.6591,2.6591,2.6646,2.67,2.6899,2.7043,2.7043,2.726,2.7422,2.7476,2.7745,2.7799,2.753,2.753,2.7691,2.796,2.796,2.8067,2.8301,2.8301,2.8301,0.0,0.0,0.0,0.0,0.0,0.0,0.0,0.0,0.0,0.0,0.0,0.0,0.0,0.0,0.0,0.0,0.0,0.0,0.0,0.0,0.0,0.0,0.0,0.0,0.0,0.0,0.0,0.0,2.5914,2.5471,2.5168,2.5002,2.4753,2.4385,2.4312,2.4293,2.4293,2.4238,2.4202,2.4202,2.4202,2.4238,2.4293,2.4349,2.4532,2.4794,2.4831,2.4831,2.4794,2.4849,2.512,2.5414,2.5414,2.5414,2.547,2.5874,2.6021,2.6076,2.6444,2.6591,2.6591,2.6591,2.6591,2.6591,2.6591,2.6591,2.6591,2.6591,2.6591,2.6591,2.6591,2.6591,2.6591,2.6591,2.6591,2.6591,2.6591,2.6591,2.6591,2.6591,2.6591,2.6591,2.6591,2.6591,2.6591,2.6591,2.6591,2.6591,2.6591,2.6591,2.6591,2.6591,2.6591,2.6682,2.6935,2.6989,2.7098,2.7314,2.7368,2.753,2.7799,2.7906,2.796,2.8194,2.8194,2.8174,2.8247,2.8247,2.8247,2.8301,2.8301,2.8301,0.0,0.0,0.0,0.0,0.0,0.0,0.0,0.0,0.0,0.0,0.0,0.0,0.0,0.0,0.0,0.0,0.0,0.0,0.0,0.0,0.0,0.0,0.0,0.0,0.0,0.0,0.0,0.0,2.5071,2.4865,2.4454,2.4548,2.4485,2.4202,2.4202,2.4091,2.3822,2.3804,2.3804,2.3822,2.4091,2.4202,2.4202,2.4202,2.4312,2.4477,2.4477,2.4477,2.4477,2.4477,2.4587,2.4735,2.4735,2.4735,2.479,2.5194,2.5488,2.5745,2.6096,2.6389,2.6591,2.6591,2.6591,2.6591,2.6591,2.6591,2.6591,2.6591,2.6591,2.6591,2.6591,2.6591,2.6591,2.6591,2.6591,2.6591,2.6591,2.6591,2.6591,2.6591,2.6591,2.6591,2.6591,2.6591,2.6591,2.6591,2.6591,2.6591,2.6591,2.6591,2.6591,2.6591,2.6591,2.6682,2.6989,2.7152,2.7368,2.7638,2.7799,2.796,2.8121,2.8121,2.8174,2.8301,2.8301,2.8301,2.8301,2.8301,2.8301,2.8301,2.8301,2.8301,0.0,0.0,0.0,0.0,0.0,0.0,0.0,0.0,0.0,0.0,0.0,0.0,0.0,0.0,0.0,0.0,0.0,0.0,0.0,0.0,0.0,0.0,0.0,0.0,0.0,0.0,0.0,0.0,2.4352,2.4355,2.3955,2.416,2.4182,2.4005,2.3938,2.3742,2.3352,2.3352,2.3389,2.3499,2.3859,2.4091,2.4251,2.4202,2.4251,2.435,2.4251,2.4202,2.4202,2.4202,2.4202,2.4202,2.4202,2.4202,2.4257,2.4629,2.5032,2.5488,2.5874,2.6243,2.6591,2.6591,2.6591,2.6591,2.6591,2.6591,2.6591,2.6591,2.6591,2.6591,2.6591,2.6591,2.6591,2.6591,2.6591,2.6591,2.6591,2.6591,2.6591,2.6591,2.6591,2.6591,2.6591,2.6591,2.6628,2.6719,2.6738,2.6774,2.6885,2.6811,2.6738,2.6738,2.6646,2.6736,2.7043,2.726,2.7584,2.796,2.8194,2.834,2.8437,2.834,2.834,2.8457,2.834,2.8301,2.8301,2.8301,2.8301,2.8301,2.8301,2.8301,0.0,0.0,0.0,0.0,0.0,0.0,0.0,0.0,0.0,0.0,0.0,0.0,0.0,0.0,0.0,0.0,0.0,0.0,0.0,0.0,0.0,0.0,0.0,0.0,0.0,0.0,0.0,0.0,0.0,2.4017,2.4017,2.3841,2.3645,2.3345,2.3345,2.3204,2.2931,2.2931,2.3133,2.3499,2.3517,2.3864,2.448,2.4301,2.4449,2.4843,2.4399,2.4202,2.4202,2.4202,2.4202,2.4202,2.4202,2.4202,2.4257,2.4629,2.5032,2.5488,2.5874,2.6243,2.6591,2.6591,2.6591,2.6591,2.6591,2.6591,2.6591,2.6591,2.6591,2.6591,2.6591,2.6591,2.6591,2.6591,2.6591,2.6591,2.6591,2.6591,2.6591,2.6591,2.6591,2.6591,2.6591,2.6591,2.6719,2.7086,2.7141,2.7288,2.7711,2.738,2.7141,2.7141,2.6811,2.6791,2.7314,2.7368,2.7638,2.8228,2.8281,2.8476,2.8867,2.8496,2.8476,2.8887,2.8496,2.8301,2.8301,2.8301,2.8301,2.8301,2.8301,2.8301,0.0,0.0,0.0,0.0,0.0,0.0,0.0,0.0,0.0,0.0,0.0,0.0,0.0,0.0,0.0,0.0,0.0,0.0,0.0,0.0,0.0,0.0,0.0,0.0,0.0,0.0,0.0,0.0,0.0,2.3777,2.364,2.3817,2.3784,2.357,2.357,2.3299,2.2788,2.2788,2.2769,2.273,2.3242,2.3717,2.4108,2.4319,2.4578,2.4892,2.4529,2.4381,2.4399,2.4251,2.4202,2.4202,2.4202,2.4202,2.422,2.4367,2.4679,2.5051,2.5506,2.5892,2.6278,2.6499,2.6591,2.6591,2.6591,2.6591,2.6591,2.6591,2.6591,2.6591,2.6591,2.6591,2.6591,2.6591,2.6591,2.6591,2.6591,2.6591,2.6591,2.6591,2.6591,2.6664,2.6921,2.6976,2.7105,2.749,2.762,2.7508,2.7454,2.727,2.7086,2.683,2.6828,2.6989,2.7368,2.785,2.8276,2.8637,2.8965,2.918,2.9336,2.8926,2.8769,2.8906,2.8516,2.8301,2.8301,2.8301,2.8301,2.8301,2.8301,2.8301,0.0,0.0,0.0,0.0,0.0,0.0,0.0,0.0,0.0,0.0,0.0,0.0,0.0,0.0,0.0,0.0,0.0,0.0,0.0,0.0,0.0,0.0,0.0,0.0,0.0,0.0,0.0,0.0,0.0,0.0,2.3306,2.3557,2.364,2.3385,2.3294,2.3051,2.2588,2.2542,2.2508,2.2565,2.2915,2.3433,2.4047,2.4212,2.4564,2.5039,2.4726,2.4578,2.448,2.4301,2.4202,2.4202,2.4202,2.4251,2.4319,2.4498,2.4863,2.5289,2.5644,2.598,2.6367,2.6554,2.6591,2.6591,2.6591,2.6591,2.6591,2.6591,2.6591,2.6591,2.6591,2.6591,2.6591,2.6591,2.6591,2.6591,2.6591,2.6591,2.6591,2.6591,2.6701,2.6866,2.7141,2.7288,2.7471,2.7785,2.7822,2.7785,2.76,2.7471,2.7381,2.7364,2.7382,2.7564,2.7967,2.8435,2.8829,2.9141,2.9414,2.9626,2.9626,2.9141,2.8926,2.8926,2.8516,2.8301,2.8301,2.8301,2.8301,2.8301,2.8301,2.8301,0.0,0.0,0.0,0.0,0.0,0.0,0.0,0.0,0.0,0.0,0.0,0.0,0.0,0.0,0.0,0.0,0.0,0.0,0.0,0.0,0.0,0.0,0.0,0.0,0.0,0.0,0.0,0.0,2.3535,2.3594,2.312,2.3101,2.3013,2.2794,2.2574,2.2441,2.2397,2.222,2.2426,2.2983,2.2547,2.3038,2.4316,2.4029,2.4447,2.5284,2.5039,2.4775,2.4529,2.4301,2.4202,2.4202,2.4202,2.435,2.4585,2.5045,2.5609,2.621,2.6349,2.6654,2.6916,2.6682,2.6591,2.6591,2.6591,2.6591,2.6591,2.6591,2.6591,2.6591,2.6591,2.6591,2.6591,2.6591,2.6591,2.6591,2.6591,2.6591,2.6591,2.6591,2.6903,2.716,2.7196,2.7508,2.784,2.7858,2.7858,2.793,2.8333,2.8079,2.8083,2.8702,2.8462,2.8446,2.9066,2.9141,2.9254,2.959,2.9646,2.9609,2.9646,2.916,2.8926,2.8926,2.8516,2.8301,2.8301,2.8301,2.8301,2.8301,2.8301,2.8301,1.8008,0.0,0.0,0.0,0.0,0.0,0.0,1.9806,0.0,0.0,0.0,0.0,0.0,0.0,0.0,0.0,0.0,0.0,0.0,0.0,0.0,0.0,0.0,0.0,0.0,0.0,0.0,0.0,2.3198,2.3218,2.3101,2.3101,2.3057,2.3013,2.2969,2.2838,2.2706,2.2618,2.2587,2.2567,2.2734,2.3285,2.4162,2.4374,2.49,2.5577,2.5284,2.5137,2.5039,2.4578,2.4449,2.4449,2.4449,2.443,2.4585,2.5246,2.5642,2.5831,2.6465,2.6627,2.6598,2.6788,2.6736,2.6591,2.6591,2.6591,2.6591,2.6591,2.6591,2.6591,2.6591,2.6591,2.6591,2.6591,2.6591,2.6591,2.6591,2.6736,2.6845,2.6646,2.6683,2.694,2.7508,2.7748,2.8024,2.8553,2.8407,2.8318,2.8642,2.8366,2.8257,2.8653,2.8804,2.8897,2.9066,2.9581,2.9963,3.0019,3.0332,3.0371,3.0039,2.9609,2.9238,2.8926,2.8516,2.8301,2.8301,2.8301,2.8301,2.8301,2.8301,2.8301,0.0,0.0,0.0,0.0,0.0,0.0,1.8828,1.9124,1.9512,0.0,0.0,0.0,0.0,0.0,0.0,0.0,0.0,0.0,0.0,0.0,0.0,0.0,0.0,0.0,0.0,0.0,0.0,2.3101,2.3101,2.3101,2.3101,2.3101,2.3101,2.3101,2.3101,2.3057,2.2925,2.2838,2.275,2.2706,2.2713,2.3195,2.4063,2.4333,2.487,2.5528,2.5499,2.5479,2.543,2.499,2.4794,2.4677,2.4529,2.4627,2.4881,2.5415,2.5831,2.6282,2.6798,2.6983,2.7047,2.7131,2.7008,2.6791,2.6791,2.6791,2.6791,2.6791,2.6791,2.6736,2.6646,2.6591,2.6591,2.6591,2.67,2.6791,2.6791,2.7008,2.7043,2.67,2.6938,2.7308,2.7678,2.7972,2.8286,2.86,2.86,2.8602,2.8777,2.8726,2.8822,2.9336,2.9527,2.9718,2.9832,3.0237,3.0488,3.0488,3.0742,3.0684,3.0215,2.9785,2.9355,2.8926,2.8516,2.8301,2.8301,2.8301,2.8301,2.8301,2.8301,2.8301,0.0,0.0,0.0,0.0,0.0,0.0,1.9082,1.8945,1.8773,0.0,0.0,0.0,0.0,0.0,0.0,0.0,0.0,0.0,0.0,0.0,0.0,0.0,0.0,0.0,0.0,2.3062,2.3101,2.3101,2.3101,2.3101,2.3101,2.3101,2.3101,2.3101,2.3101,2.3101,2.3101,2.2925,2.2925,2.3101,2.2706,2.3019,2.3967,2.4071,2.4553,2.5305,2.5557,2.5693,2.5693,2.543,2.5186,2.4941,2.4677,2.4892,2.5342,2.5614,2.6218,2.6961,2.711,2.7444,2.7718,2.7397,2.7128,2.6913,2.6969,2.6987,2.6987,2.7025,2.7043,2.6989,2.6736,2.67,2.67,2.67,2.6899,2.7043,2.7043,2.726,2.7314,2.6791,2.7342,2.788,2.7623,2.8219,2.8592,2.8331,2.8612,2.8855,2.8948,2.92,2.9622,3.0392,3.045,3.0567,3.0879,3.0898,3.0898,3.0898,3.0898,3.0684,3.0215,2.9785,2.9355,2.8926,2.8516,2.8301,2.8301,2.8301,2.8301,2.8301,2.8301,2.8301,0.0,0.0,0.0,0.0,0.0,0.0,1.8929,1.8965,1.9082,0.0,0.0,0.0,0.0,0.0,0.0,0.0,0.0,0.0,0.0,0.0,0.0,0.0,0.0,0.0,0.0,2.2906,2.3101,2.3101,2.3101,2.3101,2.3101,2.3101,2.3101,2.3101,2.3101,2.3101,2.3101,2.3057,2.3057,2.3101,2.3013,2.3285,2.3835,2.4166,2.4614,2.5167,2.5538,2.5693,2.5693,2.5645,2.543,2.5235,2.5137,2.5186,2.5391,2.6032,2.6345,2.6562,2.6941,2.6982,2.6833,2.6781,2.6541,2.6337,2.6729,2.6824,2.6899,2.722,2.7314,2.7314,2.7279,2.7225,2.7225,2.7225,2.726,2.7314,2.7314,2.7584,2.7691,2.7333,2.7389,2.7559,2.7567,2.7902,2.837,2.8993,2.8899,2.9032,3.0005,2.9853,2.9988,3.0723,3.082,3.082,3.0898,3.0898,3.0898,3.0898,3.0898,3.0684,3.0215,2.9785,2.9355,2.8926,2.8516,2.8301,2.8301,2.8301,2.8301,2.8301,2.8301,2.8301,0.0,0.0,0.0,1.9922,0.0,0.0,0.0,1.8965,1.887,0.0,0.0,0.0,0.0,0.0,0.0,0.0,0.0,0.0,0.0,0.0,0.0,0.0,0.0,0.0,0.0,2.2578,2.2867,2.3081,2.2906,2.2867,2.3081,2.2734,2.2715,2.3081,2.2886,2.2886,2.3101,2.3101,2.3101,2.3101,2.3101,2.3379,2.3809,2.4219,2.4648,2.5145,2.5547,2.5693,2.5693,2.5693,2.5645,2.5499,2.5333,2.5382,2.5518,2.578,2.6092,2.6426,2.6621,2.6734,2.6807,2.6807,2.6602,2.6384,2.6645,2.6855,2.7103,2.7523,2.7638,2.7584,2.7422,2.7368,2.7368,2.7368,2.753,2.7638,2.7638,2.7906,2.8014,2.7691,2.7918,2.8052,2.7799,2.8024,2.842,2.8859,2.9088,2.9432,3.0026,3.0064,3.0218,3.084,3.0684,3.0644,3.0879,3.0898,3.0898,3.0898,3.0898,3.0684,3.0215,2.9785,2.9258,2.8613,2.8398,2.8301,2.8301,2.8301,2.8301,2.8301,2.8301,2.8301,0.0,0.0,0.0,0.0,0.0,1.9824,0.0,0.0,0.0,0.0,0.0,0.0,0.0,0.0,0.0,0.0,0.0,0.0,0.0,0.0,0.0,0.0,0.0,0.0,0.0,2.207,2.2441,2.2828,2.2578,2.2539,2.2828,2.2246,2.2227,2.2945,2.2695,2.2672,2.3081,2.3101,2.3101,2.3101,2.3101,2.3276,2.3691,2.418,2.4609,2.498,2.5508,2.5693,2.5693,2.5693,2.5693,2.5693,2.543,2.5499,2.5693,2.543,2.5761,2.6269,2.6269,2.6484,2.6777,2.6777,2.6664,2.6589,2.6666,2.6995,2.7419,2.7844,2.796,2.7906,2.7638,2.7584,2.7584,2.7584,2.7799,2.796,2.796,2.8121,2.8228,2.8014,2.8393,2.8602,2.808,2.833,2.8619,2.8774,2.937,2.9814,2.9987,3.0082,3.0371,3.084,3.0469,3.0391,3.0859,3.0898,3.0859,3.0762,3.084,3.0684,3.0215,2.9863,2.9316,2.8555,2.8535,2.8535,2.8535,2.8535,2.8457,2.8301,2.8301,2.8301,0.0,0.0,0.0,0.0,2.166,0.0,0.0,0.0,0.0,0.0,0.0,0.0,0.0,0.0,0.0,0.0,0.0,0.0,0.0,0.0,0.0,0.0,0.0,0.0,0.0,0.0,2.1522,2.1992,2.1973,2.1973,2.2031,2.1934,2.2109,2.2559,2.2539,2.2672,2.3081,2.3101,2.3101,2.3101,2.3101,2.312,2.3198,2.4043,2.4453,2.4531,2.5323,2.5693,2.5693,2.5693,2.5693,2.5693,2.5693,2.5693,2.5693,2.5693,2.5713,2.5752,2.5752,2.5791,2.583,2.583,2.6103,2.6473,2.6844,2.7273,2.7754,2.813,2.8228,2.8247,2.8194,2.8194,2.8194,2.8194,2.8247,2.8228,2.8228,2.8301,2.8281,2.8247,2.834,2.8369,2.8427,2.8687,2.9124,2.9885,2.9768,2.9922,3.0665,3.0449,3.0371,3.084,3.0469,3.0391,3.0859,3.0898,3.0723,3.0293,3.0664,3.0684,3.0215,3.0156,2.9902,2.9434,2.9434,2.9434,2.9434,2.9434,2.9043,2.8301,2.8301,2.8301,0.0,0.0,0.0,0.0,0.0,0.0,2.08,0.0,2.0039,0.0,0.0,0.0,0.0,0.0,0.0,0.0,0.0,0.0,0.0,0.0,0.0,0.0,0.0,0.0,0.0,0.0,0.0,0.0,2.1153,2.123,2.1504,2.1269,2.1543,2.248,2.2266,2.2461,2.3081,2.3101,2.3101,2.3101,2.3101,2.3218,2.3535,2.4141,2.4551,2.4824,2.5421,2.5693,2.5693,2.5693,2.5693,2.5693,2.5693,2.5693,2.5693,2.5693,2.5693,2.5693,2.5693,2.5693,2.5693,2.5693,2.581,2.6133,2.6816,2.7148,2.7422,2.8105,2.8301,2.8301,2.8301,2.8301,2.8301,2.8301,2.8301,2.8301,2.8301,2.8301,2.8301,2.8301,2.8496,2.8657,2.8742,2.8622,2.8769,2.9375,2.9512,2.9785,3.041,3.0098,3.0,3.0449,2.9863,2.9629,3.0078,3.0137,3.0039,2.9844,3.0019,3.0039,2.9844,2.9824,2.9746,2.957,2.9626,2.9626,2.9626,2.9626,2.9375,2.9023,2.8769,2.8516,2.2633,0.0,0.0,0.0,0.0,0.0,0.0,0.0,0.0,0.0,0.0,0.0,0.0,0.0,0.0,0.0,0.0,0.0,0.0,0.0,0.0,0.0,0.0,0.0,0.0,0.0,0.0,2.0352,2.0312,2.041,2.082,2.0566,2.0937,2.2129,2.1973,2.2227,2.2925,2.3042,2.3101,2.3101,2.3101,2.3379,2.3809,2.4219,2.4648,2.5145,2.5547,2.5693,2.5693,2.5693,2.5693,2.5693,2.5693,2.5693,2.5693,2.5693,2.5693,2.5693,2.5693,2.5693,2.5693,2.5693,2.5693,2.5849,2.6758,2.7012,2.7187,2.8047,2.8301,2.8301,2.8301,2.8301,2.8301,2.8301,2.8301,2.8301,2.8301,2.8301,2.8301,2.8301,2.8633,2.8926,2.8926,2.8769,2.8789,2.9199,2.9531,2.9902,3.0332,3.0,2.9902,3.0351,2.9609,2.9277,2.9707,2.9629,2.9685,2.9726,2.9629,2.9744,2.9922,2.9941,2.9941,2.9941,2.9941,2.9941,2.9941,2.9941,2.9863,2.9726,2.9297,2.8926,0.0,0.0,0.0,2.2617,0.0,0.0,0.0,0.0,2.2187,0.0,0.0,0.0,0.0,0.0,0.0,0.0,0.0,0.0,0.0,0.0,0.0,0.0,0.0,0.0,0.0,0.0,0.0,1.9902,1.9551,1.9512,1.9941,1.9941,2.0352,2.121,2.168,2.209,2.2539,2.2886,2.3101,2.3101,2.3101,2.3379,2.3809,2.4219,2.4648,2.5145,2.5547,2.5693,2.5693,2.5693,2.5693,2.5693,2.5693,2.5693,2.5693,2.5693,2.5693,2.5693,2.5693,2.5693,2.5693,2.5693,2.5693,2.5849,2.6758,2.7012,2.7187,2.8047,2.8301,2.8301,2.8301,2.8301,2.8301,2.8301,2.8301,2.8301,2.8301,2.8301,2.8301,2.8301,2.8633,2.8926,2.8926,2.9258,2.9668,3.0098,3.0176,3.0351,3.082,3.0469,3.0351,3.082,3.0078,2.9726,3.0137,2.9805,2.9746,3.0156,2.9785,2.9961,3.082,3.0859,3.0859,3.0859,3.0859,3.0859,3.0859,3.0859,3.0625,3.0176,2.9746,2.9607,0.0,0.0,2.3842,2.3457,0.0,0.0,0.0,0.0,0.0,0.0,0.0,0.0,0.0,0.0,0.0,0.0,0.0,0.0,0.0,0.0,0.0,0.0,0.0,0.0,0.0,0.0,0.0,1.8652,1.8754,1.9043,1.9473,1.9766,2.0274,2.1171,2.1327,2.1797,2.25,2.2613,2.2828,2.3101,2.3101,2.3471,2.4219,2.4355,2.4824,2.5527,2.5615,2.5693,2.5693,2.5693,2.5693,2.5693,2.5693,2.5693,2.5693,2.5693,2.5693,2.5693,2.5693,2.5693,2.5693,2.5693,2.5693,2.5849,2.6758,2.7012,2.7187,2.8047,2.8301,2.8301,2.8301,2.8301,2.8301,2.8301,2.8301,2.8301,2.8301,2.8301,2.8301,2.8301,2.8633,2.8926,2.8926,2.9512,3.0039,3.0176,3.0195,3.0371,3.084,3.0488,3.0156,3.0019,2.9492,2.9082,2.8945,2.8809,2.8906,2.9316,2.9492,2.9824,3.041,3.0723,3.0898,3.0898,3.0898,3.0898,3.0898,3.0898,3.082,3.0644,3.0508,3.0137,2.4414,2.4414,0.0,2.4082,2.3809,0.0,2.3066,0.0,0.0,0.0,0.0,0.0,0.0,0.0,0.0,0.0,0.0,0.0,0.0,1.8149,0.0,0.0,0.0,0.0,0.0,0.0,1.8481,1.8227,1.8305,1.8637,0.0,0.0,2.0098,2.0977,2.1309,2.1738,2.2285,2.2578,2.2828,2.3101,2.3101,2.3471,2.4199,2.4355,2.4824,2.5508,2.5615,2.5693,2.5693,2.5693,2.5693,2.5693,2.5693,2.5693,2.5693,2.5693,2.5693,2.5693,2.5693,2.5693,2.5693,2.5693,2.5693,2.583,2.6582,2.6894,2.7129,2.7676,2.8066,2.8262,2.8105,2.8184,2.8301,2.8301,2.8301,2.8301,2.8301,2.8301,2.834,2.8496,2.8867,2.9199,2.9355,2.9961,3.0391,3.0215,3.0332,3.0547,3.0859,3.0625,3.0332,3.0078,2.9648,2.9141,2.8574,2.8652,2.8867,2.9141,2.9551,2.998,3.043,3.0723,3.0957,3.1113,3.0957,3.0957,3.1113,3.0957,3.0898,3.0898,3.0898,3.0718]}]]